<?xml version="1.0" encoding="UTF-8" standalone="no" ?>
<gpx xmlns="http://www.topografix.com/GPX/1/1" xmlns:xsi="http://www.w3.org/2001/XMLSchema-instance" xsi:schemaLocation="http://www.topografix.com/GPX/1/1 http://www.topografix.com/GPX/1/1/gpx.xsd" version="1.1" creator="VisuGPX - https://www.visugpx.com">
  <metadata>
    <name>balade lannion trébeurden trégastel lannion 2</name>
    <desc><![CDATA[Balade autour de Lannion. averses de pluie, vent fort et soleil. Tout quoi.]]></desc>
  </metadata>
  <trk>
    <name><![CDATA[13 nov. 2015 13:56:35]]></name>
    <cmt><![CDATA[13 nov. 2015 13:56:35]]></cmt>
    <trkseg>
      <trkpt lat="48.73643" lon="-3.46307">
        <ele>49.9</ele>
        <time>2015-11-13T12:57:03Z</time>
      </trkpt>
      <trkpt lat="48.7366" lon="-3.463">
        <ele>6</ele>
        <time>2015-11-13T12:57:36Z</time>
      </trkpt>
      <trkpt lat="48.73696" lon="-3.4626">
        <ele>50.6</ele>
        <time>2015-11-13T12:57:49Z</time>
      </trkpt>
      <trkpt lat="48.73735" lon="-3.46204">
        <ele>50.5</ele>
        <time>2015-11-13T12:58:03Z</time>
      </trkpt>
      <trkpt lat="48.73756" lon="-3.46204">
        <ele>6</ele>
        <time>2015-11-13T12:58:06Z</time>
      </trkpt>
      <trkpt lat="48.73777" lon="-3.46212">
        <ele>5</ele>
        <time>2015-11-13T12:58:09Z</time>
      </trkpt>
      <trkpt lat="48.73797" lon="-3.4622">
        <ele>4</ele>
        <time>2015-11-13T12:58:12Z</time>
      </trkpt>
      <trkpt lat="48.73815" lon="-3.4623">
        <ele>3</ele>
        <time>2015-11-13T12:58:15Z</time>
      </trkpt>
      <trkpt lat="48.73832" lon="-3.4624">
        <ele>3</ele>
        <time>2015-11-13T12:58:18Z</time>
      </trkpt>
      <trkpt lat="48.73849" lon="-3.46248">
        <ele>2</ele>
        <time>2015-11-13T12:58:21Z</time>
      </trkpt>
      <trkpt lat="48.7386" lon="-3.46252">
        <ele>2</ele>
        <time>2015-11-13T12:58:23Z</time>
      </trkpt>
      <trkpt lat="48.73876" lon="-3.4626">
        <ele>2</ele>
        <time>2015-11-13T12:58:26Z</time>
      </trkpt>
      <trkpt lat="48.73892" lon="-3.46267">
        <ele>1</ele>
        <time>2015-11-13T12:58:29Z</time>
      </trkpt>
      <trkpt lat="48.73907" lon="-3.46274">
        <ele>1</ele>
        <time>2015-11-13T12:58:32Z</time>
      </trkpt>
      <trkpt lat="48.73926" lon="-3.46282">
        <ele>1</ele>
        <time>2015-11-13T12:58:36Z</time>
      </trkpt>
      <trkpt lat="48.73938" lon="-3.46296">
        <ele>1</ele>
        <time>2015-11-13T12:58:40Z</time>
      </trkpt>
      <trkpt lat="48.73943" lon="-3.46311">
        <ele>1</ele>
        <time>2015-11-13T12:58:47Z</time>
      </trkpt>
      <trkpt lat="48.73945" lon="-3.46333">
        <ele>49.1</ele>
        <time>2015-11-13T12:59:49Z</time>
      </trkpt>
      <trkpt lat="48.73939" lon="-3.46356">
        <ele>48.2</ele>
        <time>2015-11-13T12:59:58Z</time>
      </trkpt>
      <trkpt lat="48.73946" lon="-3.46377">
        <ele>47.7</ele>
        <time>2015-11-13T13:00:02Z</time>
      </trkpt>
      <trkpt lat="48.73959" lon="-3.46394">
        <ele>48.7</ele>
        <time>2015-11-13T13:00:05Z</time>
      </trkpt>
      <trkpt lat="48.73974" lon="-3.46407">
        <ele>48.4</ele>
        <time>2015-11-13T13:00:08Z</time>
      </trkpt>
      <trkpt lat="48.73991" lon="-3.46412">
        <ele>1</ele>
        <time>2015-11-13T13:00:11Z</time>
      </trkpt>
      <trkpt lat="48.74006" lon="-3.46415">
        <ele>1</ele>
        <time>2015-11-13T13:00:14Z</time>
      </trkpt>
      <trkpt lat="48.74015" lon="-3.46418">
        <ele>1</ele>
        <time>2015-11-13T13:00:16Z</time>
      </trkpt>
      <trkpt lat="48.74032" lon="-3.46424">
        <ele>1</ele>
        <time>2015-11-13T13:00:20Z</time>
      </trkpt>
      <trkpt lat="48.74048" lon="-3.46425">
        <ele>49</ele>
        <time>2015-11-13T13:00:24Z</time>
      </trkpt>
      <trkpt lat="48.74063" lon="-3.46428">
        <ele>48.1</ele>
        <time>2015-11-13T13:00:28Z</time>
      </trkpt>
      <trkpt lat="48.74077" lon="-3.46429">
        <ele>-1</ele>
        <time>2015-11-13T13:00:32Z</time>
      </trkpt>
      <trkpt lat="48.74092" lon="-3.46432">
        <ele>-2</ele>
        <time>2015-11-13T13:00:37Z</time>
      </trkpt>
      <trkpt lat="48.74108" lon="-3.46437">
        <ele>-4</ele>
        <time>2015-11-13T13:00:43Z</time>
      </trkpt>
      <trkpt lat="48.74126" lon="-3.46438">
        <ele>-4</ele>
        <time>2015-11-13T13:00:49Z</time>
      </trkpt>
      <trkpt lat="48.74141" lon="-3.46441">
        <ele>-5</ele>
        <time>2015-11-13T13:00:54Z</time>
      </trkpt>
      <trkpt lat="48.74158" lon="-3.46443">
        <ele>-5</ele>
        <time>2015-11-13T13:01:00Z</time>
      </trkpt>
      <trkpt lat="48.74177" lon="-3.46445">
        <ele>-6</ele>
        <time>2015-11-13T13:01:07Z</time>
      </trkpt>
      <trkpt lat="48.74206" lon="-3.46455">
        <ele>-6</ele>
        <time>2015-11-13T13:01:18Z</time>
      </trkpt>
      <trkpt lat="48.74221" lon="-3.46462">
        <ele>-7</ele>
        <time>2015-11-13T13:01:24Z</time>
      </trkpt>
      <trkpt lat="48.74236" lon="-3.46467">
        <ele>-7</ele>
        <time>2015-11-13T13:01:30Z</time>
      </trkpt>
      <trkpt lat="48.74253" lon="-3.46474">
        <ele>-7</ele>
        <time>2015-11-13T13:01:37Z</time>
      </trkpt>
      <trkpt lat="48.74271" lon="-3.46477">
        <ele>-7</ele>
        <time>2015-11-13T13:01:44Z</time>
      </trkpt>
      <trkpt lat="48.74281" lon="-3.4648">
        <ele>-6</ele>
        <time>2015-11-13T13:01:48Z</time>
      </trkpt>
      <trkpt lat="48.74291" lon="-3.46482">
        <ele>-5</ele>
        <time>2015-11-13T13:01:52Z</time>
      </trkpt>
      <trkpt lat="48.74314" lon="-3.46487">
        <ele>-4</ele>
        <time>2015-11-13T13:02:01Z</time>
      </trkpt>
      <trkpt lat="48.74332" lon="-3.46493">
        <ele>-4</ele>
        <time>2015-11-13T13:02:08Z</time>
      </trkpt>
      <trkpt lat="48.74351" lon="-3.465">
        <ele>-3</ele>
        <time>2015-11-13T13:02:15Z</time>
      </trkpt>
      <trkpt lat="48.74378" lon="-3.4651">
        <ele>-3</ele>
        <time>2015-11-13T13:02:24Z</time>
      </trkpt>
      <trkpt lat="48.744" lon="-3.46522">
        <ele>-3</ele>
        <time>2015-11-13T13:02:31Z</time>
      </trkpt>
      <trkpt lat="48.74428" lon="-3.46536">
        <ele>-4</ele>
        <time>2015-11-13T13:02:39Z</time>
      </trkpt>
      <trkpt lat="48.74449" lon="-3.46543">
        <ele>-4</ele>
        <time>2015-11-13T13:02:45Z</time>
      </trkpt>
      <trkpt lat="48.74464" lon="-3.46548">
        <ele>-4</ele>
        <time>2015-11-13T13:02:50Z</time>
      </trkpt>
      <trkpt lat="48.7449" lon="-3.46557">
        <ele>-4</ele>
        <time>2015-11-13T13:02:59Z</time>
      </trkpt>
      <trkpt lat="48.74508" lon="-3.46567">
        <ele>-3</ele>
        <time>2015-11-13T13:03:05Z</time>
      </trkpt>
      <trkpt lat="48.74522" lon="-3.46574">
        <ele>-3</ele>
        <time>2015-11-13T13:03:10Z</time>
      </trkpt>
      <trkpt lat="48.74538" lon="-3.46583">
        <ele>-3</ele>
        <time>2015-11-13T13:03:15Z</time>
      </trkpt>
      <trkpt lat="48.74549" lon="-3.4659">
        <ele>-3</ele>
        <time>2015-11-13T13:03:19Z</time>
      </trkpt>
      <trkpt lat="48.74564" lon="-3.46597">
        <ele>-3</ele>
        <time>2015-11-13T13:03:24Z</time>
      </trkpt>
      <trkpt lat="48.7458" lon="-3.4661">
        <ele>-3</ele>
        <time>2015-11-13T13:03:30Z</time>
      </trkpt>
      <trkpt lat="48.74609" lon="-3.46634">
        <ele>-3</ele>
        <time>2015-11-13T13:03:41Z</time>
      </trkpt>
      <trkpt lat="48.74624" lon="-3.46643">
        <ele>-4</ele>
        <time>2015-11-13T13:03:48Z</time>
      </trkpt>
      <trkpt lat="48.74642" lon="-3.46655">
        <ele>-5</ele>
        <time>2015-11-13T13:03:56Z</time>
      </trkpt>
      <trkpt lat="48.74658" lon="-3.46661">
        <ele>-5</ele>
        <time>2015-11-13T13:03:59Z</time>
      </trkpt>
      <trkpt lat="48.74763" lon="-3.46661">
        <ele>-7</ele>
        <time>2015-11-13T13:04:26Z</time>
      </trkpt>
      <trkpt lat="48.7478" lon="-3.46665">
        <ele>-7</ele>
        <time>2015-11-13T13:04:30Z</time>
      </trkpt>
      <trkpt lat="48.74801" lon="-3.46672">
        <ele>-9</ele>
        <time>2015-11-13T13:04:35Z</time>
      </trkpt>
      <trkpt lat="48.74816" lon="-3.46677">
        <ele>-10</ele>
        <time>2015-11-13T13:04:39Z</time>
      </trkpt>
      <trkpt lat="48.74837" lon="-3.46684">
        <ele>-11</ele>
        <time>2015-11-13T13:04:44Z</time>
      </trkpt>
      <trkpt lat="48.74858" lon="-3.46687">
        <ele>-12</ele>
        <time>2015-11-13T13:04:49Z</time>
      </trkpt>
      <trkpt lat="48.75006" lon="-3.46686">
        <ele>82.3</ele>
        <time>2015-11-13T13:05:27Z</time>
      </trkpt>
      <trkpt lat="48.75139" lon="-3.46731">
        <ele>-14</ele>
        <time>2015-11-13T13:06:01Z</time>
      </trkpt>
      <trkpt lat="48.75156" lon="-3.4674">
        <ele>-14</ele>
        <time>2015-11-13T13:06:06Z</time>
      </trkpt>
      <trkpt lat="48.75171" lon="-3.46759">
        <ele>-14</ele>
        <time>2015-11-13T13:06:11Z</time>
      </trkpt>
      <trkpt lat="48.7518" lon="-3.46779">
        <ele>-13</ele>
        <time>2015-11-13T13:06:16Z</time>
      </trkpt>
      <trkpt lat="48.75184" lon="-3.46808">
        <ele>-13</ele>
        <time>2015-11-13T13:06:24Z</time>
      </trkpt>
      <trkpt lat="48.75187" lon="-3.4685">
        <ele>-14</ele>
        <time>2015-11-13T13:06:34Z</time>
      </trkpt>
      <trkpt lat="48.75229" lon="-3.47128">
        <ele>88</ele>
        <time>2015-11-13T13:07:09Z</time>
      </trkpt>
      <trkpt lat="48.75224" lon="-3.47182">
        <ele>-15</ele>
        <time>2015-11-13T13:07:16Z</time>
      </trkpt>
      <trkpt lat="48.7521" lon="-3.47261">
        <ele>-14</ele>
        <time>2015-11-13T13:07:27Z</time>
      </trkpt>
      <trkpt lat="48.75205" lon="-3.47288">
        <ele>-12</ele>
        <time>2015-11-13T13:07:31Z</time>
      </trkpt>
      <trkpt lat="48.75177" lon="-3.47438">
        <ele>-9</ele>
        <time>2015-11-13T13:07:53Z</time>
      </trkpt>
      <trkpt lat="48.75171" lon="-3.47502">
        <ele>-8</ele>
        <time>2015-11-13T13:08:03Z</time>
      </trkpt>
      <trkpt lat="48.75172" lon="-3.47545">
        <ele>-5</ele>
        <time>2015-11-13T13:08:10Z</time>
      </trkpt>
      <trkpt lat="48.75176" lon="-3.47568">
        <ele>-1</ele>
        <time>2015-11-13T13:08:14Z</time>
      </trkpt>
      <trkpt lat="48.75192" lon="-3.47632">
        <ele>3</ele>
        <time>2015-11-13T13:08:25Z</time>
      </trkpt>
      <trkpt lat="48.752" lon="-3.47656">
        <ele>5</ele>
        <time>2015-11-13T13:08:29Z</time>
      </trkpt>
      <trkpt lat="48.75213" lon="-3.4769">
        <ele>8</ele>
        <time>2015-11-13T13:08:35Z</time>
      </trkpt>
      <trkpt lat="48.75224" lon="-3.47731">
        <ele>10</ele>
        <time>2015-11-13T13:08:42Z</time>
      </trkpt>
      <trkpt lat="48.75217" lon="-3.47755">
        <ele>12</ele>
        <time>2015-11-13T13:08:45Z</time>
      </trkpt>
      <trkpt lat="48.75205" lon="-3.47784">
        <ele>13</ele>
        <time>2015-11-13T13:08:49Z</time>
      </trkpt>
      <trkpt lat="48.75193" lon="-3.47801">
        <ele>14</ele>
        <time>2015-11-13T13:08:52Z</time>
      </trkpt>
      <trkpt lat="48.75179" lon="-3.47813">
        <ele>14</ele>
        <time>2015-11-13T13:08:55Z</time>
      </trkpt>
      <trkpt lat="48.75165" lon="-3.47822">
        <ele>15</ele>
        <time>2015-11-13T13:08:58Z</time>
      </trkpt>
      <trkpt lat="48.75111" lon="-3.47872">
        <ele>86</ele>
        <time>2015-11-13T13:09:09Z</time>
      </trkpt>
      <trkpt lat="48.75093" lon="-3.47906">
        <ele>15</ele>
        <time>2015-11-13T13:09:14Z</time>
      </trkpt>
      <trkpt lat="48.75087" lon="-3.47935">
        <ele>16</ele>
        <time>2015-11-13T13:09:19Z</time>
      </trkpt>
      <trkpt lat="48.75085" lon="-3.4796">
        <ele>16</ele>
        <time>2015-11-13T13:09:23Z</time>
      </trkpt>
      <trkpt lat="48.75077" lon="-3.47986">
        <ele>16</ele>
        <time>2015-11-13T13:09:27Z</time>
      </trkpt>
      <trkpt lat="48.75067" lon="-3.48011">
        <ele>17</ele>
        <time>2015-11-13T13:09:31Z</time>
      </trkpt>
      <trkpt lat="48.7506" lon="-3.48037">
        <ele>17</ele>
        <time>2015-11-13T13:09:35Z</time>
      </trkpt>
      <trkpt lat="48.75054" lon="-3.48063">
        <ele>18</ele>
        <time>2015-11-13T13:09:39Z</time>
      </trkpt>
      <trkpt lat="48.75052" lon="-3.48075">
        <ele>19</ele>
        <time>2015-11-13T13:09:41Z</time>
      </trkpt>
      <trkpt lat="48.75046" lon="-3.48099">
        <ele>19</ele>
        <time>2015-11-13T13:09:45Z</time>
      </trkpt>
      <trkpt lat="48.75042" lon="-3.48118">
        <ele>20</ele>
        <time>2015-11-13T13:09:48Z</time>
      </trkpt>
      <trkpt lat="48.75039" lon="-3.48142">
        <ele>21</ele>
        <time>2015-11-13T13:09:52Z</time>
      </trkpt>
      <trkpt lat="48.75037" lon="-3.48161">
        <ele>21</ele>
        <time>2015-11-13T13:09:55Z</time>
      </trkpt>
      <trkpt lat="48.75034" lon="-3.48178">
        <ele>22</ele>
        <time>2015-11-13T13:09:58Z</time>
      </trkpt>
      <trkpt lat="48.7503" lon="-3.48194">
        <ele>23</ele>
        <time>2015-11-13T13:10:01Z</time>
      </trkpt>
      <trkpt lat="48.75025" lon="-3.48216">
        <ele>24</ele>
        <time>2015-11-13T13:10:05Z</time>
      </trkpt>
      <trkpt lat="48.75017" lon="-3.4824">
        <ele>24</ele>
        <time>2015-11-13T13:10:10Z</time>
      </trkpt>
      <trkpt lat="48.7501" lon="-3.48265">
        <ele>25</ele>
        <time>2015-11-13T13:10:16Z</time>
      </trkpt>
      <trkpt lat="48.75005" lon="-3.48289">
        <ele>25</ele>
        <time>2015-11-13T13:10:22Z</time>
      </trkpt>
      <trkpt lat="48.75" lon="-3.48311">
        <ele>26</ele>
        <time>2015-11-13T13:10:27Z</time>
      </trkpt>
      <trkpt lat="48.74995" lon="-3.48337">
        <ele>26</ele>
        <time>2015-11-13T13:10:33Z</time>
      </trkpt>
      <trkpt lat="48.74987" lon="-3.48366">
        <ele>27</ele>
        <time>2015-11-13T13:10:40Z</time>
      </trkpt>
      <trkpt lat="48.74975" lon="-3.48388">
        <ele>27</ele>
        <time>2015-11-13T13:10:46Z</time>
      </trkpt>
      <trkpt lat="48.74965" lon="-3.48398">
        <ele>28</ele>
        <time>2015-11-13T13:10:50Z</time>
      </trkpt>
      <trkpt lat="48.74957" lon="-3.48407">
        <ele>28</ele>
        <time>2015-11-13T13:10:53Z</time>
      </trkpt>
      <trkpt lat="48.74944" lon="-3.48427">
        <ele>29</ele>
        <time>2015-11-13T13:10:58Z</time>
      </trkpt>
      <trkpt lat="48.74939" lon="-3.48442">
        <ele>29</ele>
        <time>2015-11-13T13:11:01Z</time>
      </trkpt>
      <trkpt lat="48.74935" lon="-3.48457">
        <ele>30</ele>
        <time>2015-11-13T13:11:04Z</time>
      </trkpt>
      <trkpt lat="48.74931" lon="-3.48475">
        <ele>30</ele>
        <time>2015-11-13T13:11:08Z</time>
      </trkpt>
      <trkpt lat="48.74926" lon="-3.48498">
        <ele>31</ele>
        <time>2015-11-13T13:11:13Z</time>
      </trkpt>
      <trkpt lat="48.74922" lon="-3.48522">
        <ele>31</ele>
        <time>2015-11-13T13:11:19Z</time>
      </trkpt>
      <trkpt lat="48.7492" lon="-3.48548">
        <ele>31</ele>
        <time>2015-11-13T13:11:26Z</time>
      </trkpt>
      <trkpt lat="48.74918" lon="-3.48561">
        <ele>32</ele>
        <time>2015-11-13T13:11:29Z</time>
      </trkpt>
      <trkpt lat="48.74917" lon="-3.48574">
        <ele>32</ele>
        <time>2015-11-13T13:11:32Z</time>
      </trkpt>
      <trkpt lat="48.74911" lon="-3.48592">
        <ele>32</ele>
        <time>2015-11-13T13:11:37Z</time>
      </trkpt>
      <trkpt lat="48.74893" lon="-3.48601">
        <ele>32</ele>
        <time>2015-11-13T13:11:43Z</time>
      </trkpt>
      <trkpt lat="48.74882" lon="-3.48617">
        <ele>32</ele>
        <time>2015-11-13T13:11:46Z</time>
      </trkpt>
      <trkpt lat="48.7488" lon="-3.4864">
        <ele>32</ele>
        <time>2015-11-13T13:11:49Z</time>
      </trkpt>
      <trkpt lat="48.74884" lon="-3.48665">
        <ele>32</ele>
        <time>2015-11-13T13:11:53Z</time>
      </trkpt>
      <trkpt lat="48.74875" lon="-3.48684">
        <ele>32</ele>
        <time>2015-11-13T13:11:57Z</time>
      </trkpt>
      <trkpt lat="48.74862" lon="-3.487">
        <ele>33</ele>
        <time>2015-11-13T13:12:01Z</time>
      </trkpt>
      <trkpt lat="48.74848" lon="-3.48715">
        <ele>33</ele>
        <time>2015-11-13T13:12:05Z</time>
      </trkpt>
      <trkpt lat="48.74841" lon="-3.48722">
        <ele>33</ele>
        <time>2015-11-13T13:12:07Z</time>
      </trkpt>
      <trkpt lat="48.74833" lon="-3.48727">
        <ele>34</ele>
        <time>2015-11-13T13:12:09Z</time>
      </trkpt>
      <trkpt lat="48.74824" lon="-3.48731">
        <ele>34</ele>
        <time>2015-11-13T13:12:11Z</time>
      </trkpt>
      <trkpt lat="48.74815" lon="-3.48733">
        <ele>34</ele>
        <time>2015-11-13T13:12:13Z</time>
      </trkpt>
      <trkpt lat="48.74806" lon="-3.48736">
        <ele>34</ele>
        <time>2015-11-13T13:12:15Z</time>
      </trkpt>
      <trkpt lat="48.74797" lon="-3.48739">
        <ele>34</ele>
        <time>2015-11-13T13:12:17Z</time>
      </trkpt>
      <trkpt lat="48.74787" lon="-3.48742">
        <ele>35</ele>
        <time>2015-11-13T13:12:19Z</time>
      </trkpt>
      <trkpt lat="48.74777" lon="-3.48745">
        <ele>35</ele>
        <time>2015-11-13T13:12:21Z</time>
      </trkpt>
      <trkpt lat="48.74762" lon="-3.48749">
        <ele>35</ele>
        <time>2015-11-13T13:12:24Z</time>
      </trkpt>
      <trkpt lat="48.74751" lon="-3.48752">
        <ele>35</ele>
        <time>2015-11-13T13:12:26Z</time>
      </trkpt>
      <trkpt lat="48.74741" lon="-3.48755">
        <ele>35</ele>
        <time>2015-11-13T13:12:28Z</time>
      </trkpt>
      <trkpt lat="48.7473" lon="-3.48759">
        <ele>35</ele>
        <time>2015-11-13T13:12:30Z</time>
      </trkpt>
      <trkpt lat="48.74715" lon="-3.48768">
        <ele>36</ele>
        <time>2015-11-13T13:12:33Z</time>
      </trkpt>
      <trkpt lat="48.74706" lon="-3.48776">
        <ele>36</ele>
        <time>2015-11-13T13:12:35Z</time>
      </trkpt>
      <trkpt lat="48.74697" lon="-3.48784">
        <ele>36</ele>
        <time>2015-11-13T13:12:37Z</time>
      </trkpt>
      <trkpt lat="48.74689" lon="-3.48791">
        <ele>36</ele>
        <time>2015-11-13T13:12:39Z</time>
      </trkpt>
      <trkpt lat="48.74681" lon="-3.48798">
        <ele>36</ele>
        <time>2015-11-13T13:12:41Z</time>
      </trkpt>
      <trkpt lat="48.74674" lon="-3.48804">
        <ele>36</ele>
        <time>2015-11-13T13:12:43Z</time>
      </trkpt>
      <trkpt lat="48.74667" lon="-3.48817">
        <ele>36</ele>
        <time>2015-11-13T13:12:46Z</time>
      </trkpt>
      <trkpt lat="48.74662" lon="-3.48829">
        <ele>37</ele>
        <time>2015-11-13T13:12:49Z</time>
      </trkpt>
      <trkpt lat="48.74657" lon="-3.48842">
        <ele>37</ele>
        <time>2015-11-13T13:12:52Z</time>
      </trkpt>
      <trkpt lat="48.74653" lon="-3.48855">
        <ele>37</ele>
        <time>2015-11-13T13:12:55Z</time>
      </trkpt>
      <trkpt lat="48.74648" lon="-3.4887">
        <ele>38</ele>
        <time>2015-11-13T13:12:58Z</time>
      </trkpt>
      <trkpt lat="48.74636" lon="-3.48892">
        <ele>38</ele>
        <time>2015-11-13T13:13:03Z</time>
      </trkpt>
      <trkpt lat="48.74627" lon="-3.4889">
        <ele>38</ele>
        <time>2015-11-13T13:13:06Z</time>
      </trkpt>
      <trkpt lat="48.7461" lon="-3.48886">
        <ele>38</ele>
        <time>2015-11-13T13:13:11Z</time>
      </trkpt>
      <trkpt lat="48.74604" lon="-3.48922">
        <ele>37</ele>
        <time>2015-11-13T13:13:16Z</time>
      </trkpt>
      <trkpt lat="48.74606" lon="-3.48951">
        <ele>37</ele>
        <time>2015-11-13T13:13:20Z</time>
      </trkpt>
      <trkpt lat="48.74608" lon="-3.48975">
        <ele>36</ele>
        <time>2015-11-13T13:13:24Z</time>
      </trkpt>
      <trkpt lat="48.74609" lon="-3.48999">
        <ele>35</ele>
        <time>2015-11-13T13:13:28Z</time>
      </trkpt>
      <trkpt lat="48.74609" lon="-3.49011">
        <ele>35</ele>
        <time>2015-11-13T13:13:30Z</time>
      </trkpt>
      <trkpt lat="48.74609" lon="-3.49024">
        <ele>34</ele>
        <time>2015-11-13T13:13:32Z</time>
      </trkpt>
      <trkpt lat="48.74608" lon="-3.49038">
        <ele>34</ele>
        <time>2015-11-13T13:13:34Z</time>
      </trkpt>
      <trkpt lat="48.74607" lon="-3.49051">
        <ele>33</ele>
        <time>2015-11-13T13:13:36Z</time>
      </trkpt>
      <trkpt lat="48.74605" lon="-3.49065">
        <ele>33</ele>
        <time>2015-11-13T13:13:38Z</time>
      </trkpt>
      <trkpt lat="48.74603" lon="-3.49094">
        <ele>33</ele>
        <time>2015-11-13T13:13:42Z</time>
      </trkpt>
      <trkpt lat="48.74602" lon="-3.49108">
        <ele>32</ele>
        <time>2015-11-13T13:13:44Z</time>
      </trkpt>
      <trkpt lat="48.74599" lon="-3.49136">
        <ele>32</ele>
        <time>2015-11-13T13:13:48Z</time>
      </trkpt>
      <trkpt lat="48.74597" lon="-3.49165">
        <ele>32</ele>
        <time>2015-11-13T13:13:52Z</time>
      </trkpt>
      <trkpt lat="48.74595" lon="-3.49188">
        <ele>32</ele>
        <time>2015-11-13T13:13:55Z</time>
      </trkpt>
      <trkpt lat="48.74593" lon="-3.4921">
        <ele>32</ele>
        <time>2015-11-13T13:13:58Z</time>
      </trkpt>
      <trkpt lat="48.74592" lon="-3.49225">
        <ele>32</ele>
        <time>2015-11-13T13:14:00Z</time>
      </trkpt>
      <trkpt lat="48.7459" lon="-3.4924">
        <ele>32</ele>
        <time>2015-11-13T13:14:02Z</time>
      </trkpt>
      <trkpt lat="48.7459" lon="-3.49254">
        <ele>32</ele>
        <time>2015-11-13T13:14:04Z</time>
      </trkpt>
      <trkpt lat="48.7459" lon="-3.49268">
        <ele>33</ele>
        <time>2015-11-13T13:14:06Z</time>
      </trkpt>
      <trkpt lat="48.74591" lon="-3.49282">
        <ele>33</ele>
        <time>2015-11-13T13:14:08Z</time>
      </trkpt>
      <trkpt lat="48.74591" lon="-3.49295">
        <ele>33</ele>
        <time>2015-11-13T13:14:10Z</time>
      </trkpt>
      <trkpt lat="48.74591" lon="-3.49308">
        <ele>33</ele>
        <time>2015-11-13T13:14:12Z</time>
      </trkpt>
      <trkpt lat="48.74587" lon="-3.49332">
        <ele>34</ele>
        <time>2015-11-13T13:14:16Z</time>
      </trkpt>
      <trkpt lat="48.74582" lon="-3.49344">
        <ele>34</ele>
        <time>2015-11-13T13:14:18Z</time>
      </trkpt>
      <trkpt lat="48.74573" lon="-3.49366">
        <ele>35</ele>
        <time>2015-11-13T13:14:21Z</time>
      </trkpt>
      <trkpt lat="48.74563" lon="-3.49391">
        <ele>35</ele>
        <time>2015-11-13T13:14:24Z</time>
      </trkpt>
      <trkpt lat="48.74556" lon="-3.49408">
        <ele>36</ele>
        <time>2015-11-13T13:14:26Z</time>
      </trkpt>
      <trkpt lat="48.74548" lon="-3.49425">
        <ele>36</ele>
        <time>2015-11-13T13:14:28Z</time>
      </trkpt>
      <trkpt lat="48.7454" lon="-3.49442">
        <ele>37</ele>
        <time>2015-11-13T13:14:30Z</time>
      </trkpt>
      <trkpt lat="48.74532" lon="-3.4946">
        <ele>37</ele>
        <time>2015-11-13T13:14:32Z</time>
      </trkpt>
      <trkpt lat="48.74525" lon="-3.4948">
        <ele>37</ele>
        <time>2015-11-13T13:14:34Z</time>
      </trkpt>
      <trkpt lat="48.74519" lon="-3.49501">
        <ele>38</ele>
        <time>2015-11-13T13:14:36Z</time>
      </trkpt>
      <trkpt lat="48.74516" lon="-3.49524">
        <ele>38</ele>
        <time>2015-11-13T13:14:38Z</time>
      </trkpt>
      <trkpt lat="48.74515" lon="-3.49558">
        <ele>38</ele>
        <time>2015-11-13T13:14:41Z</time>
      </trkpt>
      <trkpt lat="48.74516" lon="-3.4958">
        <ele>39</ele>
        <time>2015-11-13T13:14:43Z</time>
      </trkpt>
      <trkpt lat="48.74519" lon="-3.49614">
        <ele>39</ele>
        <time>2015-11-13T13:14:46Z</time>
      </trkpt>
      <trkpt lat="48.74521" lon="-3.49638">
        <ele>39</ele>
        <time>2015-11-13T13:14:48Z</time>
      </trkpt>
      <trkpt lat="48.74522" lon="-3.49662">
        <ele>39</ele>
        <time>2015-11-13T13:14:50Z</time>
      </trkpt>
      <trkpt lat="48.7452" lon="-3.49686">
        <ele>39</ele>
        <time>2015-11-13T13:14:52Z</time>
      </trkpt>
      <trkpt lat="48.74517" lon="-3.49709">
        <ele>39</ele>
        <time>2015-11-13T13:14:54Z</time>
      </trkpt>
      <trkpt lat="48.74513" lon="-3.49739">
        <ele>39</ele>
        <time>2015-11-13T13:14:57Z</time>
      </trkpt>
      <trkpt lat="48.74508" lon="-3.49767">
        <ele>39</ele>
        <time>2015-11-13T13:15:00Z</time>
      </trkpt>
      <trkpt lat="48.74505" lon="-3.49794">
        <ele>39</ele>
        <time>2015-11-13T13:15:03Z</time>
      </trkpt>
      <trkpt lat="48.74503" lon="-3.49819">
        <ele>38</ele>
        <time>2015-11-13T13:15:06Z</time>
      </trkpt>
      <trkpt lat="48.745" lon="-3.49845">
        <ele>38</ele>
        <time>2015-11-13T13:15:10Z</time>
      </trkpt>
      <trkpt lat="48.74498" lon="-3.49859">
        <ele>37</ele>
        <time>2015-11-13T13:15:13Z</time>
      </trkpt>
      <trkpt lat="48.74492" lon="-3.49883">
        <ele>36</ele>
        <time>2015-11-13T13:15:18Z</time>
      </trkpt>
      <trkpt lat="48.74486" lon="-3.49907">
        <ele>36</ele>
        <time>2015-11-13T13:15:23Z</time>
      </trkpt>
      <trkpt lat="48.7448" lon="-3.49927">
        <ele>35</ele>
        <time>2015-11-13T13:15:27Z</time>
      </trkpt>
      <trkpt lat="48.74474" lon="-3.49952">
        <ele>34</ele>
        <time>2015-11-13T13:15:32Z</time>
      </trkpt>
      <trkpt lat="48.74469" lon="-3.49978">
        <ele>34</ele>
        <time>2015-11-13T13:15:37Z</time>
      </trkpt>
      <trkpt lat="48.74467" lon="-3.50003">
        <ele>33</ele>
        <time>2015-11-13T13:15:42Z</time>
      </trkpt>
      <trkpt lat="48.74465" lon="-3.50029">
        <ele>33</ele>
        <time>2015-11-13T13:15:47Z</time>
      </trkpt>
      <trkpt lat="48.74464" lon="-3.50046">
        <ele>32</ele>
        <time>2015-11-13T13:15:50Z</time>
      </trkpt>
      <trkpt lat="48.74462" lon="-3.50073">
        <ele>32</ele>
        <time>2015-11-13T13:15:55Z</time>
      </trkpt>
      <trkpt lat="48.74458" lon="-3.50097">
        <ele>31</ele>
        <time>2015-11-13T13:15:59Z</time>
      </trkpt>
      <trkpt lat="48.7445" lon="-3.50122">
        <ele>31</ele>
        <time>2015-11-13T13:16:03Z</time>
      </trkpt>
      <trkpt lat="48.7444" lon="-3.50147">
        <ele>31</ele>
        <time>2015-11-13T13:16:07Z</time>
      </trkpt>
      <trkpt lat="48.74429" lon="-3.50173">
        <ele>31</ele>
        <time>2015-11-13T13:16:11Z</time>
      </trkpt>
      <trkpt lat="48.74423" lon="-3.50186">
        <ele>31</ele>
        <time>2015-11-13T13:16:13Z</time>
      </trkpt>
      <trkpt lat="48.74418" lon="-3.50199">
        <ele>32</ele>
        <time>2015-11-13T13:16:15Z</time>
      </trkpt>
      <trkpt lat="48.74411" lon="-3.50219">
        <ele>32</ele>
        <time>2015-11-13T13:16:18Z</time>
      </trkpt>
      <trkpt lat="48.74401" lon="-3.50245">
        <ele>33</ele>
        <time>2015-11-13T13:16:22Z</time>
      </trkpt>
      <trkpt lat="48.74395" lon="-3.50258">
        <ele>33</ele>
        <time>2015-11-13T13:16:24Z</time>
      </trkpt>
      <trkpt lat="48.7439" lon="-3.50272">
        <ele>33</ele>
        <time>2015-11-13T13:16:26Z</time>
      </trkpt>
      <trkpt lat="48.74385" lon="-3.50285">
        <ele>33</ele>
        <time>2015-11-13T13:16:28Z</time>
      </trkpt>
      <trkpt lat="48.74379" lon="-3.503">
        <ele>34</ele>
        <time>2015-11-13T13:16:30Z</time>
      </trkpt>
      <trkpt lat="48.74374" lon="-3.50314">
        <ele>34</ele>
        <time>2015-11-13T13:16:32Z</time>
      </trkpt>
      <trkpt lat="48.74368" lon="-3.50328">
        <ele>34</ele>
        <time>2015-11-13T13:16:34Z</time>
      </trkpt>
      <trkpt lat="48.74363" lon="-3.50343">
        <ele>35</ele>
        <time>2015-11-13T13:16:36Z</time>
      </trkpt>
      <trkpt lat="48.74354" lon="-3.50365">
        <ele>35</ele>
        <time>2015-11-13T13:16:39Z</time>
      </trkpt>
      <trkpt lat="48.74349" lon="-3.50381">
        <ele>35</ele>
        <time>2015-11-13T13:16:41Z</time>
      </trkpt>
      <trkpt lat="48.74344" lon="-3.50397">
        <ele>36</ele>
        <time>2015-11-13T13:16:43Z</time>
      </trkpt>
      <trkpt lat="48.74339" lon="-3.50413">
        <ele>36</ele>
        <time>2015-11-13T13:16:45Z</time>
      </trkpt>
      <trkpt lat="48.74334" lon="-3.50429">
        <ele>36</ele>
        <time>2015-11-13T13:16:47Z</time>
      </trkpt>
      <trkpt lat="48.74329" lon="-3.50444">
        <ele>36</ele>
        <time>2015-11-13T13:16:49Z</time>
      </trkpt>
      <trkpt lat="48.74325" lon="-3.50459">
        <ele>37</ele>
        <time>2015-11-13T13:16:51Z</time>
      </trkpt>
      <trkpt lat="48.74321" lon="-3.50473">
        <ele>37</ele>
        <time>2015-11-13T13:16:53Z</time>
      </trkpt>
      <trkpt lat="48.74316" lon="-3.50488">
        <ele>37</ele>
        <time>2015-11-13T13:16:55Z</time>
      </trkpt>
      <trkpt lat="48.74312" lon="-3.50504">
        <ele>37</ele>
        <time>2015-11-13T13:16:57Z</time>
      </trkpt>
      <trkpt lat="48.74307" lon="-3.50522">
        <ele>38</ele>
        <time>2015-11-13T13:16:59Z</time>
      </trkpt>
      <trkpt lat="48.74303" lon="-3.5054">
        <ele>38</ele>
        <time>2015-11-13T13:17:01Z</time>
      </trkpt>
      <trkpt lat="48.74296" lon="-3.50569">
        <ele>38</ele>
        <time>2015-11-13T13:17:04Z</time>
      </trkpt>
      <trkpt lat="48.74293" lon="-3.50588">
        <ele>38</ele>
        <time>2015-11-13T13:17:06Z</time>
      </trkpt>
      <trkpt lat="48.74287" lon="-3.50617">
        <ele>38</ele>
        <time>2015-11-13T13:17:09Z</time>
      </trkpt>
      <trkpt lat="48.74282" lon="-3.50642">
        <ele>38</ele>
        <time>2015-11-13T13:17:12Z</time>
      </trkpt>
      <trkpt lat="48.74276" lon="-3.50667">
        <ele>38</ele>
        <time>2015-11-13T13:17:15Z</time>
      </trkpt>
      <trkpt lat="48.74267" lon="-3.50691">
        <ele>38</ele>
        <time>2015-11-13T13:17:18Z</time>
      </trkpt>
      <trkpt lat="48.74255" lon="-3.50715">
        <ele>38</ele>
        <time>2015-11-13T13:17:21Z</time>
      </trkpt>
      <trkpt lat="48.74242" lon="-3.50741">
        <ele>38</ele>
        <time>2015-11-13T13:17:24Z</time>
      </trkpt>
      <trkpt lat="48.74231" lon="-3.50765">
        <ele>38</ele>
        <time>2015-11-13T13:17:27Z</time>
      </trkpt>
      <trkpt lat="48.74222" lon="-3.50788">
        <ele>38</ele>
        <time>2015-11-13T13:17:30Z</time>
      </trkpt>
      <trkpt lat="48.74215" lon="-3.50809">
        <ele>38</ele>
        <time>2015-11-13T13:17:33Z</time>
      </trkpt>
      <trkpt lat="48.74212" lon="-3.50822">
        <ele>38</ele>
        <time>2015-11-13T13:17:35Z</time>
      </trkpt>
      <trkpt lat="48.7421" lon="-3.50834">
        <ele>38</ele>
        <time>2015-11-13T13:17:37Z</time>
      </trkpt>
      <trkpt lat="48.74205" lon="-3.50857">
        <ele>38</ele>
        <time>2015-11-13T13:17:41Z</time>
      </trkpt>
      <trkpt lat="48.74203" lon="-3.50871">
        <ele>37</ele>
        <time>2015-11-13T13:17:44Z</time>
      </trkpt>
      <trkpt lat="48.74198" lon="-3.50896">
        <ele>37</ele>
        <time>2015-11-13T13:17:50Z</time>
      </trkpt>
      <trkpt lat="48.74195" lon="-3.50917">
        <ele>38</ele>
        <time>2015-11-13T13:17:55Z</time>
      </trkpt>
      <trkpt lat="48.74191" lon="-3.50936">
        <ele>38</ele>
        <time>2015-11-13T13:18:00Z</time>
      </trkpt>
      <trkpt lat="48.74189" lon="-3.50948">
        <ele>38</ele>
        <time>2015-11-13T13:18:03Z</time>
      </trkpt>
      <trkpt lat="48.74186" lon="-3.50965">
        <ele>39</ele>
        <time>2015-11-13T13:18:07Z</time>
      </trkpt>
      <trkpt lat="48.74183" lon="-3.50982">
        <ele>39</ele>
        <time>2015-11-13T13:18:11Z</time>
      </trkpt>
      <trkpt lat="48.74182" lon="-3.50995">
        <ele>39</ele>
        <time>2015-11-13T13:18:14Z</time>
      </trkpt>
      <trkpt lat="48.7418" lon="-3.5101">
        <ele>39</ele>
        <time>2015-11-13T13:18:17Z</time>
      </trkpt>
      <trkpt lat="48.74178" lon="-3.51025">
        <ele>39</ele>
        <time>2015-11-13T13:18:20Z</time>
      </trkpt>
      <trkpt lat="48.74177" lon="-3.5104">
        <ele>39</ele>
        <time>2015-11-13T13:18:23Z</time>
      </trkpt>
      <trkpt lat="48.74176" lon="-3.51056">
        <ele>40</ele>
        <time>2015-11-13T13:18:26Z</time>
      </trkpt>
      <trkpt lat="48.74175" lon="-3.51072">
        <ele>40</ele>
        <time>2015-11-13T13:18:29Z</time>
      </trkpt>
      <trkpt lat="48.74173" lon="-3.51099">
        <ele>40</ele>
        <time>2015-11-13T13:18:34Z</time>
      </trkpt>
      <trkpt lat="48.74171" lon="-3.51116">
        <ele>40</ele>
        <time>2015-11-13T13:18:37Z</time>
      </trkpt>
      <trkpt lat="48.74169" lon="-3.51132">
        <ele>40</ele>
        <time>2015-11-13T13:18:40Z</time>
      </trkpt>
      <trkpt lat="48.74167" lon="-3.51149">
        <ele>40</ele>
        <time>2015-11-13T13:18:43Z</time>
      </trkpt>
      <trkpt lat="48.74165" lon="-3.51165">
        <ele>41</ele>
        <time>2015-11-13T13:18:46Z</time>
      </trkpt>
      <trkpt lat="48.74163" lon="-3.5118">
        <ele>41</ele>
        <time>2015-11-13T13:18:49Z</time>
      </trkpt>
      <trkpt lat="48.74161" lon="-3.51195">
        <ele>41</ele>
        <time>2015-11-13T13:18:52Z</time>
      </trkpt>
      <trkpt lat="48.74157" lon="-3.5121">
        <ele>41</ele>
        <time>2015-11-13T13:18:55Z</time>
      </trkpt>
      <trkpt lat="48.74154" lon="-3.51224">
        <ele>42</ele>
        <time>2015-11-13T13:18:58Z</time>
      </trkpt>
      <trkpt lat="48.74148" lon="-3.51248">
        <ele>42</ele>
        <time>2015-11-13T13:19:03Z</time>
      </trkpt>
      <trkpt lat="48.74144" lon="-3.51264">
        <ele>42</ele>
        <time>2015-11-13T13:19:06Z</time>
      </trkpt>
      <trkpt lat="48.74139" lon="-3.51281">
        <ele>43</ele>
        <time>2015-11-13T13:19:09Z</time>
      </trkpt>
      <trkpt lat="48.74135" lon="-3.51294">
        <ele>43</ele>
        <time>2015-11-13T13:19:11Z</time>
      </trkpt>
      <trkpt lat="48.74131" lon="-3.51308">
        <ele>43</ele>
        <time>2015-11-13T13:19:13Z</time>
      </trkpt>
      <trkpt lat="48.74127" lon="-3.51322">
        <ele>44</ele>
        <time>2015-11-13T13:19:15Z</time>
      </trkpt>
      <trkpt lat="48.74123" lon="-3.51337">
        <ele>44</ele>
        <time>2015-11-13T13:19:17Z</time>
      </trkpt>
      <trkpt lat="48.74118" lon="-3.51352">
        <ele>44</ele>
        <time>2015-11-13T13:19:19Z</time>
      </trkpt>
      <trkpt lat="48.74113" lon="-3.51367">
        <ele>44</ele>
        <time>2015-11-13T13:19:21Z</time>
      </trkpt>
      <trkpt lat="48.74109" lon="-3.51383">
        <ele>44</ele>
        <time>2015-11-13T13:19:23Z</time>
      </trkpt>
      <trkpt lat="48.74102" lon="-3.51407">
        <ele>45</ele>
        <time>2015-11-13T13:19:26Z</time>
      </trkpt>
      <trkpt lat="48.74098" lon="-3.51423">
        <ele>45</ele>
        <time>2015-11-13T13:19:28Z</time>
      </trkpt>
      <trkpt lat="48.74095" lon="-3.5144">
        <ele>45</ele>
        <time>2015-11-13T13:19:30Z</time>
      </trkpt>
      <trkpt lat="48.74092" lon="-3.51457">
        <ele>45</ele>
        <time>2015-11-13T13:19:32Z</time>
      </trkpt>
      <trkpt lat="48.74089" lon="-3.51474">
        <ele>45</ele>
        <time>2015-11-13T13:19:34Z</time>
      </trkpt>
      <trkpt lat="48.74086" lon="-3.51492">
        <ele>45</ele>
        <time>2015-11-13T13:19:36Z</time>
      </trkpt>
      <trkpt lat="48.74084" lon="-3.51509">
        <ele>45</ele>
        <time>2015-11-13T13:19:38Z</time>
      </trkpt>
      <trkpt lat="48.74081" lon="-3.51537">
        <ele>45</ele>
        <time>2015-11-13T13:19:41Z</time>
      </trkpt>
      <trkpt lat="48.74078" lon="-3.51566">
        <ele>45</ele>
        <time>2015-11-13T13:19:44Z</time>
      </trkpt>
      <trkpt lat="48.74076" lon="-3.51596">
        <ele>45</ele>
        <time>2015-11-13T13:19:47Z</time>
      </trkpt>
      <trkpt lat="48.74075" lon="-3.51626">
        <ele>44</ele>
        <time>2015-11-13T13:19:50Z</time>
      </trkpt>
      <trkpt lat="48.74077" lon="-3.51658">
        <ele>44</ele>
        <time>2015-11-13T13:19:53Z</time>
      </trkpt>
      <trkpt lat="48.74085" lon="-3.517">
        <ele>44</ele>
        <time>2015-11-13T13:19:57Z</time>
      </trkpt>
      <trkpt lat="48.74089" lon="-3.51732">
        <ele>43</ele>
        <time>2015-11-13T13:20:00Z</time>
      </trkpt>
      <trkpt lat="48.74092" lon="-3.51774">
        <ele>43</ele>
        <time>2015-11-13T13:20:04Z</time>
      </trkpt>
      <trkpt lat="48.74091" lon="-3.51806">
        <ele>42</ele>
        <time>2015-11-13T13:20:07Z</time>
      </trkpt>
      <trkpt lat="48.7409" lon="-3.51835">
        <ele>42</ele>
        <time>2015-11-13T13:20:10Z</time>
      </trkpt>
      <trkpt lat="48.7409" lon="-3.51864">
        <ele>41</ele>
        <time>2015-11-13T13:20:13Z</time>
      </trkpt>
      <trkpt lat="48.74089" lon="-3.51891">
        <ele>40</ele>
        <time>2015-11-13T13:20:16Z</time>
      </trkpt>
      <trkpt lat="48.74086" lon="-3.51917">
        <ele>40</ele>
        <time>2015-11-13T13:20:19Z</time>
      </trkpt>
      <trkpt lat="48.74084" lon="-3.51945">
        <ele>39</ele>
        <time>2015-11-13T13:20:23Z</time>
      </trkpt>
      <trkpt lat="48.74083" lon="-3.51969">
        <ele>39</ele>
        <time>2015-11-13T13:20:27Z</time>
      </trkpt>
      <trkpt lat="48.74081" lon="-3.51997">
        <ele>38</ele>
        <time>2015-11-13T13:20:32Z</time>
      </trkpt>
      <trkpt lat="48.74079" lon="-3.52026">
        <ele>38</ele>
        <time>2015-11-13T13:20:37Z</time>
      </trkpt>
      <trkpt lat="48.74078" lon="-3.52054">
        <ele>37</ele>
        <time>2015-11-13T13:20:42Z</time>
      </trkpt>
      <trkpt lat="48.74075" lon="-3.5208">
        <ele>37</ele>
        <time>2015-11-13T13:20:47Z</time>
      </trkpt>
      <trkpt lat="48.74071" lon="-3.52106">
        <ele>37</ele>
        <time>2015-11-13T13:20:52Z</time>
      </trkpt>
      <trkpt lat="48.74069" lon="-3.52121">
        <ele>36</ele>
        <time>2015-11-13T13:20:55Z</time>
      </trkpt>
      <trkpt lat="48.74066" lon="-3.52137">
        <ele>36</ele>
        <time>2015-11-13T13:20:58Z</time>
      </trkpt>
      <trkpt lat="48.74062" lon="-3.52163">
        <ele>36</ele>
        <time>2015-11-13T13:21:03Z</time>
      </trkpt>
      <trkpt lat="48.74059" lon="-3.52184">
        <ele>36</ele>
        <time>2015-11-13T13:21:07Z</time>
      </trkpt>
      <trkpt lat="48.74056" lon="-3.52211">
        <ele>36</ele>
        <time>2015-11-13T13:21:12Z</time>
      </trkpt>
      <trkpt lat="48.74054" lon="-3.52228">
        <ele>36</ele>
        <time>2015-11-13T13:21:15Z</time>
      </trkpt>
      <trkpt lat="48.74054" lon="-3.52253">
        <ele>36</ele>
        <time>2015-11-13T13:21:19Z</time>
      </trkpt>
      <trkpt lat="48.74055" lon="-3.52277">
        <ele>36</ele>
        <time>2015-11-13T13:21:23Z</time>
      </trkpt>
      <trkpt lat="48.74058" lon="-3.52302">
        <ele>36</ele>
        <time>2015-11-13T13:21:27Z</time>
      </trkpt>
      <trkpt lat="48.74059" lon="-3.52352">
        <ele>36</ele>
        <time>2015-11-13T13:21:36Z</time>
      </trkpt>
      <trkpt lat="48.7406" lon="-3.52377">
        <ele>35</ele>
        <time>2015-11-13T13:21:40Z</time>
      </trkpt>
      <trkpt lat="48.7406" lon="-3.52403">
        <ele>34</ele>
        <time>2015-11-13T13:21:44Z</time>
      </trkpt>
      <trkpt lat="48.74062" lon="-3.5243">
        <ele>34</ele>
        <time>2015-11-13T13:21:49Z</time>
      </trkpt>
      <trkpt lat="48.74062" lon="-3.52454">
        <ele>33</ele>
        <time>2015-11-13T13:21:54Z</time>
      </trkpt>
      <trkpt lat="48.74063" lon="-3.52475">
        <ele>32</ele>
        <time>2015-11-13T13:21:59Z</time>
      </trkpt>
      <trkpt lat="48.74065" lon="-3.52501">
        <ele>32</ele>
        <time>2015-11-13T13:22:05Z</time>
      </trkpt>
      <trkpt lat="48.74069" lon="-3.52525">
        <ele>31</ele>
        <time>2015-11-13T13:22:10Z</time>
      </trkpt>
      <trkpt lat="48.74071" lon="-3.52541">
        <ele>31</ele>
        <time>2015-11-13T13:22:13Z</time>
      </trkpt>
      <trkpt lat="48.74074" lon="-3.52566">
        <ele>30</ele>
        <time>2015-11-13T13:22:17Z</time>
      </trkpt>
      <trkpt lat="48.74078" lon="-3.52591">
        <ele>30</ele>
        <time>2015-11-13T13:22:21Z</time>
      </trkpt>
      <trkpt lat="48.74082" lon="-3.52618">
        <ele>30</ele>
        <time>2015-11-13T13:22:25Z</time>
      </trkpt>
      <trkpt lat="48.74084" lon="-3.52648">
        <ele>30</ele>
        <time>2015-11-13T13:22:29Z</time>
      </trkpt>
      <trkpt lat="48.74085" lon="-3.52679">
        <ele>29</ele>
        <time>2015-11-13T13:22:33Z</time>
      </trkpt>
      <trkpt lat="48.74085" lon="-3.52713">
        <ele>29</ele>
        <time>2015-11-13T13:22:37Z</time>
      </trkpt>
      <trkpt lat="48.74085" lon="-3.52739">
        <ele>29</ele>
        <time>2015-11-13T13:22:40Z</time>
      </trkpt>
      <trkpt lat="48.74084" lon="-3.52765">
        <ele>29</ele>
        <time>2015-11-13T13:22:43Z</time>
      </trkpt>
      <trkpt lat="48.74083" lon="-3.52781">
        <ele>29</ele>
        <time>2015-11-13T13:22:45Z</time>
      </trkpt>
      <trkpt lat="48.74082" lon="-3.52797">
        <ele>29</ele>
        <time>2015-11-13T13:22:47Z</time>
      </trkpt>
      <trkpt lat="48.74082" lon="-3.52813">
        <ele>29</ele>
        <time>2015-11-13T13:22:49Z</time>
      </trkpt>
      <trkpt lat="48.74083" lon="-3.52829">
        <ele>29</ele>
        <time>2015-11-13T13:22:51Z</time>
      </trkpt>
      <trkpt lat="48.74084" lon="-3.52844">
        <ele>30</ele>
        <time>2015-11-13T13:22:53Z</time>
      </trkpt>
      <trkpt lat="48.74086" lon="-3.52867">
        <ele>30</ele>
        <time>2015-11-13T13:22:56Z</time>
      </trkpt>
      <trkpt lat="48.74089" lon="-3.52882">
        <ele>30</ele>
        <time>2015-11-13T13:22:58Z</time>
      </trkpt>
      <trkpt lat="48.74091" lon="-3.52897">
        <ele>30</ele>
        <time>2015-11-13T13:23:00Z</time>
      </trkpt>
      <trkpt lat="48.74097" lon="-3.52926">
        <ele>31</ele>
        <time>2015-11-13T13:23:04Z</time>
      </trkpt>
      <trkpt lat="48.74101" lon="-3.5295">
        <ele>31</ele>
        <time>2015-11-13T13:23:07Z</time>
      </trkpt>
      <trkpt lat="48.74107" lon="-3.52975">
        <ele>31</ele>
        <time>2015-11-13T13:23:10Z</time>
      </trkpt>
      <trkpt lat="48.74115" lon="-3.53002">
        <ele>31</ele>
        <time>2015-11-13T13:23:13Z</time>
      </trkpt>
      <trkpt lat="48.74125" lon="-3.53029">
        <ele>31</ele>
        <time>2015-11-13T13:23:16Z</time>
      </trkpt>
      <trkpt lat="48.74133" lon="-3.53055">
        <ele>31</ele>
        <time>2015-11-13T13:23:19Z</time>
      </trkpt>
      <trkpt lat="48.74137" lon="-3.53074">
        <ele>31</ele>
        <time>2015-11-13T13:23:21Z</time>
      </trkpt>
      <trkpt lat="48.7414" lon="-3.53094">
        <ele>31</ele>
        <time>2015-11-13T13:23:23Z</time>
      </trkpt>
      <trkpt lat="48.74142" lon="-3.53113">
        <ele>31</ele>
        <time>2015-11-13T13:23:25Z</time>
      </trkpt>
      <trkpt lat="48.74144" lon="-3.53133">
        <ele>31</ele>
        <time>2015-11-13T13:23:27Z</time>
      </trkpt>
      <trkpt lat="48.74147" lon="-3.53161">
        <ele>31</ele>
        <time>2015-11-13T13:23:30Z</time>
      </trkpt>
      <trkpt lat="48.74149" lon="-3.53179">
        <ele>31</ele>
        <time>2015-11-13T13:23:32Z</time>
      </trkpt>
      <trkpt lat="48.74151" lon="-3.53205">
        <ele>32</ele>
        <time>2015-11-13T13:23:35Z</time>
      </trkpt>
      <trkpt lat="48.74153" lon="-3.53229">
        <ele>32</ele>
        <time>2015-11-13T13:23:38Z</time>
      </trkpt>
      <trkpt lat="48.74153" lon="-3.53257">
        <ele>32</ele>
        <time>2015-11-13T13:23:42Z</time>
      </trkpt>
      <trkpt lat="48.74155" lon="-3.53281">
        <ele>31</ele>
        <time>2015-11-13T13:23:46Z</time>
      </trkpt>
      <trkpt lat="48.74157" lon="-3.53306">
        <ele>31</ele>
        <time>2015-11-13T13:23:51Z</time>
      </trkpt>
      <trkpt lat="48.74158" lon="-3.53319">
        <ele>31</ele>
        <time>2015-11-13T13:23:54Z</time>
      </trkpt>
      <trkpt lat="48.74159" lon="-3.53334">
        <ele>31</ele>
        <time>2015-11-13T13:23:57Z</time>
      </trkpt>
      <trkpt lat="48.74163" lon="-3.53362">
        <ele>31</ele>
        <time>2015-11-13T13:24:02Z</time>
      </trkpt>
      <trkpt lat="48.74171" lon="-3.53384">
        <ele>31</ele>
        <time>2015-11-13T13:24:06Z</time>
      </trkpt>
      <trkpt lat="48.74226" lon="-3.53518">
        <ele>31</ele>
        <time>2015-11-13T13:24:28Z</time>
      </trkpt>
      <trkpt lat="48.74234" lon="-3.5355">
        <ele>30</ele>
        <time>2015-11-13T13:24:33Z</time>
      </trkpt>
      <trkpt lat="48.74238" lon="-3.53579">
        <ele>28</ele>
        <time>2015-11-13T13:24:37Z</time>
      </trkpt>
      <trkpt lat="48.74239" lon="-3.53603">
        <ele>28</ele>
        <time>2015-11-13T13:24:40Z</time>
      </trkpt>
      <trkpt lat="48.74238" lon="-3.53628">
        <ele>27</ele>
        <time>2015-11-13T13:24:43Z</time>
      </trkpt>
      <trkpt lat="48.74238" lon="-3.53664">
        <ele>27</ele>
        <time>2015-11-13T13:24:47Z</time>
      </trkpt>
      <trkpt lat="48.74237" lon="-3.53691">
        <ele>25</ele>
        <time>2015-11-13T13:24:50Z</time>
      </trkpt>
      <trkpt lat="48.74236" lon="-3.53708">
        <ele>25</ele>
        <time>2015-11-13T13:24:52Z</time>
      </trkpt>
      <trkpt lat="48.74236" lon="-3.53733">
        <ele>24</ele>
        <time>2015-11-13T13:24:55Z</time>
      </trkpt>
      <trkpt lat="48.74236" lon="-3.5375">
        <ele>24</ele>
        <time>2015-11-13T13:24:57Z</time>
      </trkpt>
      <trkpt lat="48.74236" lon="-3.53766">
        <ele>23</ele>
        <time>2015-11-13T13:24:59Z</time>
      </trkpt>
      <trkpt lat="48.74236" lon="-3.53782">
        <ele>23</ele>
        <time>2015-11-13T13:25:01Z</time>
      </trkpt>
      <trkpt lat="48.74236" lon="-3.53798">
        <ele>23</ele>
        <time>2015-11-13T13:25:03Z</time>
      </trkpt>
      <trkpt lat="48.74237" lon="-3.53815">
        <ele>22</ele>
        <time>2015-11-13T13:25:05Z</time>
      </trkpt>
      <trkpt lat="48.74238" lon="-3.53832">
        <ele>22</ele>
        <time>2015-11-13T13:25:07Z</time>
      </trkpt>
      <trkpt lat="48.74242" lon="-3.53857">
        <ele>22</ele>
        <time>2015-11-13T13:25:10Z</time>
      </trkpt>
      <trkpt lat="48.74247" lon="-3.53879">
        <ele>21</ele>
        <time>2015-11-13T13:25:13Z</time>
      </trkpt>
      <trkpt lat="48.74253" lon="-3.53901">
        <ele>21</ele>
        <time>2015-11-13T13:25:16Z</time>
      </trkpt>
      <trkpt lat="48.7426" lon="-3.53922">
        <ele>20</ele>
        <time>2015-11-13T13:25:19Z</time>
      </trkpt>
      <trkpt lat="48.74269" lon="-3.53948">
        <ele>20</ele>
        <time>2015-11-13T13:25:23Z</time>
      </trkpt>
      <trkpt lat="48.7428" lon="-3.53969">
        <ele>19</ele>
        <time>2015-11-13T13:25:27Z</time>
      </trkpt>
      <trkpt lat="48.74296" lon="-3.53963">
        <ele>18</ele>
        <time>2015-11-13T13:25:32Z</time>
      </trkpt>
      <trkpt lat="48.74307" lon="-3.53939">
        <ele>18</ele>
        <time>2015-11-13T13:25:37Z</time>
      </trkpt>
      <trkpt lat="48.74314" lon="-3.53925">
        <ele>17</ele>
        <time>2015-11-13T13:25:40Z</time>
      </trkpt>
      <trkpt lat="48.7432" lon="-3.53915">
        <ele>17</ele>
        <time>2015-11-13T13:25:42Z</time>
      </trkpt>
      <trkpt lat="48.74329" lon="-3.53897">
        <ele>17</ele>
        <time>2015-11-13T13:25:45Z</time>
      </trkpt>
      <trkpt lat="48.74341" lon="-3.53876">
        <ele>16</ele>
        <time>2015-11-13T13:25:48Z</time>
      </trkpt>
      <trkpt lat="48.74347" lon="-3.53862">
        <ele>16</ele>
        <time>2015-11-13T13:25:50Z</time>
      </trkpt>
      <trkpt lat="48.74353" lon="-3.53848">
        <ele>16</ele>
        <time>2015-11-13T13:25:52Z</time>
      </trkpt>
      <trkpt lat="48.74362" lon="-3.53824">
        <ele>15</ele>
        <time>2015-11-13T13:25:56Z</time>
      </trkpt>
      <trkpt lat="48.74366" lon="-3.53809">
        <ele>15</ele>
        <time>2015-11-13T13:25:59Z</time>
      </trkpt>
      <trkpt lat="48.7437" lon="-3.53795">
        <ele>16</ele>
        <time>2015-11-13T13:26:02Z</time>
      </trkpt>
      <trkpt lat="48.74375" lon="-3.53775">
        <ele>16</ele>
        <time>2015-11-13T13:26:07Z</time>
      </trkpt>
      <trkpt lat="48.74379" lon="-3.5376">
        <ele>17</ele>
        <time>2015-11-13T13:26:11Z</time>
      </trkpt>
      <trkpt lat="48.74383" lon="-3.53739">
        <ele>17</ele>
        <time>2015-11-13T13:26:17Z</time>
      </trkpt>
      <trkpt lat="48.74386" lon="-3.53727">
        <ele>18</ele>
        <time>2015-11-13T13:26:21Z</time>
      </trkpt>
      <trkpt lat="48.7439" lon="-3.53709">
        <ele>19</ele>
        <time>2015-11-13T13:26:26Z</time>
      </trkpt>
      <trkpt lat="48.74394" lon="-3.53682">
        <ele>20</ele>
        <time>2015-11-13T13:26:32Z</time>
      </trkpt>
      <trkpt lat="48.74396" lon="-3.53669">
        <ele>21</ele>
        <time>2015-11-13T13:26:35Z</time>
      </trkpt>
      <trkpt lat="48.74399" lon="-3.53655">
        <ele>22</ele>
        <time>2015-11-13T13:26:38Z</time>
      </trkpt>
      <trkpt lat="48.74403" lon="-3.53631">
        <ele>23</ele>
        <time>2015-11-13T13:26:43Z</time>
      </trkpt>
      <trkpt lat="48.74406" lon="-3.53617">
        <ele>24</ele>
        <time>2015-11-13T13:26:46Z</time>
      </trkpt>
      <trkpt lat="48.7441" lon="-3.53593">
        <ele>25</ele>
        <time>2015-11-13T13:26:51Z</time>
      </trkpt>
      <trkpt lat="48.74412" lon="-3.53579">
        <ele>25</ele>
        <time>2015-11-13T13:26:54Z</time>
      </trkpt>
      <trkpt lat="48.74415" lon="-3.53565">
        <ele>26</ele>
        <time>2015-11-13T13:26:57Z</time>
      </trkpt>
      <trkpt lat="48.74417" lon="-3.53551">
        <ele>27</ele>
        <time>2015-11-13T13:27:00Z</time>
      </trkpt>
      <trkpt lat="48.74419" lon="-3.53535">
        <ele>28</ele>
        <time>2015-11-13T13:27:03Z</time>
      </trkpt>
      <trkpt lat="48.74423" lon="-3.53512">
        <ele>29</ele>
        <time>2015-11-13T13:27:07Z</time>
      </trkpt>
      <trkpt lat="48.74428" lon="-3.53486">
        <ele>29</ele>
        <time>2015-11-13T13:27:11Z</time>
      </trkpt>
      <trkpt lat="48.74435" lon="-3.53457">
        <ele>30</ele>
        <time>2015-11-13T13:27:15Z</time>
      </trkpt>
      <trkpt lat="48.74442" lon="-3.53435">
        <ele>31</ele>
        <time>2015-11-13T13:27:18Z</time>
      </trkpt>
      <trkpt lat="48.7445" lon="-3.53415">
        <ele>31</ele>
        <time>2015-11-13T13:27:21Z</time>
      </trkpt>
      <trkpt lat="48.74457" lon="-3.53403">
        <ele>32</ele>
        <time>2015-11-13T13:27:23Z</time>
      </trkpt>
      <trkpt lat="48.74468" lon="-3.53387">
        <ele>32</ele>
        <time>2015-11-13T13:27:26Z</time>
      </trkpt>
      <trkpt lat="48.74476" lon="-3.53378">
        <ele>33</ele>
        <time>2015-11-13T13:27:28Z</time>
      </trkpt>
      <trkpt lat="48.7449" lon="-3.53366">
        <ele>33</ele>
        <time>2015-11-13T13:27:31Z</time>
      </trkpt>
      <trkpt lat="48.74498" lon="-3.53359">
        <ele>33</ele>
        <time>2015-11-13T13:27:33Z</time>
      </trkpt>
      <trkpt lat="48.74508" lon="-3.53352">
        <ele>34</ele>
        <time>2015-11-13T13:27:35Z</time>
      </trkpt>
      <trkpt lat="48.74518" lon="-3.53343">
        <ele>34</ele>
        <time>2015-11-13T13:27:37Z</time>
      </trkpt>
      <trkpt lat="48.74534" lon="-3.5333">
        <ele>34</ele>
        <time>2015-11-13T13:27:40Z</time>
      </trkpt>
      <trkpt lat="48.7455" lon="-3.53315">
        <ele>34</ele>
        <time>2015-11-13T13:27:43Z</time>
      </trkpt>
      <trkpt lat="48.74565" lon="-3.53299">
        <ele>34</ele>
        <time>2015-11-13T13:27:46Z</time>
      </trkpt>
      <trkpt lat="48.74575" lon="-3.53288">
        <ele>34</ele>
        <time>2015-11-13T13:27:48Z</time>
      </trkpt>
      <trkpt lat="48.74589" lon="-3.5327">
        <ele>35</ele>
        <time>2015-11-13T13:27:51Z</time>
      </trkpt>
      <trkpt lat="48.74597" lon="-3.53258">
        <ele>35</ele>
        <time>2015-11-13T13:27:53Z</time>
      </trkpt>
      <trkpt lat="48.74605" lon="-3.53245">
        <ele>35</ele>
        <time>2015-11-13T13:27:55Z</time>
      </trkpt>
      <trkpt lat="48.74622" lon="-3.5322">
        <ele>35</ele>
        <time>2015-11-13T13:27:59Z</time>
      </trkpt>
      <trkpt lat="48.74634" lon="-3.53201">
        <ele>35</ele>
        <time>2015-11-13T13:28:02Z</time>
      </trkpt>
      <trkpt lat="48.74646" lon="-3.53184">
        <ele>35</ele>
        <time>2015-11-13T13:28:05Z</time>
      </trkpt>
      <trkpt lat="48.74658" lon="-3.53165">
        <ele>34</ele>
        <time>2015-11-13T13:28:08Z</time>
      </trkpt>
      <trkpt lat="48.74667" lon="-3.53146">
        <ele>34</ele>
        <time>2015-11-13T13:28:11Z</time>
      </trkpt>
      <trkpt lat="48.74712" lon="-3.53019">
        <ele>34</ele>
        <time>2015-11-13T13:28:28Z</time>
      </trkpt>
      <trkpt lat="48.74718" lon="-3.52995">
        <ele>33</ele>
        <time>2015-11-13T13:28:31Z</time>
      </trkpt>
      <trkpt lat="48.74726" lon="-3.52962">
        <ele>32</ele>
        <time>2015-11-13T13:28:35Z</time>
      </trkpt>
      <trkpt lat="48.74731" lon="-3.5294">
        <ele>31</ele>
        <time>2015-11-13T13:28:38Z</time>
      </trkpt>
      <trkpt lat="48.74737" lon="-3.52912">
        <ele>30</ele>
        <time>2015-11-13T13:28:42Z</time>
      </trkpt>
      <trkpt lat="48.74754" lon="-3.52856">
        <ele>30</ele>
        <time>2015-11-13T13:28:51Z</time>
      </trkpt>
      <trkpt lat="48.74762" lon="-3.52834">
        <ele>29</ele>
        <time>2015-11-13T13:28:55Z</time>
      </trkpt>
      <trkpt lat="48.74772" lon="-3.52815">
        <ele>29</ele>
        <time>2015-11-13T13:28:59Z</time>
      </trkpt>
      <trkpt lat="48.74784" lon="-3.528">
        <ele>29</ele>
        <time>2015-11-13T13:29:03Z</time>
      </trkpt>
      <trkpt lat="48.74796" lon="-3.52786">
        <ele>29</ele>
        <time>2015-11-13T13:29:07Z</time>
      </trkpt>
      <trkpt lat="48.74805" lon="-3.52775">
        <ele>29</ele>
        <time>2015-11-13T13:29:10Z</time>
      </trkpt>
      <trkpt lat="48.74815" lon="-3.52762">
        <ele>30</ele>
        <time>2015-11-13T13:29:14Z</time>
      </trkpt>
      <trkpt lat="48.74827" lon="-3.52746">
        <ele>30</ele>
        <time>2015-11-13T13:29:19Z</time>
      </trkpt>
      <trkpt lat="48.74834" lon="-3.52736">
        <ele>31</ele>
        <time>2015-11-13T13:29:22Z</time>
      </trkpt>
      <trkpt lat="48.74845" lon="-3.52717">
        <ele>32</ele>
        <time>2015-11-13T13:29:27Z</time>
      </trkpt>
      <trkpt lat="48.74855" lon="-3.52696">
        <ele>33</ele>
        <time>2015-11-13T13:29:32Z</time>
      </trkpt>
      <trkpt lat="48.74865" lon="-3.52674">
        <ele>34</ele>
        <time>2015-11-13T13:29:37Z</time>
      </trkpt>
      <trkpt lat="48.74872" lon="-3.52656">
        <ele>35</ele>
        <time>2015-11-13T13:29:41Z</time>
      </trkpt>
      <trkpt lat="48.74881" lon="-3.52633">
        <ele>36</ele>
        <time>2015-11-13T13:29:46Z</time>
      </trkpt>
      <trkpt lat="48.74888" lon="-3.52611">
        <ele>36</ele>
        <time>2015-11-13T13:29:51Z</time>
      </trkpt>
      <trkpt lat="48.74897" lon="-3.52589">
        <ele>37</ele>
        <time>2015-11-13T13:29:56Z</time>
      </trkpt>
      <trkpt lat="48.74908" lon="-3.52567">
        <ele>38</ele>
        <time>2015-11-13T13:30:01Z</time>
      </trkpt>
      <trkpt lat="48.74923" lon="-3.5254">
        <ele>39</ele>
        <time>2015-11-13T13:30:07Z</time>
      </trkpt>
      <trkpt lat="48.7493" lon="-3.52528">
        <ele>40</ele>
        <time>2015-11-13T13:30:10Z</time>
      </trkpt>
      <trkpt lat="48.74945" lon="-3.52513">
        <ele>41</ele>
        <time>2015-11-13T13:30:15Z</time>
      </trkpt>
      <trkpt lat="48.74955" lon="-3.52505">
        <ele>42</ele>
        <time>2015-11-13T13:30:18Z</time>
      </trkpt>
      <trkpt lat="48.7497" lon="-3.52491">
        <ele>43</ele>
        <time>2015-11-13T13:30:23Z</time>
      </trkpt>
      <trkpt lat="48.74985" lon="-3.52478">
        <ele>44</ele>
        <time>2015-11-13T13:30:27Z</time>
      </trkpt>
      <trkpt lat="48.74991" lon="-3.52469">
        <ele>44</ele>
        <time>2015-11-13T13:30:29Z</time>
      </trkpt>
      <trkpt lat="48.75" lon="-3.52452">
        <ele>45</ele>
        <time>2015-11-13T13:30:32Z</time>
      </trkpt>
      <trkpt lat="48.75004" lon="-3.52441">
        <ele>45</ele>
        <time>2015-11-13T13:30:34Z</time>
      </trkpt>
      <trkpt lat="48.75018" lon="-3.52443">
        <ele>46</ele>
        <time>2015-11-13T13:30:38Z</time>
      </trkpt>
      <trkpt lat="48.75034" lon="-3.52458">
        <ele>46</ele>
        <time>2015-11-13T13:30:42Z</time>
      </trkpt>
      <trkpt lat="48.7505" lon="-3.52476">
        <ele>46</ele>
        <time>2015-11-13T13:30:46Z</time>
      </trkpt>
      <trkpt lat="48.75057" lon="-3.52486">
        <ele>46</ele>
        <time>2015-11-13T13:30:48Z</time>
      </trkpt>
      <trkpt lat="48.75076" lon="-3.52492">
        <ele>46</ele>
        <time>2015-11-13T13:30:52Z</time>
      </trkpt>
      <trkpt lat="48.75089" lon="-3.52479">
        <ele>46</ele>
        <time>2015-11-13T13:30:55Z</time>
      </trkpt>
      <trkpt lat="48.75097" lon="-3.52471">
        <ele>46</ele>
        <time>2015-11-13T13:30:57Z</time>
      </trkpt>
      <trkpt lat="48.75111" lon="-3.52458">
        <ele>45</ele>
        <time>2015-11-13T13:31:01Z</time>
      </trkpt>
      <trkpt lat="48.75124" lon="-3.52446">
        <ele>45</ele>
        <time>2015-11-13T13:31:05Z</time>
      </trkpt>
      <trkpt lat="48.75131" lon="-3.5244">
        <ele>45</ele>
        <time>2015-11-13T13:31:07Z</time>
      </trkpt>
      <trkpt lat="48.75148" lon="-3.52438">
        <ele>45</ele>
        <time>2015-11-13T13:31:12Z</time>
      </trkpt>
      <trkpt lat="48.7517" lon="-3.52451">
        <ele>45</ele>
        <time>2015-11-13T13:31:18Z</time>
      </trkpt>
      <trkpt lat="48.75186" lon="-3.52463">
        <ele>45</ele>
        <time>2015-11-13T13:31:22Z</time>
      </trkpt>
      <trkpt lat="48.752" lon="-3.52475">
        <ele>45</ele>
        <time>2015-11-13T13:31:26Z</time>
      </trkpt>
      <trkpt lat="48.75213" lon="-3.52485">
        <ele>45</ele>
        <time>2015-11-13T13:31:29Z</time>
      </trkpt>
      <trkpt lat="48.75221" lon="-3.52491">
        <ele>46</ele>
        <time>2015-11-13T13:31:31Z</time>
      </trkpt>
      <trkpt lat="48.75237" lon="-3.52503">
        <ele>46</ele>
        <time>2015-11-13T13:31:35Z</time>
      </trkpt>
      <trkpt lat="48.75244" lon="-3.52509">
        <ele>46</ele>
        <time>2015-11-13T13:31:37Z</time>
      </trkpt>
      <trkpt lat="48.75252" lon="-3.52515">
        <ele>47</ele>
        <time>2015-11-13T13:31:39Z</time>
      </trkpt>
      <trkpt lat="48.7526" lon="-3.52521">
        <ele>47</ele>
        <time>2015-11-13T13:31:41Z</time>
      </trkpt>
      <trkpt lat="48.75267" lon="-3.52526">
        <ele>47</ele>
        <time>2015-11-13T13:31:43Z</time>
      </trkpt>
      <trkpt lat="48.75275" lon="-3.52532">
        <ele>48</ele>
        <time>2015-11-13T13:31:45Z</time>
      </trkpt>
      <trkpt lat="48.75286" lon="-3.5254">
        <ele>48</ele>
        <time>2015-11-13T13:31:48Z</time>
      </trkpt>
      <trkpt lat="48.75296" lon="-3.52547">
        <ele>49</ele>
        <time>2015-11-13T13:31:51Z</time>
      </trkpt>
      <trkpt lat="48.75306" lon="-3.52553">
        <ele>49</ele>
        <time>2015-11-13T13:31:54Z</time>
      </trkpt>
      <trkpt lat="48.75316" lon="-3.5256">
        <ele>50</ele>
        <time>2015-11-13T13:31:57Z</time>
      </trkpt>
      <trkpt lat="48.75337" lon="-3.52573">
        <ele>50</ele>
        <time>2015-11-13T13:32:03Z</time>
      </trkpt>
      <trkpt lat="48.7536" lon="-3.52586">
        <ele>50</ele>
        <time>2015-11-13T13:32:09Z</time>
      </trkpt>
      <trkpt lat="48.75378" lon="-3.52595">
        <ele>49</ele>
        <time>2015-11-13T13:32:13Z</time>
      </trkpt>
      <trkpt lat="48.75397" lon="-3.52607">
        <ele>49</ele>
        <time>2015-11-13T13:32:19Z</time>
      </trkpt>
      <trkpt lat="48.75419" lon="-3.5262">
        <ele>49</ele>
        <time>2015-11-13T13:32:25Z</time>
      </trkpt>
      <trkpt lat="48.75439" lon="-3.52628">
        <ele>49</ele>
        <time>2015-11-13T13:32:29Z</time>
      </trkpt>
      <trkpt lat="48.75457" lon="-3.52643">
        <ele>49</ele>
        <time>2015-11-13T13:32:33Z</time>
      </trkpt>
      <trkpt lat="48.75468" lon="-3.52669">
        <ele>49</ele>
        <time>2015-11-13T13:32:37Z</time>
      </trkpt>
      <trkpt lat="48.7547" lon="-3.52683">
        <ele>49</ele>
        <time>2015-11-13T13:32:39Z</time>
      </trkpt>
      <trkpt lat="48.75471" lon="-3.52698">
        <ele>49</ele>
        <time>2015-11-13T13:32:41Z</time>
      </trkpt>
      <trkpt lat="48.7547" lon="-3.52712">
        <ele>49</ele>
        <time>2015-11-13T13:32:43Z</time>
      </trkpt>
      <trkpt lat="48.7547" lon="-3.52727">
        <ele>49</ele>
        <time>2015-11-13T13:32:45Z</time>
      </trkpt>
      <trkpt lat="48.7547" lon="-3.52741">
        <ele>50</ele>
        <time>2015-11-13T13:32:47Z</time>
      </trkpt>
      <trkpt lat="48.75469" lon="-3.52755">
        <ele>50</ele>
        <time>2015-11-13T13:32:49Z</time>
      </trkpt>
      <trkpt lat="48.75469" lon="-3.52782">
        <ele>50</ele>
        <time>2015-11-13T13:32:53Z</time>
      </trkpt>
      <trkpt lat="48.75468" lon="-3.52812">
        <ele>51</ele>
        <time>2015-11-13T13:32:57Z</time>
      </trkpt>
      <trkpt lat="48.75467" lon="-3.52828">
        <ele>51</ele>
        <time>2015-11-13T13:32:59Z</time>
      </trkpt>
      <trkpt lat="48.75466" lon="-3.52845">
        <ele>51</ele>
        <time>2015-11-13T13:33:01Z</time>
      </trkpt>
      <trkpt lat="48.75465" lon="-3.52867">
        <ele>51</ele>
        <time>2015-11-13T13:33:04Z</time>
      </trkpt>
      <trkpt lat="48.75465" lon="-3.52896">
        <ele>52</ele>
        <time>2015-11-13T13:33:08Z</time>
      </trkpt>
      <trkpt lat="48.75464" lon="-3.52925">
        <ele>52</ele>
        <time>2015-11-13T13:33:12Z</time>
      </trkpt>
      <trkpt lat="48.75468" lon="-3.52955">
        <ele>52</ele>
        <time>2015-11-13T13:33:16Z</time>
      </trkpt>
      <trkpt lat="48.75483" lon="-3.52968">
        <ele>53</ele>
        <time>2015-11-13T13:33:20Z</time>
      </trkpt>
      <trkpt lat="48.75499" lon="-3.52973">
        <ele>53</ele>
        <time>2015-11-13T13:33:24Z</time>
      </trkpt>
      <trkpt lat="48.75517" lon="-3.52977">
        <ele>53</ele>
        <time>2015-11-13T13:33:28Z</time>
      </trkpt>
      <trkpt lat="48.75553" lon="-3.52986">
        <ele>53</ele>
        <time>2015-11-13T13:33:35Z</time>
      </trkpt>
      <trkpt lat="48.75571" lon="-3.52992">
        <ele>52</ele>
        <time>2015-11-13T13:33:38Z</time>
      </trkpt>
      <trkpt lat="48.75589" lon="-3.52999">
        <ele>52</ele>
        <time>2015-11-13T13:33:41Z</time>
      </trkpt>
      <trkpt lat="48.75608" lon="-3.53004">
        <ele>52</ele>
        <time>2015-11-13T13:33:44Z</time>
      </trkpt>
      <trkpt lat="48.75626" lon="-3.53013">
        <ele>52</ele>
        <time>2015-11-13T13:33:47Z</time>
      </trkpt>
      <trkpt lat="48.75639" lon="-3.53033">
        <ele>51</ele>
        <time>2015-11-13T13:33:50Z</time>
      </trkpt>
      <trkpt lat="48.75651" lon="-3.53055">
        <ele>51</ele>
        <time>2015-11-13T13:33:53Z</time>
      </trkpt>
      <trkpt lat="48.75661" lon="-3.53078">
        <ele>51</ele>
        <time>2015-11-13T13:33:56Z</time>
      </trkpt>
      <trkpt lat="48.75674" lon="-3.53095">
        <ele>50</ele>
        <time>2015-11-13T13:33:59Z</time>
      </trkpt>
      <trkpt lat="48.75693" lon="-3.53093">
        <ele>50</ele>
        <time>2015-11-13T13:34:03Z</time>
      </trkpt>
      <trkpt lat="48.75708" lon="-3.53082">
        <ele>49</ele>
        <time>2015-11-13T13:34:07Z</time>
      </trkpt>
      <trkpt lat="48.75724" lon="-3.53073">
        <ele>48</ele>
        <time>2015-11-13T13:34:11Z</time>
      </trkpt>
      <trkpt lat="48.75735" lon="-3.53068">
        <ele>47</ele>
        <time>2015-11-13T13:34:14Z</time>
      </trkpt>
      <trkpt lat="48.75744" lon="-3.53065">
        <ele>46</ele>
        <time>2015-11-13T13:34:16Z</time>
      </trkpt>
      <trkpt lat="48.75753" lon="-3.53062">
        <ele>46</ele>
        <time>2015-11-13T13:34:18Z</time>
      </trkpt>
      <trkpt lat="48.75762" lon="-3.53065">
        <ele>46</ele>
        <time>2015-11-13T13:34:20Z</time>
      </trkpt>
      <trkpt lat="48.75772" lon="-3.53085">
        <ele>45</ele>
        <time>2015-11-13T13:34:24Z</time>
      </trkpt>
      <trkpt lat="48.75772" lon="-3.53111">
        <ele>44</ele>
        <time>2015-11-13T13:34:28Z</time>
      </trkpt>
      <trkpt lat="48.75772" lon="-3.53137">
        <ele>44</ele>
        <time>2015-11-13T13:34:32Z</time>
      </trkpt>
      <trkpt lat="48.75778" lon="-3.53182">
        <ele>43</ele>
        <time>2015-11-13T13:34:38Z</time>
      </trkpt>
      <trkpt lat="48.75784" lon="-3.53232">
        <ele>42</ele>
        <time>2015-11-13T13:34:47Z</time>
      </trkpt>
      <trkpt lat="48.75773" lon="-3.53255">
        <ele>41</ele>
        <time>2015-11-13T13:34:51Z</time>
      </trkpt>
      <trkpt lat="48.75761" lon="-3.5327">
        <ele>41</ele>
        <time>2015-11-13T13:34:54Z</time>
      </trkpt>
      <trkpt lat="48.75733" lon="-3.53308">
        <ele>40</ele>
        <time>2015-11-13T13:35:00Z</time>
      </trkpt>
      <trkpt lat="48.75723" lon="-3.53339">
        <ele>40</ele>
        <time>2015-11-13T13:35:03Z</time>
      </trkpt>
      <trkpt lat="48.75711" lon="-3.5338">
        <ele>39</ele>
        <time>2015-11-13T13:35:07Z</time>
      </trkpt>
      <trkpt lat="48.75701" lon="-3.53405">
        <ele>38</ele>
        <time>2015-11-13T13:35:10Z</time>
      </trkpt>
      <trkpt lat="48.7562" lon="-3.53577">
        <ele>37</ele>
        <time>2015-11-13T13:35:30Z</time>
      </trkpt>
      <trkpt lat="48.75612" lon="-3.53598">
        <ele>36</ele>
        <time>2015-11-13T13:35:32Z</time>
      </trkpt>
      <trkpt lat="48.75603" lon="-3.53618">
        <ele>36</ele>
        <time>2015-11-13T13:35:34Z</time>
      </trkpt>
      <trkpt lat="48.75593" lon="-3.53648">
        <ele>35</ele>
        <time>2015-11-13T13:35:37Z</time>
      </trkpt>
      <trkpt lat="48.75583" lon="-3.53676">
        <ele>34</ele>
        <time>2015-11-13T13:35:40Z</time>
      </trkpt>
      <trkpt lat="48.75567" lon="-3.53698">
        <ele>34</ele>
        <time>2015-11-13T13:35:43Z</time>
      </trkpt>
      <trkpt lat="48.75549" lon="-3.53718">
        <ele>33</ele>
        <time>2015-11-13T13:35:46Z</time>
      </trkpt>
      <trkpt lat="48.75538" lon="-3.53732">
        <ele>32</ele>
        <time>2015-11-13T13:35:48Z</time>
      </trkpt>
      <trkpt lat="48.75524" lon="-3.53754">
        <ele>32</ele>
        <time>2015-11-13T13:35:51Z</time>
      </trkpt>
      <trkpt lat="48.75514" lon="-3.53776">
        <ele>32</ele>
        <time>2015-11-13T13:35:55Z</time>
      </trkpt>
      <trkpt lat="48.75502" lon="-3.53794">
        <ele>31</ele>
        <time>2015-11-13T13:36:00Z</time>
      </trkpt>
      <trkpt lat="48.75493" lon="-3.53803">
        <ele>31</ele>
        <time>2015-11-13T13:36:02Z</time>
      </trkpt>
      <trkpt lat="48.75478" lon="-3.53823">
        <ele>31</ele>
        <time>2015-11-13T13:36:05Z</time>
      </trkpt>
      <trkpt lat="48.75462" lon="-3.53845">
        <ele>31</ele>
        <time>2015-11-13T13:36:08Z</time>
      </trkpt>
      <trkpt lat="48.75452" lon="-3.5386">
        <ele>31</ele>
        <time>2015-11-13T13:36:10Z</time>
      </trkpt>
      <trkpt lat="48.75439" lon="-3.53882">
        <ele>31</ele>
        <time>2015-11-13T13:36:13Z</time>
      </trkpt>
      <trkpt lat="48.75425" lon="-3.53898">
        <ele>31</ele>
        <time>2015-11-13T13:36:16Z</time>
      </trkpt>
      <trkpt lat="48.75409" lon="-3.53909">
        <ele>31</ele>
        <time>2015-11-13T13:36:19Z</time>
      </trkpt>
      <trkpt lat="48.75394" lon="-3.53922">
        <ele>31</ele>
        <time>2015-11-13T13:36:22Z</time>
      </trkpt>
      <trkpt lat="48.75379" lon="-3.5394">
        <ele>31</ele>
        <time>2015-11-13T13:36:26Z</time>
      </trkpt>
      <trkpt lat="48.75365" lon="-3.53966">
        <ele>31</ele>
        <time>2015-11-13T13:36:31Z</time>
      </trkpt>
      <trkpt lat="48.75353" lon="-3.5399">
        <ele>31</ele>
        <time>2015-11-13T13:36:35Z</time>
      </trkpt>
      <trkpt lat="48.75341" lon="-3.54015">
        <ele>31</ele>
        <time>2015-11-13T13:36:38Z</time>
      </trkpt>
      <trkpt lat="48.7533" lon="-3.54042">
        <ele>31</ele>
        <time>2015-11-13T13:36:41Z</time>
      </trkpt>
      <trkpt lat="48.75318" lon="-3.54069">
        <ele>31</ele>
        <time>2015-11-13T13:36:44Z</time>
      </trkpt>
      <trkpt lat="48.75304" lon="-3.54094">
        <ele>32</ele>
        <time>2015-11-13T13:36:47Z</time>
      </trkpt>
      <trkpt lat="48.75294" lon="-3.54122">
        <ele>32</ele>
        <time>2015-11-13T13:36:50Z</time>
      </trkpt>
      <trkpt lat="48.753" lon="-3.5416">
        <ele>32</ele>
        <time>2015-11-13T13:36:54Z</time>
      </trkpt>
      <trkpt lat="48.75308" lon="-3.54184">
        <ele>32</ele>
        <time>2015-11-13T13:36:58Z</time>
      </trkpt>
      <trkpt lat="48.75316" lon="-3.54206">
        <ele>32</ele>
        <time>2015-11-13T13:37:03Z</time>
      </trkpt>
      <trkpt lat="48.75319" lon="-3.5422">
        <ele>31</ele>
        <time>2015-11-13T13:37:06Z</time>
      </trkpt>
      <trkpt lat="48.75321" lon="-3.54234">
        <ele>32</ele>
        <time>2015-11-13T13:37:09Z</time>
      </trkpt>
      <trkpt lat="48.75323" lon="-3.54248">
        <ele>32</ele>
        <time>2015-11-13T13:37:12Z</time>
      </trkpt>
      <trkpt lat="48.75327" lon="-3.54273">
        <ele>32</ele>
        <time>2015-11-13T13:37:17Z</time>
      </trkpt>
      <trkpt lat="48.75333" lon="-3.54299">
        <ele>32</ele>
        <time>2015-11-13T13:37:22Z</time>
      </trkpt>
      <trkpt lat="48.75343" lon="-3.54321">
        <ele>32</ele>
        <time>2015-11-13T13:37:27Z</time>
      </trkpt>
      <trkpt lat="48.75348" lon="-3.54344">
        <ele>32</ele>
        <time>2015-11-13T13:37:32Z</time>
      </trkpt>
      <trkpt lat="48.75342" lon="-3.54379">
        <ele>32</ele>
        <time>2015-11-13T13:37:40Z</time>
      </trkpt>
      <trkpt lat="48.75339" lon="-3.54394">
        <ele>32</ele>
        <time>2015-11-13T13:37:44Z</time>
      </trkpt>
      <trkpt lat="48.75336" lon="-3.5441">
        <ele>31</ele>
        <time>2015-11-13T13:37:48Z</time>
      </trkpt>
      <trkpt lat="48.75334" lon="-3.54433">
        <ele>31</ele>
        <time>2015-11-13T13:37:55Z</time>
      </trkpt>
      <trkpt lat="48.75335" lon="-3.54458">
        <ele>31</ele>
        <time>2015-11-13T13:38:03Z</time>
      </trkpt>
      <trkpt lat="48.75336" lon="-3.54471">
        <ele>31</ele>
        <time>2015-11-13T13:38:07Z</time>
      </trkpt>
      <trkpt lat="48.75335" lon="-3.54486">
        <ele>31</ele>
        <time>2015-11-13T13:38:11Z</time>
      </trkpt>
      <trkpt lat="48.75332" lon="-3.545">
        <ele>31</ele>
        <time>2015-11-13T13:38:15Z</time>
      </trkpt>
      <trkpt lat="48.75328" lon="-3.54514">
        <ele>31</ele>
        <time>2015-11-13T13:38:19Z</time>
      </trkpt>
      <trkpt lat="48.75321" lon="-3.54538">
        <ele>32</ele>
        <time>2015-11-13T13:38:26Z</time>
      </trkpt>
      <trkpt lat="48.75318" lon="-3.54556">
        <ele>32</ele>
        <time>2015-11-13T13:38:31Z</time>
      </trkpt>
      <trkpt lat="48.75317" lon="-3.54579">
        <ele>33</ele>
        <time>2015-11-13T13:38:38Z</time>
      </trkpt>
      <trkpt lat="48.75318" lon="-3.54592">
        <ele>33</ele>
        <time>2015-11-13T13:38:42Z</time>
      </trkpt>
      <trkpt lat="48.7532" lon="-3.54616">
        <ele>34</ele>
        <time>2015-11-13T13:38:48Z</time>
      </trkpt>
      <trkpt lat="48.75323" lon="-3.5464">
        <ele>34</ele>
        <time>2015-11-13T13:38:53Z</time>
      </trkpt>
      <trkpt lat="48.75325" lon="-3.54668">
        <ele>35</ele>
        <time>2015-11-13T13:38:58Z</time>
      </trkpt>
      <trkpt lat="48.75327" lon="-3.5469">
        <ele>35</ele>
        <time>2015-11-13T13:39:02Z</time>
      </trkpt>
      <trkpt lat="48.7533" lon="-3.54711">
        <ele>36</ele>
        <time>2015-11-13T13:39:06Z</time>
      </trkpt>
      <trkpt lat="48.75334" lon="-3.54739">
        <ele>37</ele>
        <time>2015-11-13T13:39:11Z</time>
      </trkpt>
      <trkpt lat="48.75336" lon="-3.54752">
        <ele>37</ele>
        <time>2015-11-13T13:39:13Z</time>
      </trkpt>
      <trkpt lat="48.7534" lon="-3.54777">
        <ele>37</ele>
        <time>2015-11-13T13:39:17Z</time>
      </trkpt>
      <trkpt lat="48.75343" lon="-3.54801">
        <ele>37</ele>
        <time>2015-11-13T13:39:21Z</time>
      </trkpt>
      <trkpt lat="48.75347" lon="-3.54827">
        <ele>37</ele>
        <time>2015-11-13T13:39:25Z</time>
      </trkpt>
      <trkpt lat="48.75354" lon="-3.54851">
        <ele>37</ele>
        <time>2015-11-13T13:39:29Z</time>
      </trkpt>
      <trkpt lat="48.75363" lon="-3.54873">
        <ele>37</ele>
        <time>2015-11-13T13:39:33Z</time>
      </trkpt>
      <trkpt lat="48.75371" lon="-3.54889">
        <ele>37</ele>
        <time>2015-11-13T13:39:36Z</time>
      </trkpt>
      <trkpt lat="48.75376" lon="-3.54899">
        <ele>37</ele>
        <time>2015-11-13T13:39:38Z</time>
      </trkpt>
      <trkpt lat="48.75381" lon="-3.54909">
        <ele>37</ele>
        <time>2015-11-13T13:39:40Z</time>
      </trkpt>
      <trkpt lat="48.75395" lon="-3.54927">
        <ele>37</ele>
        <time>2015-11-13T13:39:44Z</time>
      </trkpt>
      <trkpt lat="48.75407" lon="-3.5495">
        <ele>37</ele>
        <time>2015-11-13T13:39:48Z</time>
      </trkpt>
      <trkpt lat="48.75416" lon="-3.54971">
        <ele>38</ele>
        <time>2015-11-13T13:39:51Z</time>
      </trkpt>
      <trkpt lat="48.75432" lon="-3.54986">
        <ele>38</ele>
        <time>2015-11-13T13:39:55Z</time>
      </trkpt>
      <trkpt lat="48.75456" lon="-3.54994">
        <ele>38</ele>
        <time>2015-11-13T13:40:00Z</time>
      </trkpt>
      <trkpt lat="48.75477" lon="-3.55005">
        <ele>38</ele>
        <time>2015-11-13T13:40:04Z</time>
      </trkpt>
      <trkpt lat="48.75488" lon="-3.55015">
        <ele>38</ele>
        <time>2015-11-13T13:40:06Z</time>
      </trkpt>
      <trkpt lat="48.75498" lon="-3.55028">
        <ele>37</ele>
        <time>2015-11-13T13:40:08Z</time>
      </trkpt>
      <trkpt lat="48.75513" lon="-3.55051">
        <ele>37</ele>
        <time>2015-11-13T13:40:11Z</time>
      </trkpt>
      <trkpt lat="48.75535" lon="-3.55084">
        <ele>37</ele>
        <time>2015-11-13T13:40:16Z</time>
      </trkpt>
      <trkpt lat="48.75549" lon="-3.551">
        <ele>37</ele>
        <time>2015-11-13T13:40:19Z</time>
      </trkpt>
      <trkpt lat="48.75562" lon="-3.55113">
        <ele>37</ele>
        <time>2015-11-13T13:40:22Z</time>
      </trkpt>
      <trkpt lat="48.75578" lon="-3.55132">
        <ele>36</ele>
        <time>2015-11-13T13:40:26Z</time>
      </trkpt>
      <trkpt lat="48.75591" lon="-3.55153">
        <ele>36</ele>
        <time>2015-11-13T13:40:30Z</time>
      </trkpt>
      <trkpt lat="48.75603" lon="-3.55178">
        <ele>36</ele>
        <time>2015-11-13T13:40:34Z</time>
      </trkpt>
      <trkpt lat="48.7561" lon="-3.55199">
        <ele>36</ele>
        <time>2015-11-13T13:40:37Z</time>
      </trkpt>
      <trkpt lat="48.75614" lon="-3.55223">
        <ele>35</ele>
        <time>2015-11-13T13:40:40Z</time>
      </trkpt>
      <trkpt lat="48.75614" lon="-3.55249">
        <ele>35</ele>
        <time>2015-11-13T13:40:43Z</time>
      </trkpt>
      <trkpt lat="48.75616" lon="-3.55276">
        <ele>35</ele>
        <time>2015-11-13T13:40:46Z</time>
      </trkpt>
      <trkpt lat="48.75627" lon="-3.55297">
        <ele>35</ele>
        <time>2015-11-13T13:40:49Z</time>
      </trkpt>
      <trkpt lat="48.75641" lon="-3.55311">
        <ele>35</ele>
        <time>2015-11-13T13:40:52Z</time>
      </trkpt>
      <trkpt lat="48.75659" lon="-3.55324">
        <ele>34</ele>
        <time>2015-11-13T13:40:56Z</time>
      </trkpt>
      <trkpt lat="48.75671" lon="-3.55338">
        <ele>34</ele>
        <time>2015-11-13T13:40:59Z</time>
      </trkpt>
      <trkpt lat="48.75679" lon="-3.55348">
        <ele>34</ele>
        <time>2015-11-13T13:41:01Z</time>
      </trkpt>
      <trkpt lat="48.75692" lon="-3.55361">
        <ele>33</ele>
        <time>2015-11-13T13:41:04Z</time>
      </trkpt>
      <trkpt lat="48.7571" lon="-3.55369">
        <ele>33</ele>
        <time>2015-11-13T13:41:08Z</time>
      </trkpt>
      <trkpt lat="48.75727" lon="-3.5537">
        <ele>33</ele>
        <time>2015-11-13T13:41:12Z</time>
      </trkpt>
      <trkpt lat="48.75744" lon="-3.55373">
        <ele>33</ele>
        <time>2015-11-13T13:41:16Z</time>
      </trkpt>
      <trkpt lat="48.75762" lon="-3.55379">
        <ele>33</ele>
        <time>2015-11-13T13:41:20Z</time>
      </trkpt>
      <trkpt lat="48.7578" lon="-3.5538">
        <ele>33</ele>
        <time>2015-11-13T13:41:24Z</time>
      </trkpt>
      <trkpt lat="48.75796" lon="-3.5538">
        <ele>33</ele>
        <time>2015-11-13T13:41:29Z</time>
      </trkpt>
      <trkpt lat="48.75812" lon="-3.55385">
        <ele>34</ele>
        <time>2015-11-13T13:41:33Z</time>
      </trkpt>
      <trkpt lat="48.7582" lon="-3.5539">
        <ele>34</ele>
        <time>2015-11-13T13:41:35Z</time>
      </trkpt>
      <trkpt lat="48.75836" lon="-3.55403">
        <ele>34</ele>
        <time>2015-11-13T13:41:39Z</time>
      </trkpt>
      <trkpt lat="48.75866" lon="-3.55432">
        <ele>34</ele>
        <time>2015-11-13T13:41:46Z</time>
      </trkpt>
      <trkpt lat="48.75876" lon="-3.55455">
        <ele>34</ele>
        <time>2015-11-13T13:41:49Z</time>
      </trkpt>
      <trkpt lat="48.75882" lon="-3.55483">
        <ele>33</ele>
        <time>2015-11-13T13:41:52Z</time>
      </trkpt>
      <trkpt lat="48.75894" lon="-3.55518">
        <ele>33</ele>
        <time>2015-11-13T13:41:56Z</time>
      </trkpt>
      <trkpt lat="48.75906" lon="-3.55541">
        <ele>33</ele>
        <time>2015-11-13T13:41:59Z</time>
      </trkpt>
      <trkpt lat="48.75921" lon="-3.5556">
        <ele>32</ele>
        <time>2015-11-13T13:42:02Z</time>
      </trkpt>
      <trkpt lat="48.75933" lon="-3.55571">
        <ele>32</ele>
        <time>2015-11-13T13:42:04Z</time>
      </trkpt>
      <trkpt lat="48.75946" lon="-3.55585">
        <ele>32</ele>
        <time>2015-11-13T13:42:06Z</time>
      </trkpt>
      <trkpt lat="48.75962" lon="-3.55598">
        <ele>31</ele>
        <time>2015-11-13T13:42:08Z</time>
      </trkpt>
      <trkpt lat="48.75979" lon="-3.55614">
        <ele>31</ele>
        <time>2015-11-13T13:42:10Z</time>
      </trkpt>
      <trkpt lat="48.75988" lon="-3.55621">
        <ele>31</ele>
        <time>2015-11-13T13:42:11Z</time>
      </trkpt>
      <trkpt lat="48.75996" lon="-3.55628">
        <ele>30</ele>
        <time>2015-11-13T13:42:12Z</time>
      </trkpt>
      <trkpt lat="48.76005" lon="-3.55635">
        <ele>30</ele>
        <time>2015-11-13T13:42:13Z</time>
      </trkpt>
      <trkpt lat="48.76014" lon="-3.55642">
        <ele>30</ele>
        <time>2015-11-13T13:42:14Z</time>
      </trkpt>
      <trkpt lat="48.76023" lon="-3.55649">
        <ele>30</ele>
        <time>2015-11-13T13:42:15Z</time>
      </trkpt>
      <trkpt lat="48.76033" lon="-3.55655">
        <ele>29</ele>
        <time>2015-11-13T13:42:16Z</time>
      </trkpt>
      <trkpt lat="48.76042" lon="-3.55663">
        <ele>29</ele>
        <time>2015-11-13T13:42:17Z</time>
      </trkpt>
      <trkpt lat="48.7605" lon="-3.55672">
        <ele>29</ele>
        <time>2015-11-13T13:42:18Z</time>
      </trkpt>
      <trkpt lat="48.76057" lon="-3.55683">
        <ele>29</ele>
        <time>2015-11-13T13:42:19Z</time>
      </trkpt>
      <trkpt lat="48.76062" lon="-3.55697">
        <ele>29</ele>
        <time>2015-11-13T13:42:20Z</time>
      </trkpt>
      <trkpt lat="48.76066" lon="-3.5571">
        <ele>28</ele>
        <time>2015-11-13T13:42:21Z</time>
      </trkpt>
      <trkpt lat="48.7607" lon="-3.55723">
        <ele>28</ele>
        <time>2015-11-13T13:42:22Z</time>
      </trkpt>
      <trkpt lat="48.76078" lon="-3.55745">
        <ele>28</ele>
        <time>2015-11-13T13:42:24Z</time>
      </trkpt>
      <trkpt lat="48.76091" lon="-3.55762">
        <ele>27</ele>
        <time>2015-11-13T13:42:27Z</time>
      </trkpt>
      <trkpt lat="48.76106" lon="-3.55771">
        <ele>27</ele>
        <time>2015-11-13T13:42:32Z</time>
      </trkpt>
      <trkpt lat="48.76115" lon="-3.55775">
        <ele>26</ele>
        <time>2015-11-13T13:42:37Z</time>
      </trkpt>
      <trkpt lat="48.76123" lon="-3.55781">
        <ele>26</ele>
        <time>2015-11-13T13:42:42Z</time>
      </trkpt>
      <trkpt lat="48.76138" lon="-3.55795">
        <ele>25</ele>
        <time>2015-11-13T13:42:51Z</time>
      </trkpt>
      <trkpt lat="48.76145" lon="-3.55805">
        <ele>26</ele>
        <time>2015-11-13T13:42:56Z</time>
      </trkpt>
      <trkpt lat="48.76156" lon="-3.55823">
        <ele>26</ele>
        <time>2015-11-13T13:43:04Z</time>
      </trkpt>
      <trkpt lat="48.76162" lon="-3.55834">
        <ele>26</ele>
        <time>2015-11-13T13:43:08Z</time>
      </trkpt>
      <trkpt lat="48.76174" lon="-3.55854">
        <ele>27</ele>
        <time>2015-11-13T13:43:14Z</time>
      </trkpt>
      <trkpt lat="48.76186" lon="-3.55875">
        <ele>27</ele>
        <time>2015-11-13T13:43:18Z</time>
      </trkpt>
      <trkpt lat="48.76199" lon="-3.55896">
        <ele>27</ele>
        <time>2015-11-13T13:43:22Z</time>
      </trkpt>
      <trkpt lat="48.76222" lon="-3.55922">
        <ele>27</ele>
        <time>2015-11-13T13:43:29Z</time>
      </trkpt>
      <trkpt lat="48.76238" lon="-3.55928">
        <ele>27</ele>
        <time>2015-11-13T13:43:32Z</time>
      </trkpt>
      <trkpt lat="48.76286" lon="-3.55929">
        <ele>27</ele>
        <time>2015-11-13T13:43:40Z</time>
      </trkpt>
      <trkpt lat="48.76309" lon="-3.55941">
        <ele>27</ele>
        <time>2015-11-13T13:43:45Z</time>
      </trkpt>
      <trkpt lat="48.76317" lon="-3.55949">
        <ele>27</ele>
        <time>2015-11-13T13:43:47Z</time>
      </trkpt>
      <trkpt lat="48.76329" lon="-3.55964">
        <ele>27</ele>
        <time>2015-11-13T13:43:50Z</time>
      </trkpt>
      <trkpt lat="48.76341" lon="-3.55981">
        <ele>27</ele>
        <time>2015-11-13T13:43:53Z</time>
      </trkpt>
      <trkpt lat="48.76351" lon="-3.56002">
        <ele>27</ele>
        <time>2015-11-13T13:43:56Z</time>
      </trkpt>
      <trkpt lat="48.76357" lon="-3.56017">
        <ele>27</ele>
        <time>2015-11-13T13:43:58Z</time>
      </trkpt>
      <trkpt lat="48.76368" lon="-3.56039">
        <ele>27</ele>
        <time>2015-11-13T13:44:01Z</time>
      </trkpt>
      <trkpt lat="48.76382" lon="-3.56054">
        <ele>27</ele>
        <time>2015-11-13T13:44:04Z</time>
      </trkpt>
      <trkpt lat="48.76397" lon="-3.56066">
        <ele>27</ele>
        <time>2015-11-13T13:44:07Z</time>
      </trkpt>
      <trkpt lat="48.76417" lon="-3.56086">
        <ele>27</ele>
        <time>2015-11-13T13:44:11Z</time>
      </trkpt>
      <trkpt lat="48.76437" lon="-3.56114">
        <ele>27</ele>
        <time>2015-11-13T13:44:15Z</time>
      </trkpt>
      <trkpt lat="48.76451" lon="-3.56126">
        <ele>27</ele>
        <time>2015-11-13T13:44:17Z</time>
      </trkpt>
      <trkpt lat="48.76466" lon="-3.56135">
        <ele>27</ele>
        <time>2015-11-13T13:44:19Z</time>
      </trkpt>
      <trkpt lat="48.76484" lon="-3.56141">
        <ele>27</ele>
        <time>2015-11-13T13:44:21Z</time>
      </trkpt>
      <trkpt lat="48.76493" lon="-3.56144">
        <ele>27</ele>
        <time>2015-11-13T13:44:22Z</time>
      </trkpt>
      <trkpt lat="48.76503" lon="-3.56146">
        <ele>26</ele>
        <time>2015-11-13T13:44:23Z</time>
      </trkpt>
      <trkpt lat="48.76513" lon="-3.56149">
        <ele>26</ele>
        <time>2015-11-13T13:44:24Z</time>
      </trkpt>
      <trkpt lat="48.76522" lon="-3.56152">
        <ele>26</ele>
        <time>2015-11-13T13:44:25Z</time>
      </trkpt>
      <trkpt lat="48.76532" lon="-3.56154">
        <ele>26</ele>
        <time>2015-11-13T13:44:26Z</time>
      </trkpt>
      <trkpt lat="48.76542" lon="-3.56155">
        <ele>26</ele>
        <time>2015-11-13T13:44:27Z</time>
      </trkpt>
      <trkpt lat="48.76551" lon="-3.56154">
        <ele>26</ele>
        <time>2015-11-13T13:44:28Z</time>
      </trkpt>
      <trkpt lat="48.76568" lon="-3.56154">
        <ele>26</ele>
        <time>2015-11-13T13:44:30Z</time>
      </trkpt>
      <trkpt lat="48.76589" lon="-3.56158">
        <ele>26</ele>
        <time>2015-11-13T13:44:33Z</time>
      </trkpt>
      <trkpt lat="48.76603" lon="-3.5617">
        <ele>26</ele>
        <time>2015-11-13T13:44:36Z</time>
      </trkpt>
      <trkpt lat="48.76609" lon="-3.56177">
        <ele>25</ele>
        <time>2015-11-13T13:44:38Z</time>
      </trkpt>
      <trkpt lat="48.76617" lon="-3.56188">
        <ele>25</ele>
        <time>2015-11-13T13:44:41Z</time>
      </trkpt>
      <trkpt lat="48.76624" lon="-3.56198">
        <ele>24</ele>
        <time>2015-11-13T13:44:44Z</time>
      </trkpt>
      <trkpt lat="48.76631" lon="-3.56208">
        <ele>24</ele>
        <time>2015-11-13T13:44:47Z</time>
      </trkpt>
      <trkpt lat="48.76642" lon="-3.56225">
        <ele>24</ele>
        <time>2015-11-13T13:44:52Z</time>
      </trkpt>
      <trkpt lat="48.76648" lon="-3.56234">
        <ele>24</ele>
        <time>2015-11-13T13:44:55Z</time>
      </trkpt>
      <trkpt lat="48.76663" lon="-3.5625">
        <ele>24</ele>
        <time>2015-11-13T13:45:03Z</time>
      </trkpt>
      <trkpt lat="48.7667" lon="-3.56256">
        <ele>25</ele>
        <time>2015-11-13T13:45:07Z</time>
      </trkpt>
      <trkpt lat="48.76686" lon="-3.56263">
        <ele>25</ele>
        <time>2015-11-13T13:45:13Z</time>
      </trkpt>
      <trkpt lat="48.76696" lon="-3.56267">
        <ele>26</ele>
        <time>2015-11-13T13:45:17Z</time>
      </trkpt>
      <trkpt lat="48.7671" lon="-3.56278">
        <ele>27</ele>
        <time>2015-11-13T13:45:23Z</time>
      </trkpt>
      <trkpt lat="48.76718" lon="-3.56283">
        <ele>27</ele>
        <time>2015-11-13T13:45:26Z</time>
      </trkpt>
      <trkpt lat="48.76728" lon="-3.5629">
        <ele>27</ele>
        <time>2015-11-13T13:45:30Z</time>
      </trkpt>
      <trkpt lat="48.76737" lon="-3.56295">
        <ele>27</ele>
        <time>2015-11-13T13:45:33Z</time>
      </trkpt>
      <trkpt lat="48.76752" lon="-3.56304">
        <ele>28</ele>
        <time>2015-11-13T13:45:39Z</time>
      </trkpt>
      <trkpt lat="48.7676" lon="-3.56309">
        <ele>28</ele>
        <time>2015-11-13T13:45:42Z</time>
      </trkpt>
      <trkpt lat="48.76777" lon="-3.56318">
        <ele>28</ele>
        <time>2015-11-13T13:45:48Z</time>
      </trkpt>
      <trkpt lat="48.76788" lon="-3.56322">
        <ele>27</ele>
        <time>2015-11-13T13:45:52Z</time>
      </trkpt>
      <trkpt lat="48.76796" lon="-3.56326">
        <ele>27</ele>
        <time>2015-11-13T13:45:55Z</time>
      </trkpt>
      <trkpt lat="48.76814" lon="-3.56336">
        <ele>27</ele>
        <time>2015-11-13T13:46:01Z</time>
      </trkpt>
      <trkpt lat="48.76837" lon="-3.56338">
        <ele>27</ele>
        <time>2015-11-13T13:46:07Z</time>
      </trkpt>
      <trkpt lat="48.76856" lon="-3.56345">
        <ele>27</ele>
        <time>2015-11-13T13:46:11Z</time>
      </trkpt>
      <trkpt lat="48.76875" lon="-3.56353">
        <ele>26</ele>
        <time>2015-11-13T13:46:15Z</time>
      </trkpt>
      <trkpt lat="48.76892" lon="-3.56355">
        <ele>26</ele>
        <time>2015-11-13T13:46:19Z</time>
      </trkpt>
      <trkpt lat="48.76902" lon="-3.56374">
        <ele>26</ele>
        <time>2015-11-13T13:46:22Z</time>
      </trkpt>
      <trkpt lat="48.76914" lon="-3.5639">
        <ele>26</ele>
        <time>2015-11-13T13:46:25Z</time>
      </trkpt>
      <trkpt lat="48.76929" lon="-3.56403">
        <ele>25</ele>
        <time>2015-11-13T13:46:29Z</time>
      </trkpt>
      <trkpt lat="48.76942" lon="-3.56414">
        <ele>25</ele>
        <time>2015-11-13T13:46:33Z</time>
      </trkpt>
      <trkpt lat="48.76975" lon="-3.5642">
        <ele>25</ele>
        <time>2015-11-13T13:46:43Z</time>
      </trkpt>
      <trkpt lat="48.76986" lon="-3.56395">
        <ele>25</ele>
        <time>2015-11-13T13:46:46Z</time>
      </trkpt>
      <trkpt lat="48.76995" lon="-3.56364">
        <ele>24</ele>
        <time>2015-11-13T13:46:49Z</time>
      </trkpt>
      <trkpt lat="48.77001" lon="-3.56324">
        <ele>23</ele>
        <time>2015-11-13T13:46:53Z</time>
      </trkpt>
      <trkpt lat="48.77007" lon="-3.56294">
        <ele>22</ele>
        <time>2015-11-13T13:46:56Z</time>
      </trkpt>
      <trkpt lat="48.77015" lon="-3.56264">
        <ele>21</ele>
        <time>2015-11-13T13:46:59Z</time>
      </trkpt>
      <trkpt lat="48.77041" lon="-3.5619">
        <ele>21</ele>
        <time>2015-11-13T13:47:06Z</time>
      </trkpt>
      <trkpt lat="48.77049" lon="-3.5617">
        <ele>20</ele>
        <time>2015-11-13T13:47:08Z</time>
      </trkpt>
      <trkpt lat="48.77063" lon="-3.56129">
        <ele>20</ele>
        <time>2015-11-13T13:47:12Z</time>
      </trkpt>
      <trkpt lat="48.7707" lon="-3.56109">
        <ele>19</ele>
        <time>2015-11-13T13:47:14Z</time>
      </trkpt>
      <trkpt lat="48.77078" lon="-3.5609">
        <ele>18</ele>
        <time>2015-11-13T13:47:16Z</time>
      </trkpt>
      <trkpt lat="48.77094" lon="-3.56067">
        <ele>18</ele>
        <time>2015-11-13T13:47:19Z</time>
      </trkpt>
      <trkpt lat="48.77106" lon="-3.56053">
        <ele>18</ele>
        <time>2015-11-13T13:47:21Z</time>
      </trkpt>
      <trkpt lat="48.77123" lon="-3.56035">
        <ele>17</ele>
        <time>2015-11-13T13:47:24Z</time>
      </trkpt>
      <trkpt lat="48.77135" lon="-3.5602">
        <ele>17</ele>
        <time>2015-11-13T13:47:27Z</time>
      </trkpt>
      <trkpt lat="48.77148" lon="-3.56005">
        <ele>16</ele>
        <time>2015-11-13T13:47:30Z</time>
      </trkpt>
      <trkpt lat="48.77161" lon="-3.55989">
        <ele>16</ele>
        <time>2015-11-13T13:47:33Z</time>
      </trkpt>
      <trkpt lat="48.77174" lon="-3.55968">
        <ele>15</ele>
        <time>2015-11-13T13:47:36Z</time>
      </trkpt>
      <trkpt lat="48.77186" lon="-3.55942">
        <ele>15</ele>
        <time>2015-11-13T13:47:39Z</time>
      </trkpt>
      <trkpt lat="48.77192" lon="-3.55924">
        <ele>14</ele>
        <time>2015-11-13T13:47:41Z</time>
      </trkpt>
      <trkpt lat="48.772" lon="-3.55895">
        <ele>14</ele>
        <time>2015-11-13T13:47:44Z</time>
      </trkpt>
      <trkpt lat="48.77205" lon="-3.55864">
        <ele>14</ele>
        <time>2015-11-13T13:47:47Z</time>
      </trkpt>
      <trkpt lat="48.77208" lon="-3.55844">
        <ele>14</ele>
        <time>2015-11-13T13:47:49Z</time>
      </trkpt>
      <trkpt lat="48.77211" lon="-3.55824">
        <ele>14</ele>
        <time>2015-11-13T13:47:51Z</time>
      </trkpt>
      <trkpt lat="48.77214" lon="-3.55805">
        <ele>14</ele>
        <time>2015-11-13T13:47:53Z</time>
      </trkpt>
      <trkpt lat="48.77216" lon="-3.55785">
        <ele>14</ele>
        <time>2015-11-13T13:47:55Z</time>
      </trkpt>
      <trkpt lat="48.77219" lon="-3.55766">
        <ele>14</ele>
        <time>2015-11-13T13:47:57Z</time>
      </trkpt>
      <trkpt lat="48.77224" lon="-3.55737">
        <ele>14</ele>
        <time>2015-11-13T13:48:00Z</time>
      </trkpt>
      <trkpt lat="48.77228" lon="-3.55717">
        <ele>14</ele>
        <time>2015-11-13T13:48:02Z</time>
      </trkpt>
      <trkpt lat="48.77232" lon="-3.55697">
        <ele>14</ele>
        <time>2015-11-13T13:48:04Z</time>
      </trkpt>
      <trkpt lat="48.77239" lon="-3.55666">
        <ele>14</ele>
        <time>2015-11-13T13:48:07Z</time>
      </trkpt>
      <trkpt lat="48.77244" lon="-3.55645">
        <ele>15</ele>
        <time>2015-11-13T13:48:09Z</time>
      </trkpt>
      <trkpt lat="48.77249" lon="-3.55624">
        <ele>15</ele>
        <time>2015-11-13T13:48:11Z</time>
      </trkpt>
      <trkpt lat="48.77253" lon="-3.55604">
        <ele>15</ele>
        <time>2015-11-13T13:48:13Z</time>
      </trkpt>
      <trkpt lat="48.77257" lon="-3.55583">
        <ele>15</ele>
        <time>2015-11-13T13:48:15Z</time>
      </trkpt>
      <trkpt lat="48.77258" lon="-3.55552">
        <ele>15</ele>
        <time>2015-11-13T13:48:18Z</time>
      </trkpt>
      <trkpt lat="48.77256" lon="-3.55532">
        <ele>15</ele>
        <time>2015-11-13T13:48:20Z</time>
      </trkpt>
      <trkpt lat="48.77256" lon="-3.55513">
        <ele>15</ele>
        <time>2015-11-13T13:48:22Z</time>
      </trkpt>
      <trkpt lat="48.77259" lon="-3.55493">
        <ele>15</ele>
        <time>2015-11-13T13:48:24Z</time>
      </trkpt>
      <trkpt lat="48.77258" lon="-3.55462">
        <ele>15</ele>
        <time>2015-11-13T13:48:27Z</time>
      </trkpt>
      <trkpt lat="48.77256" lon="-3.55442">
        <ele>15</ele>
        <time>2015-11-13T13:48:29Z</time>
      </trkpt>
      <trkpt lat="48.77253" lon="-3.55412">
        <ele>16</ele>
        <time>2015-11-13T13:48:32Z</time>
      </trkpt>
      <trkpt lat="48.77251" lon="-3.55381">
        <ele>16</ele>
        <time>2015-11-13T13:48:35Z</time>
      </trkpt>
      <trkpt lat="48.7725" lon="-3.55351">
        <ele>16</ele>
        <time>2015-11-13T13:48:38Z</time>
      </trkpt>
      <trkpt lat="48.77249" lon="-3.55321">
        <ele>16</ele>
        <time>2015-11-13T13:48:41Z</time>
      </trkpt>
      <trkpt lat="48.7725" lon="-3.55291">
        <ele>17</ele>
        <time>2015-11-13T13:48:44Z</time>
      </trkpt>
      <trkpt lat="48.77252" lon="-3.55262">
        <ele>17</ele>
        <time>2015-11-13T13:48:47Z</time>
      </trkpt>
      <trkpt lat="48.77253" lon="-3.55234">
        <ele>17</ele>
        <time>2015-11-13T13:48:50Z</time>
      </trkpt>
      <trkpt lat="48.77264" lon="-3.5507">
        <ele>18</ele>
        <time>2015-11-13T13:49:08Z</time>
      </trkpt>
      <trkpt lat="48.77263" lon="-3.55042">
        <ele>18</ele>
        <time>2015-11-13T13:49:11Z</time>
      </trkpt>
      <trkpt lat="48.77262" lon="-3.55014">
        <ele>18</ele>
        <time>2015-11-13T13:49:14Z</time>
      </trkpt>
      <trkpt lat="48.7726" lon="-3.54988">
        <ele>19</ele>
        <time>2015-11-13T13:49:17Z</time>
      </trkpt>
      <trkpt lat="48.77259" lon="-3.54964">
        <ele>19</ele>
        <time>2015-11-13T13:49:20Z</time>
      </trkpt>
      <trkpt lat="48.77258" lon="-3.54935">
        <ele>20</ele>
        <time>2015-11-13T13:49:24Z</time>
      </trkpt>
      <trkpt lat="48.77257" lon="-3.54907">
        <ele>20</ele>
        <time>2015-11-13T13:49:28Z</time>
      </trkpt>
      <trkpt lat="48.77255" lon="-3.54881">
        <ele>21</ele>
        <time>2015-11-13T13:49:32Z</time>
      </trkpt>
      <trkpt lat="48.77255" lon="-3.54867">
        <ele>21</ele>
        <time>2015-11-13T13:49:34Z</time>
      </trkpt>
      <trkpt lat="48.77254" lon="-3.54854">
        <ele>22</ele>
        <time>2015-11-13T13:49:36Z</time>
      </trkpt>
      <trkpt lat="48.77253" lon="-3.54835">
        <ele>22</ele>
        <time>2015-11-13T13:49:39Z</time>
      </trkpt>
      <trkpt lat="48.77252" lon="-3.5481">
        <ele>23</ele>
        <time>2015-11-13T13:49:43Z</time>
      </trkpt>
      <trkpt lat="48.77251" lon="-3.54791">
        <ele>23</ele>
        <time>2015-11-13T13:49:46Z</time>
      </trkpt>
      <trkpt lat="48.77249" lon="-3.54768">
        <ele>24</ele>
        <time>2015-11-13T13:49:50Z</time>
      </trkpt>
      <trkpt lat="48.77247" lon="-3.54751">
        <ele>24</ele>
        <time>2015-11-13T13:49:53Z</time>
      </trkpt>
      <trkpt lat="48.77243" lon="-3.54726">
        <ele>24</ele>
        <time>2015-11-13T13:49:58Z</time>
      </trkpt>
      <trkpt lat="48.77239" lon="-3.54703">
        <ele>24</ele>
        <time>2015-11-13T13:50:02Z</time>
      </trkpt>
      <trkpt lat="48.77237" lon="-3.54692">
        <ele>24</ele>
        <time>2015-11-13T13:50:04Z</time>
      </trkpt>
      <trkpt lat="48.77232" lon="-3.54674">
        <ele>23</ele>
        <time>2015-11-13T13:50:07Z</time>
      </trkpt>
      <trkpt lat="48.77229" lon="-3.54662">
        <ele>23</ele>
        <time>2015-11-13T13:50:09Z</time>
      </trkpt>
      <trkpt lat="48.77223" lon="-3.54637">
        <ele>23</ele>
        <time>2015-11-13T13:50:13Z</time>
      </trkpt>
      <trkpt lat="48.77216" lon="-3.54614">
        <ele>23</ele>
        <time>2015-11-13T13:50:17Z</time>
      </trkpt>
      <trkpt lat="48.7721" lon="-3.54586">
        <ele>23</ele>
        <time>2015-11-13T13:50:22Z</time>
      </trkpt>
      <trkpt lat="48.77206" lon="-3.54561">
        <ele>23</ele>
        <time>2015-11-13T13:50:27Z</time>
      </trkpt>
      <trkpt lat="48.77203" lon="-3.54542">
        <ele>23</ele>
        <time>2015-11-13T13:50:31Z</time>
      </trkpt>
      <trkpt lat="48.772" lon="-3.54518">
        <ele>23</ele>
        <time>2015-11-13T13:50:36Z</time>
      </trkpt>
      <trkpt lat="48.77199" lon="-3.545">
        <ele>23</ele>
        <time>2015-11-13T13:50:40Z</time>
      </trkpt>
      <trkpt lat="48.77198" lon="-3.54487">
        <ele>23</ele>
        <time>2015-11-13T13:50:43Z</time>
      </trkpt>
      <trkpt lat="48.77197" lon="-3.54466">
        <ele>24</ele>
        <time>2015-11-13T13:50:48Z</time>
      </trkpt>
      <trkpt lat="48.77197" lon="-3.54442">
        <ele>25</ele>
        <time>2015-11-13T13:50:54Z</time>
      </trkpt>
      <trkpt lat="48.77196" lon="-3.54426">
        <ele>26</ele>
        <time>2015-11-13T13:50:58Z</time>
      </trkpt>
      <trkpt lat="48.77195" lon="-3.544">
        <ele>27</ele>
        <time>2015-11-13T13:51:04Z</time>
      </trkpt>
      <trkpt lat="48.77193" lon="-3.54385">
        <ele>28</ele>
        <time>2015-11-13T13:51:07Z</time>
      </trkpt>
      <trkpt lat="48.77191" lon="-3.54363">
        <ele>29</ele>
        <time>2015-11-13T13:51:11Z</time>
      </trkpt>
      <trkpt lat="48.77187" lon="-3.54335">
        <ele>29</ele>
        <time>2015-11-13T13:51:15Z</time>
      </trkpt>
      <trkpt lat="48.77185" lon="-3.54311">
        <ele>30</ele>
        <time>2015-11-13T13:51:18Z</time>
      </trkpt>
      <trkpt lat="48.77184" lon="-3.54259">
        <ele>30</ele>
        <time>2015-11-13T13:51:24Z</time>
      </trkpt>
      <trkpt lat="48.77191" lon="-3.5417">
        <ele>30</ele>
        <time>2015-11-13T13:51:32Z</time>
      </trkpt>
      <trkpt lat="48.77194" lon="-3.54148">
        <ele>30</ele>
        <time>2015-11-13T13:51:34Z</time>
      </trkpt>
      <trkpt lat="48.77196" lon="-3.54125">
        <ele>30</ele>
        <time>2015-11-13T13:51:36Z</time>
      </trkpt>
      <trkpt lat="48.77199" lon="-3.54094">
        <ele>30</ele>
        <time>2015-11-13T13:51:39Z</time>
      </trkpt>
      <trkpt lat="48.77202" lon="-3.54066">
        <ele>30</ele>
        <time>2015-11-13T13:51:42Z</time>
      </trkpt>
      <trkpt lat="48.77203" lon="-3.54039">
        <ele>31</ele>
        <time>2015-11-13T13:51:45Z</time>
      </trkpt>
      <trkpt lat="48.77205" lon="-3.54009">
        <ele>31</ele>
        <time>2015-11-13T13:51:49Z</time>
      </trkpt>
      <trkpt lat="48.77206" lon="-3.53983">
        <ele>31</ele>
        <time>2015-11-13T13:51:53Z</time>
      </trkpt>
      <trkpt lat="48.77208" lon="-3.53956">
        <ele>32</ele>
        <time>2015-11-13T13:51:57Z</time>
      </trkpt>
      <trkpt lat="48.77208" lon="-3.53944">
        <ele>32</ele>
        <time>2015-11-13T13:51:59Z</time>
      </trkpt>
      <trkpt lat="48.7721" lon="-3.53915">
        <ele>32</ele>
        <time>2015-11-13T13:52:04Z</time>
      </trkpt>
      <trkpt lat="48.77211" lon="-3.539">
        <ele>33</ele>
        <time>2015-11-13T13:52:07Z</time>
      </trkpt>
      <trkpt lat="48.77213" lon="-3.53869">
        <ele>33</ele>
        <time>2015-11-13T13:52:13Z</time>
      </trkpt>
      <trkpt lat="48.77213" lon="-3.53843">
        <ele>34</ele>
        <time>2015-11-13T13:52:18Z</time>
      </trkpt>
      <trkpt lat="48.77213" lon="-3.53816">
        <ele>35</ele>
        <time>2015-11-13T13:52:23Z</time>
      </trkpt>
      <trkpt lat="48.77211" lon="-3.5379">
        <ele>36</ele>
        <time>2015-11-13T13:52:28Z</time>
      </trkpt>
      <trkpt lat="48.77208" lon="-3.53765">
        <ele>37</ele>
        <time>2015-11-13T13:52:33Z</time>
      </trkpt>
      <trkpt lat="48.77203" lon="-3.53742">
        <ele>38</ele>
        <time>2015-11-13T13:52:38Z</time>
      </trkpt>
      <trkpt lat="48.77196" lon="-3.5372">
        <ele>38</ele>
        <time>2015-11-13T13:52:43Z</time>
      </trkpt>
      <trkpt lat="48.77187" lon="-3.53697">
        <ele>39</ele>
        <time>2015-11-13T13:52:48Z</time>
      </trkpt>
      <trkpt lat="48.77178" lon="-3.53674">
        <ele>40</ele>
        <time>2015-11-13T13:52:53Z</time>
      </trkpt>
      <trkpt lat="48.77169" lon="-3.53654">
        <ele>40</ele>
        <time>2015-11-13T13:52:57Z</time>
      </trkpt>
      <trkpt lat="48.77165" lon="-3.53643">
        <ele>41</ele>
        <time>2015-11-13T13:52:59Z</time>
      </trkpt>
      <trkpt lat="48.77159" lon="-3.53625">
        <ele>41</ele>
        <time>2015-11-13T13:53:02Z</time>
      </trkpt>
      <trkpt lat="48.77151" lon="-3.536">
        <ele>42</ele>
        <time>2015-11-13T13:53:06Z</time>
      </trkpt>
      <trkpt lat="48.77141" lon="-3.53569">
        <ele>42</ele>
        <time>2015-11-13T13:53:11Z</time>
      </trkpt>
      <trkpt lat="48.7713" lon="-3.53541">
        <ele>43</ele>
        <time>2015-11-13T13:53:16Z</time>
      </trkpt>
      <trkpt lat="48.77124" lon="-3.53529">
        <ele>43</ele>
        <time>2015-11-13T13:53:18Z</time>
      </trkpt>
      <trkpt lat="48.77117" lon="-3.53517">
        <ele>43</ele>
        <time>2015-11-13T13:53:20Z</time>
      </trkpt>
      <trkpt lat="48.77103" lon="-3.535">
        <ele>44</ele>
        <time>2015-11-13T13:53:23Z</time>
      </trkpt>
      <trkpt lat="48.77088" lon="-3.53488">
        <ele>44</ele>
        <time>2015-11-13T13:53:26Z</time>
      </trkpt>
      <trkpt lat="48.77072" lon="-3.53479">
        <ele>45</ele>
        <time>2015-11-13T13:53:29Z</time>
      </trkpt>
      <trkpt lat="48.77054" lon="-3.53471">
        <ele>45</ele>
        <time>2015-11-13T13:53:32Z</time>
      </trkpt>
      <trkpt lat="48.77035" lon="-3.53463">
        <ele>45</ele>
        <time>2015-11-13T13:53:35Z</time>
      </trkpt>
      <trkpt lat="48.77023" lon="-3.53456">
        <ele>45</ele>
        <time>2015-11-13T13:53:37Z</time>
      </trkpt>
      <trkpt lat="48.77007" lon="-3.53444">
        <ele>46</ele>
        <time>2015-11-13T13:53:40Z</time>
      </trkpt>
      <trkpt lat="48.76994" lon="-3.53429">
        <ele>46</ele>
        <time>2015-11-13T13:53:43Z</time>
      </trkpt>
      <trkpt lat="48.76981" lon="-3.53404">
        <ele>46</ele>
        <time>2015-11-13T13:53:47Z</time>
      </trkpt>
      <trkpt lat="48.76972" lon="-3.53376">
        <ele>46</ele>
        <time>2015-11-13T13:53:51Z</time>
      </trkpt>
      <trkpt lat="48.76969" lon="-3.53339">
        <ele>46</ele>
        <time>2015-11-13T13:53:56Z</time>
      </trkpt>
      <trkpt lat="48.7697" lon="-3.53311">
        <ele>46</ele>
        <time>2015-11-13T13:54:00Z</time>
      </trkpt>
      <trkpt lat="48.7698" lon="-3.53264">
        <ele>46</ele>
        <time>2015-11-13T13:54:07Z</time>
      </trkpt>
      <trkpt lat="48.77039" lon="-3.53006">
        <ele>96.7</ele>
        <time>2015-11-13T13:54:35Z</time>
      </trkpt>
      <trkpt lat="48.7714" lon="-3.52706">
        <ele>94</ele>
        <time>2015-11-13T13:55:10Z</time>
      </trkpt>
      <trkpt lat="48.77166" lon="-3.52642">
        <ele>93</ele>
        <time>2015-11-13T13:55:17Z</time>
      </trkpt>
      <trkpt lat="48.77243" lon="-3.52393">
        <ele>42</ele>
        <time>2015-11-13T13:55:40Z</time>
      </trkpt>
      <trkpt lat="48.77249" lon="-3.52354">
        <ele>42</ele>
        <time>2015-11-13T13:55:44Z</time>
      </trkpt>
      <trkpt lat="48.77253" lon="-3.52324">
        <ele>41</ele>
        <time>2015-11-13T13:55:47Z</time>
      </trkpt>
      <trkpt lat="48.77257" lon="-3.523">
        <ele>41</ele>
        <time>2015-11-13T13:55:49Z</time>
      </trkpt>
      <trkpt lat="48.77262" lon="-3.52274">
        <ele>41</ele>
        <time>2015-11-13T13:55:51Z</time>
      </trkpt>
      <trkpt lat="48.77269" lon="-3.52237">
        <ele>41</ele>
        <time>2015-11-13T13:55:54Z</time>
      </trkpt>
      <trkpt lat="48.77275" lon="-3.52214">
        <ele>40</ele>
        <time>2015-11-13T13:55:56Z</time>
      </trkpt>
      <trkpt lat="48.77282" lon="-3.52192">
        <ele>40</ele>
        <time>2015-11-13T13:55:58Z</time>
      </trkpt>
      <trkpt lat="48.77288" lon="-3.52173">
        <ele>40</ele>
        <time>2015-11-13T13:56:00Z</time>
      </trkpt>
      <trkpt lat="48.77295" lon="-3.52149">
        <ele>40</ele>
        <time>2015-11-13T13:56:03Z</time>
      </trkpt>
      <trkpt lat="48.77302" lon="-3.52126">
        <ele>39</ele>
        <time>2015-11-13T13:56:06Z</time>
      </trkpt>
      <trkpt lat="48.77309" lon="-3.52105">
        <ele>39</ele>
        <time>2015-11-13T13:56:09Z</time>
      </trkpt>
      <trkpt lat="48.77314" lon="-3.52092">
        <ele>39</ele>
        <time>2015-11-13T13:56:11Z</time>
      </trkpt>
      <trkpt lat="48.77321" lon="-3.52065">
        <ele>39</ele>
        <time>2015-11-13T13:56:16Z</time>
      </trkpt>
      <trkpt lat="48.77323" lon="-3.52041">
        <ele>38</ele>
        <time>2015-11-13T13:56:21Z</time>
      </trkpt>
      <trkpt lat="48.77341" lon="-3.52046">
        <ele>38</ele>
        <time>2015-11-13T13:56:27Z</time>
      </trkpt>
      <trkpt lat="48.77352" lon="-3.52068">
        <ele>38</ele>
        <time>2015-11-13T13:56:30Z</time>
      </trkpt>
      <trkpt lat="48.77367" lon="-3.52092">
        <ele>38</ele>
        <time>2015-11-13T13:56:33Z</time>
      </trkpt>
      <trkpt lat="48.77383" lon="-3.52115">
        <ele>38</ele>
        <time>2015-11-13T13:56:36Z</time>
      </trkpt>
      <trkpt lat="48.77395" lon="-3.52131">
        <ele>37</ele>
        <time>2015-11-13T13:56:38Z</time>
      </trkpt>
      <trkpt lat="48.77462" lon="-3.52252">
        <ele>36</ele>
        <time>2015-11-13T13:56:50Z</time>
      </trkpt>
      <trkpt lat="48.77473" lon="-3.52274">
        <ele>35</ele>
        <time>2015-11-13T13:56:52Z</time>
      </trkpt>
      <trkpt lat="48.77485" lon="-3.52295">
        <ele>35</ele>
        <time>2015-11-13T13:56:54Z</time>
      </trkpt>
      <trkpt lat="48.77497" lon="-3.52317">
        <ele>34</ele>
        <time>2015-11-13T13:56:56Z</time>
      </trkpt>
      <trkpt lat="48.77509" lon="-3.52338">
        <ele>33</ele>
        <time>2015-11-13T13:56:58Z</time>
      </trkpt>
      <trkpt lat="48.77521" lon="-3.52359">
        <ele>32</ele>
        <time>2015-11-13T13:57:00Z</time>
      </trkpt>
      <trkpt lat="48.77538" lon="-3.52376">
        <ele>32</ele>
        <time>2015-11-13T13:57:02Z</time>
      </trkpt>
      <trkpt lat="48.77546" lon="-3.52386">
        <ele>31</ele>
        <time>2015-11-13T13:57:03Z</time>
      </trkpt>
      <trkpt lat="48.77554" lon="-3.52397">
        <ele>30</ele>
        <time>2015-11-13T13:57:04Z</time>
      </trkpt>
      <trkpt lat="48.77668" lon="-3.52583">
        <ele>28</ele>
        <time>2015-11-13T13:57:23Z</time>
      </trkpt>
      <trkpt lat="48.77677" lon="-3.52595">
        <ele>27</ele>
        <time>2015-11-13T13:57:24Z</time>
      </trkpt>
      <trkpt lat="48.77685" lon="-3.52606">
        <ele>26</ele>
        <time>2015-11-13T13:57:25Z</time>
      </trkpt>
      <trkpt lat="48.77693" lon="-3.52616">
        <ele>25</ele>
        <time>2015-11-13T13:57:26Z</time>
      </trkpt>
      <trkpt lat="48.77701" lon="-3.52626">
        <ele>24</ele>
        <time>2015-11-13T13:57:27Z</time>
      </trkpt>
      <trkpt lat="48.77709" lon="-3.52634">
        <ele>24</ele>
        <time>2015-11-13T13:57:28Z</time>
      </trkpt>
      <trkpt lat="48.77717" lon="-3.52643">
        <ele>23</ele>
        <time>2015-11-13T13:57:29Z</time>
      </trkpt>
      <trkpt lat="48.77725" lon="-3.52651">
        <ele>22</ele>
        <time>2015-11-13T13:57:30Z</time>
      </trkpt>
      <trkpt lat="48.77734" lon="-3.52658">
        <ele>21</ele>
        <time>2015-11-13T13:57:31Z</time>
      </trkpt>
      <trkpt lat="48.77778" lon="-3.52694">
        <ele>20</ele>
        <time>2015-11-13T13:57:36Z</time>
      </trkpt>
      <trkpt lat="48.77786" lon="-3.527">
        <ele>19</ele>
        <time>2015-11-13T13:57:37Z</time>
      </trkpt>
      <trkpt lat="48.77795" lon="-3.52706">
        <ele>19</ele>
        <time>2015-11-13T13:57:38Z</time>
      </trkpt>
      <trkpt lat="48.77804" lon="-3.52711">
        <ele>18</ele>
        <time>2015-11-13T13:57:39Z</time>
      </trkpt>
      <trkpt lat="48.77814" lon="-3.52716">
        <ele>17</ele>
        <time>2015-11-13T13:57:40Z</time>
      </trkpt>
      <trkpt lat="48.77823" lon="-3.52721">
        <ele>17</ele>
        <time>2015-11-13T13:57:41Z</time>
      </trkpt>
      <trkpt lat="48.77832" lon="-3.52725">
        <ele>16</ele>
        <time>2015-11-13T13:57:42Z</time>
      </trkpt>
      <trkpt lat="48.77849" lon="-3.52734">
        <ele>15</ele>
        <time>2015-11-13T13:57:44Z</time>
      </trkpt>
      <trkpt lat="48.77867" lon="-3.52742">
        <ele>15</ele>
        <time>2015-11-13T13:57:46Z</time>
      </trkpt>
      <trkpt lat="48.77876" lon="-3.52746">
        <ele>14</ele>
        <time>2015-11-13T13:57:47Z</time>
      </trkpt>
      <trkpt lat="48.77893" lon="-3.52754">
        <ele>13</ele>
        <time>2015-11-13T13:57:49Z</time>
      </trkpt>
      <trkpt lat="48.7791" lon="-3.52761">
        <ele>12</ele>
        <time>2015-11-13T13:57:51Z</time>
      </trkpt>
      <trkpt lat="48.77925" lon="-3.52769">
        <ele>11</ele>
        <time>2015-11-13T13:57:53Z</time>
      </trkpt>
      <trkpt lat="48.77946" lon="-3.52779">
        <ele>10</ele>
        <time>2015-11-13T13:57:56Z</time>
      </trkpt>
      <trkpt lat="48.77961" lon="-3.52786">
        <ele>8</ele>
        <time>2015-11-13T13:57:58Z</time>
      </trkpt>
      <trkpt lat="48.77976" lon="-3.52794">
        <ele>8</ele>
        <time>2015-11-13T13:58:00Z</time>
      </trkpt>
      <trkpt lat="48.7799" lon="-3.52801">
        <ele>7</ele>
        <time>2015-11-13T13:58:02Z</time>
      </trkpt>
      <trkpt lat="48.78005" lon="-3.52809">
        <ele>6</ele>
        <time>2015-11-13T13:58:04Z</time>
      </trkpt>
      <trkpt lat="48.7802" lon="-3.52816">
        <ele>4</ele>
        <time>2015-11-13T13:58:06Z</time>
      </trkpt>
      <trkpt lat="48.78034" lon="-3.52822">
        <ele>4</ele>
        <time>2015-11-13T13:58:08Z</time>
      </trkpt>
      <trkpt lat="48.78049" lon="-3.52829">
        <ele>3</ele>
        <time>2015-11-13T13:58:10Z</time>
      </trkpt>
      <trkpt lat="48.78063" lon="-3.52836">
        <ele>2</ele>
        <time>2015-11-13T13:58:12Z</time>
      </trkpt>
      <trkpt lat="48.78078" lon="-3.52835">
        <ele>1</ele>
        <time>2015-11-13T13:58:14Z</time>
      </trkpt>
      <trkpt lat="48.78092" lon="-3.52825">
        <ele>1</ele>
        <time>2015-11-13T13:58:16Z</time>
      </trkpt>
      <trkpt lat="48.78104" lon="-3.52809">
        <ele>1</ele>
        <time>2015-11-13T13:58:18Z</time>
      </trkpt>
      <trkpt lat="48.78114" lon="-3.52792">
        <ele>38</ele>
        <time>2015-11-13T13:58:20Z</time>
      </trkpt>
      <trkpt lat="48.78124" lon="-3.52773">
        <ele>-1</ele>
        <time>2015-11-13T13:58:22Z</time>
      </trkpt>
      <trkpt lat="48.78136" lon="-3.52745">
        <ele>-2</ele>
        <time>2015-11-13T13:58:25Z</time>
      </trkpt>
      <trkpt lat="48.78143" lon="-3.52726">
        <ele>-2</ele>
        <time>2015-11-13T13:58:27Z</time>
      </trkpt>
      <trkpt lat="48.78148" lon="-3.52708">
        <ele>-3</ele>
        <time>2015-11-13T13:58:29Z</time>
      </trkpt>
      <trkpt lat="48.78155" lon="-3.52681">
        <ele>-4</ele>
        <time>2015-11-13T13:58:32Z</time>
      </trkpt>
      <trkpt lat="48.78159" lon="-3.52665">
        <ele>-4</ele>
        <time>2015-11-13T13:58:34Z</time>
      </trkpt>
      <trkpt lat="48.78164" lon="-3.52641">
        <ele>-5</ele>
        <time>2015-11-13T13:58:37Z</time>
      </trkpt>
      <trkpt lat="48.78169" lon="-3.52619">
        <ele>-5</ele>
        <time>2015-11-13T13:58:40Z</time>
      </trkpt>
      <trkpt lat="48.78175" lon="-3.52589">
        <ele>-5</ele>
        <time>2015-11-13T13:58:44Z</time>
      </trkpt>
      <trkpt lat="48.78181" lon="-3.5256">
        <ele>-5</ele>
        <time>2015-11-13T13:58:48Z</time>
      </trkpt>
      <trkpt lat="48.78188" lon="-3.52532">
        <ele>-6</ele>
        <time>2015-11-13T13:58:52Z</time>
      </trkpt>
      <trkpt lat="48.78191" lon="-3.52517">
        <ele>-6</ele>
        <time>2015-11-13T13:58:54Z</time>
      </trkpt>
      <trkpt lat="48.78198" lon="-3.52488">
        <ele>-6</ele>
        <time>2015-11-13T13:58:58Z</time>
      </trkpt>
      <trkpt lat="48.78203" lon="-3.52466">
        <ele>-6</ele>
        <time>2015-11-13T13:59:01Z</time>
      </trkpt>
      <trkpt lat="48.78206" lon="-3.52451">
        <ele>-6</ele>
        <time>2015-11-13T13:59:03Z</time>
      </trkpt>
      <trkpt lat="48.78212" lon="-3.52428">
        <ele>-7</ele>
        <time>2015-11-13T13:59:06Z</time>
      </trkpt>
      <trkpt lat="48.78217" lon="-3.52402">
        <ele>-7</ele>
        <time>2015-11-13T13:59:09Z</time>
      </trkpt>
      <trkpt lat="48.78222" lon="-3.52372">
        <ele>-7</ele>
        <time>2015-11-13T13:59:12Z</time>
      </trkpt>
      <trkpt lat="48.78229" lon="-3.52312">
        <ele>-7</ele>
        <time>2015-11-13T13:59:17Z</time>
      </trkpt>
      <trkpt lat="48.7823" lon="-3.52298">
        <ele>-7</ele>
        <time>2015-11-13T13:59:18Z</time>
      </trkpt>
      <trkpt lat="48.78231" lon="-3.52284">
        <ele>-7</ele>
        <time>2015-11-13T13:59:19Z</time>
      </trkpt>
      <trkpt lat="48.78232" lon="-3.52254">
        <ele>-7</ele>
        <time>2015-11-13T13:59:21Z</time>
      </trkpt>
      <trkpt lat="48.78233" lon="-3.52239">
        <ele>-7</ele>
        <time>2015-11-13T13:59:22Z</time>
      </trkpt>
      <trkpt lat="48.78233" lon="-3.52224">
        <ele>-7</ele>
        <time>2015-11-13T13:59:23Z</time>
      </trkpt>
      <trkpt lat="48.78234" lon="-3.5221">
        <ele>-7</ele>
        <time>2015-11-13T13:59:24Z</time>
      </trkpt>
      <trkpt lat="48.78237" lon="-3.5218">
        <ele>-7</ele>
        <time>2015-11-13T13:59:26Z</time>
      </trkpt>
      <trkpt lat="48.78242" lon="-3.52151">
        <ele>-7</ele>
        <time>2015-11-13T13:59:28Z</time>
      </trkpt>
      <trkpt lat="48.78278" lon="-3.52071">
        <ele>30.4</ele>
        <time>2015-11-13T13:59:35Z</time>
      </trkpt>
      <trkpt lat="48.78361" lon="-3.51969">
        <ele>-14</ele>
        <time>2015-11-13T14:00:11Z</time>
      </trkpt>
      <trkpt lat="48.78368" lon="-3.51961">
        <ele>-14</ele>
        <time>2015-11-13T14:00:17Z</time>
      </trkpt>
      <trkpt lat="48.78376" lon="-3.51952">
        <ele>-14</ele>
        <time>2015-11-13T14:00:23Z</time>
      </trkpt>
      <trkpt lat="48.78389" lon="-3.51938">
        <ele>-13</ele>
        <time>2015-11-13T14:00:33Z</time>
      </trkpt>
      <trkpt lat="48.78396" lon="-3.5193">
        <ele>-13</ele>
        <time>2015-11-13T14:00:39Z</time>
      </trkpt>
      <trkpt lat="48.78404" lon="-3.51924">
        <ele>-12</ele>
        <time>2015-11-13T14:00:45Z</time>
      </trkpt>
      <trkpt lat="48.78419" lon="-3.51912">
        <ele>-11</ele>
        <time>2015-11-13T14:00:56Z</time>
      </trkpt>
      <trkpt lat="48.78427" lon="-3.51906">
        <ele>-10</ele>
        <time>2015-11-13T14:01:01Z</time>
      </trkpt>
      <trkpt lat="48.78442" lon="-3.51897">
        <ele>-9</ele>
        <time>2015-11-13T14:01:09Z</time>
      </trkpt>
      <trkpt lat="48.78461" lon="-3.5189">
        <ele>-9</ele>
        <time>2015-11-13T14:01:16Z</time>
      </trkpt>
      <trkpt lat="48.7847" lon="-3.51888">
        <ele>-8</ele>
        <time>2015-11-13T14:01:19Z</time>
      </trkpt>
      <trkpt lat="48.78481" lon="-3.51887">
        <ele>-7</ele>
        <time>2015-11-13T14:01:22Z</time>
      </trkpt>
      <trkpt lat="48.78498" lon="-3.51889">
        <ele>-6</ele>
        <time>2015-11-13T14:01:27Z</time>
      </trkpt>
      <trkpt lat="48.78508" lon="-3.51891">
        <ele>-6</ele>
        <time>2015-11-13T14:01:30Z</time>
      </trkpt>
      <trkpt lat="48.78519" lon="-3.51893">
        <ele>-5</ele>
        <time>2015-11-13T14:01:33Z</time>
      </trkpt>
      <trkpt lat="48.7853" lon="-3.51896">
        <ele>-4</ele>
        <time>2015-11-13T14:01:36Z</time>
      </trkpt>
      <trkpt lat="48.78545" lon="-3.51904">
        <ele>-4</ele>
        <time>2015-11-13T14:01:40Z</time>
      </trkpt>
      <trkpt lat="48.78561" lon="-3.51914">
        <ele>-4</ele>
        <time>2015-11-13T14:01:44Z</time>
      </trkpt>
      <trkpt lat="48.78577" lon="-3.51928">
        <ele>-4</ele>
        <time>2015-11-13T14:01:48Z</time>
      </trkpt>
      <trkpt lat="48.78595" lon="-3.51943">
        <ele>-3</ele>
        <time>2015-11-13T14:01:52Z</time>
      </trkpt>
      <trkpt lat="48.7861" lon="-3.51955">
        <ele>-3</ele>
        <time>2015-11-13T14:01:55Z</time>
      </trkpt>
      <trkpt lat="48.78619" lon="-3.51964">
        <ele>-3</ele>
        <time>2015-11-13T14:01:57Z</time>
      </trkpt>
      <trkpt lat="48.78629" lon="-3.51973">
        <ele>-3</ele>
        <time>2015-11-13T14:01:59Z</time>
      </trkpt>
      <trkpt lat="48.78645" lon="-3.51987">
        <ele>-3</ele>
        <time>2015-11-13T14:02:02Z</time>
      </trkpt>
      <trkpt lat="48.78672" lon="-3.52009">
        <ele>-3</ele>
        <time>2015-11-13T14:02:07Z</time>
      </trkpt>
      <trkpt lat="48.78687" lon="-3.52024">
        <ele>-3</ele>
        <time>2015-11-13T14:02:10Z</time>
      </trkpt>
      <trkpt lat="48.78702" lon="-3.52038">
        <ele>-4</ele>
        <time>2015-11-13T14:02:13Z</time>
      </trkpt>
      <trkpt lat="48.78737" lon="-3.52057">
        <ele>-4</ele>
        <time>2015-11-13T14:02:20Z</time>
      </trkpt>
      <trkpt lat="48.78779" lon="-3.52041">
        <ele>44</ele>
        <time>2015-11-13T14:02:30Z</time>
      </trkpt>
      <trkpt lat="48.78819" lon="-3.52017">
        <ele>43.2</ele>
        <time>2015-11-13T14:02:39Z</time>
      </trkpt>
      <trkpt lat="48.78921" lon="-3.52032">
        <ele>-4</ele>
        <time>2015-11-13T14:02:51Z</time>
      </trkpt>
      <trkpt lat="48.7894" lon="-3.52035">
        <ele>-5</ele>
        <time>2015-11-13T14:02:54Z</time>
      </trkpt>
      <trkpt lat="48.78984" lon="-3.52048">
        <ele>-5</ele>
        <time>2015-11-13T14:03:00Z</time>
      </trkpt>
      <trkpt lat="48.79172" lon="-3.52121">
        <ele>-5</ele>
        <time>2015-11-13T14:03:30Z</time>
      </trkpt>
      <trkpt lat="48.79248" lon="-3.5214">
        <ele>-7</ele>
        <time>2015-11-13T14:03:42Z</time>
      </trkpt>
      <trkpt lat="48.79325" lon="-3.52142">
        <ele>-8</ele>
        <time>2015-11-13T14:03:54Z</time>
      </trkpt>
      <trkpt lat="48.79344" lon="-3.52141">
        <ele>-9</ele>
        <time>2015-11-13T14:03:56Z</time>
      </trkpt>
      <trkpt lat="48.79364" lon="-3.52138">
        <ele>-11</ele>
        <time>2015-11-13T14:03:59Z</time>
      </trkpt>
      <trkpt lat="48.79386" lon="-3.52139">
        <ele>-12</ele>
        <time>2015-11-13T14:04:02Z</time>
      </trkpt>
      <trkpt lat="48.7941" lon="-3.52149">
        <ele>-13</ele>
        <time>2015-11-13T14:04:06Z</time>
      </trkpt>
      <trkpt lat="48.7943" lon="-3.52162">
        <ele>-15</ele>
        <time>2015-11-13T14:04:09Z</time>
      </trkpt>
      <trkpt lat="48.7945" lon="-3.52177">
        <ele>-16</ele>
        <time>2015-11-13T14:04:12Z</time>
      </trkpt>
      <trkpt lat="48.79467" lon="-3.52191">
        <ele>-18</ele>
        <time>2015-11-13T14:04:15Z</time>
      </trkpt>
      <trkpt lat="48.79477" lon="-3.522">
        <ele>-19</ele>
        <time>2015-11-13T14:04:17Z</time>
      </trkpt>
      <trkpt lat="48.79491" lon="-3.52214">
        <ele>-20</ele>
        <time>2015-11-13T14:04:20Z</time>
      </trkpt>
      <trkpt lat="48.795" lon="-3.52223">
        <ele>-20</ele>
        <time>2015-11-13T14:04:22Z</time>
      </trkpt>
      <trkpt lat="48.79513" lon="-3.52235">
        <ele>-20</ele>
        <time>2015-11-13T14:04:25Z</time>
      </trkpt>
      <trkpt lat="48.7953" lon="-3.52248">
        <ele>-20</ele>
        <time>2015-11-13T14:04:29Z</time>
      </trkpt>
      <trkpt lat="48.79538" lon="-3.52252">
        <ele>-20</ele>
        <time>2015-11-13T14:04:31Z</time>
      </trkpt>
      <trkpt lat="48.79553" lon="-3.5226">
        <ele>-20</ele>
        <time>2015-11-13T14:04:35Z</time>
      </trkpt>
      <trkpt lat="48.79569" lon="-3.52266">
        <ele>-19</ele>
        <time>2015-11-13T14:04:39Z</time>
      </trkpt>
      <trkpt lat="48.79586" lon="-3.52269">
        <ele>-19</ele>
        <time>2015-11-13T14:04:44Z</time>
      </trkpt>
      <trkpt lat="48.79594" lon="-3.52271">
        <ele>-19</ele>
        <time>2015-11-13T14:04:47Z</time>
      </trkpt>
      <trkpt lat="48.79612" lon="-3.52277">
        <ele>-19</ele>
        <time>2015-11-13T14:04:53Z</time>
      </trkpt>
      <trkpt lat="48.79635" lon="-3.52282">
        <ele>-19</ele>
        <time>2015-11-13T14:04:58Z</time>
      </trkpt>
      <trkpt lat="48.79647" lon="-3.52279">
        <ele>-19</ele>
        <time>2015-11-13T14:05:00Z</time>
      </trkpt>
      <trkpt lat="48.79673" lon="-3.52255">
        <ele>-19</ele>
        <time>2015-11-13T14:05:05Z</time>
      </trkpt>
      <trkpt lat="48.79691" lon="-3.52251">
        <ele>-19</ele>
        <time>2015-11-13T14:05:08Z</time>
      </trkpt>
      <trkpt lat="48.79707" lon="-3.52253">
        <ele>-19</ele>
        <time>2015-11-13T14:05:10Z</time>
      </trkpt>
      <trkpt lat="48.79724" lon="-3.52256">
        <ele>-19</ele>
        <time>2015-11-13T14:05:12Z</time>
      </trkpt>
      <trkpt lat="48.79741" lon="-3.52258">
        <ele>-19</ele>
        <time>2015-11-13T14:05:14Z</time>
      </trkpt>
      <trkpt lat="48.79758" lon="-3.5226">
        <ele>-20</ele>
        <time>2015-11-13T14:05:16Z</time>
      </trkpt>
      <trkpt lat="48.79774" lon="-3.52262">
        <ele>-20</ele>
        <time>2015-11-13T14:05:18Z</time>
      </trkpt>
      <trkpt lat="48.7979" lon="-3.52264">
        <ele>-20</ele>
        <time>2015-11-13T14:05:20Z</time>
      </trkpt>
      <trkpt lat="48.79806" lon="-3.52265">
        <ele>-20</ele>
        <time>2015-11-13T14:05:22Z</time>
      </trkpt>
      <trkpt lat="48.79829" lon="-3.52263">
        <ele>-21</ele>
        <time>2015-11-13T14:05:25Z</time>
      </trkpt>
      <trkpt lat="48.7985" lon="-3.52259">
        <ele>-21</ele>
        <time>2015-11-13T14:05:28Z</time>
      </trkpt>
      <trkpt lat="48.79867" lon="-3.52257">
        <ele>-21</ele>
        <time>2015-11-13T14:05:31Z</time>
      </trkpt>
      <trkpt lat="48.79876" lon="-3.52257">
        <ele>-21</ele>
        <time>2015-11-13T14:05:33Z</time>
      </trkpt>
      <trkpt lat="48.79892" lon="-3.5226">
        <ele>-21</ele>
        <time>2015-11-13T14:05:37Z</time>
      </trkpt>
      <trkpt lat="48.79908" lon="-3.52261">
        <ele>-21</ele>
        <time>2015-11-13T14:05:41Z</time>
      </trkpt>
      <trkpt lat="48.7992" lon="-3.52262">
        <ele>-20</ele>
        <time>2015-11-13T14:05:44Z</time>
      </trkpt>
      <trkpt lat="48.79939" lon="-3.52262">
        <ele>-20</ele>
        <time>2015-11-13T14:05:49Z</time>
      </trkpt>
      <trkpt lat="48.79954" lon="-3.52263">
        <ele>-20</ele>
        <time>2015-11-13T14:05:53Z</time>
      </trkpt>
      <trkpt lat="48.79971" lon="-3.52264">
        <ele>-20</ele>
        <time>2015-11-13T14:05:57Z</time>
      </trkpt>
      <trkpt lat="48.79993" lon="-3.52264">
        <ele>-20</ele>
        <time>2015-11-13T14:06:02Z</time>
      </trkpt>
      <trkpt lat="48.80012" lon="-3.52264">
        <ele>-20</ele>
        <time>2015-11-13T14:06:06Z</time>
      </trkpt>
      <trkpt lat="48.80031" lon="-3.52263">
        <ele>-20</ele>
        <time>2015-11-13T14:06:10Z</time>
      </trkpt>
      <trkpt lat="48.8005" lon="-3.52264">
        <ele>-20</ele>
        <time>2015-11-13T14:06:14Z</time>
      </trkpt>
      <trkpt lat="48.80063" lon="-3.52263">
        <ele>-19</ele>
        <time>2015-11-13T14:06:17Z</time>
      </trkpt>
      <trkpt lat="48.80091" lon="-3.52262">
        <ele>-19</ele>
        <time>2015-11-13T14:06:24Z</time>
      </trkpt>
      <trkpt lat="48.80125" lon="-3.52255">
        <ele>-19</ele>
        <time>2015-11-13T14:06:33Z</time>
      </trkpt>
      <trkpt lat="48.80146" lon="-3.52248">
        <ele>-19</ele>
        <time>2015-11-13T14:06:39Z</time>
      </trkpt>
      <trkpt lat="48.80169" lon="-3.52246">
        <ele>-19</ele>
        <time>2015-11-13T14:06:44Z</time>
      </trkpt>
      <trkpt lat="48.80178" lon="-3.52245">
        <ele>-19</ele>
        <time>2015-11-13T14:06:46Z</time>
      </trkpt>
      <trkpt lat="48.80205" lon="-3.52238">
        <ele>-19</ele>
        <time>2015-11-13T14:06:52Z</time>
      </trkpt>
      <trkpt lat="48.80222" lon="-3.52237">
        <ele>-18</ele>
        <time>2015-11-13T14:06:56Z</time>
      </trkpt>
      <trkpt lat="48.80237" lon="-3.5224">
        <ele>-18</ele>
        <time>2015-11-13T14:06:59Z</time>
      </trkpt>
      <trkpt lat="48.80266" lon="-3.52248">
        <ele>-18</ele>
        <time>2015-11-13T14:07:05Z</time>
      </trkpt>
      <trkpt lat="48.80281" lon="-3.52252">
        <ele>-18</ele>
        <time>2015-11-13T14:07:08Z</time>
      </trkpt>
      <trkpt lat="48.80299" lon="-3.5226">
        <ele>-17</ele>
        <time>2015-11-13T14:07:12Z</time>
      </trkpt>
      <trkpt lat="48.80316" lon="-3.52276">
        <ele>-17</ele>
        <time>2015-11-13T14:07:16Z</time>
      </trkpt>
      <trkpt lat="48.80333" lon="-3.52302">
        <ele>-17</ele>
        <time>2015-11-13T14:07:21Z</time>
      </trkpt>
      <trkpt lat="48.80349" lon="-3.52328">
        <ele>-17</ele>
        <time>2015-11-13T14:07:26Z</time>
      </trkpt>
      <trkpt lat="48.8037" lon="-3.52354">
        <ele>-17</ele>
        <time>2015-11-13T14:07:32Z</time>
      </trkpt>
      <trkpt lat="48.80384" lon="-3.52365">
        <ele>-17</ele>
        <time>2015-11-13T14:07:36Z</time>
      </trkpt>
      <trkpt lat="48.80398" lon="-3.52379">
        <ele>-17</ele>
        <time>2015-11-13T14:07:40Z</time>
      </trkpt>
      <trkpt lat="48.80419" lon="-3.5242">
        <ele>-17</ele>
        <time>2015-11-13T14:07:47Z</time>
      </trkpt>
      <trkpt lat="48.80426" lon="-3.52441">
        <ele>-17</ele>
        <time>2015-11-13T14:07:50Z</time>
      </trkpt>
      <trkpt lat="48.80434" lon="-3.52462">
        <ele>-17</ele>
        <time>2015-11-13T14:07:53Z</time>
      </trkpt>
      <trkpt lat="48.80443" lon="-3.52481">
        <ele>-17</ele>
        <time>2015-11-13T14:07:56Z</time>
      </trkpt>
      <trkpt lat="48.80454" lon="-3.52498">
        <ele>-17</ele>
        <time>2015-11-13T14:07:59Z</time>
      </trkpt>
      <trkpt lat="48.80471" lon="-3.52519">
        <ele>-17</ele>
        <time>2015-11-13T14:08:04Z</time>
      </trkpt>
      <trkpt lat="48.8054" lon="-3.52617">
        <ele>-17</ele>
        <time>2015-11-13T14:08:23Z</time>
      </trkpt>
      <trkpt lat="48.80557" lon="-3.52619">
        <ele>-18</ele>
        <time>2015-11-13T14:08:26Z</time>
      </trkpt>
      <trkpt lat="48.8057" lon="-3.52602">
        <ele>-18</ele>
        <time>2015-11-13T14:08:30Z</time>
      </trkpt>
      <trkpt lat="48.80575" lon="-3.52585">
        <ele>-18</ele>
        <time>2015-11-13T14:08:34Z</time>
      </trkpt>
      <trkpt lat="48.80589" lon="-3.52576">
        <ele>-18</ele>
        <time>2015-11-13T14:08:40Z</time>
      </trkpt>
      <trkpt lat="48.80605" lon="-3.52584">
        <ele>-18</ele>
        <time>2015-11-13T14:08:45Z</time>
      </trkpt>
      <trkpt lat="48.80615" lon="-3.52589">
        <ele>-18</ele>
        <time>2015-11-13T14:08:48Z</time>
      </trkpt>
      <trkpt lat="48.80632" lon="-3.52598">
        <ele>-17</ele>
        <time>2015-11-13T14:08:53Z</time>
      </trkpt>
      <trkpt lat="48.80646" lon="-3.52605">
        <ele>-17</ele>
        <time>2015-11-13T14:08:57Z</time>
      </trkpt>
      <trkpt lat="48.80662" lon="-3.52614">
        <ele>-16</ele>
        <time>2015-11-13T14:09:01Z</time>
      </trkpt>
      <trkpt lat="48.80678" lon="-3.52624">
        <ele>-16</ele>
        <time>2015-11-13T14:09:05Z</time>
      </trkpt>
      <trkpt lat="48.8069" lon="-3.52631">
        <ele>-16</ele>
        <time>2015-11-13T14:09:08Z</time>
      </trkpt>
      <trkpt lat="48.80708" lon="-3.52644">
        <ele>-15</ele>
        <time>2015-11-13T14:09:12Z</time>
      </trkpt>
      <trkpt lat="48.8072" lon="-3.52652">
        <ele>-15</ele>
        <time>2015-11-13T14:09:14Z</time>
      </trkpt>
      <trkpt lat="48.80731" lon="-3.52662">
        <ele>-15</ele>
        <time>2015-11-13T14:09:16Z</time>
      </trkpt>
      <trkpt lat="48.80741" lon="-3.52673">
        <ele>-15</ele>
        <time>2015-11-13T14:09:18Z</time>
      </trkpt>
      <trkpt lat="48.80755" lon="-3.52689">
        <ele>-15</ele>
        <time>2015-11-13T14:09:21Z</time>
      </trkpt>
      <trkpt lat="48.80763" lon="-3.527">
        <ele>-15</ele>
        <time>2015-11-13T14:09:23Z</time>
      </trkpt>
      <trkpt lat="48.80771" lon="-3.5271">
        <ele>-15</ele>
        <time>2015-11-13T14:09:25Z</time>
      </trkpt>
      <trkpt lat="48.80779" lon="-3.52719">
        <ele>-15</ele>
        <time>2015-11-13T14:09:27Z</time>
      </trkpt>
      <trkpt lat="48.80788" lon="-3.52722">
        <ele>-14</ele>
        <time>2015-11-13T14:09:29Z</time>
      </trkpt>
      <trkpt lat="48.80806" lon="-3.52708">
        <ele>-15</ele>
        <time>2015-11-13T14:09:33Z</time>
      </trkpt>
      <trkpt lat="48.80816" lon="-3.52699">
        <ele>-15</ele>
        <time>2015-11-13T14:09:35Z</time>
      </trkpt>
      <trkpt lat="48.80825" lon="-3.52683">
        <ele>-15</ele>
        <time>2015-11-13T14:09:37Z</time>
      </trkpt>
      <trkpt lat="48.8083" lon="-3.52671">
        <ele>-15</ele>
        <time>2015-11-13T14:09:38Z</time>
      </trkpt>
      <trkpt lat="48.80835" lon="-3.52658">
        <ele>-15</ele>
        <time>2015-11-13T14:09:39Z</time>
      </trkpt>
      <trkpt lat="48.80838" lon="-3.52644">
        <ele>-15</ele>
        <time>2015-11-13T14:09:40Z</time>
      </trkpt>
      <trkpt lat="48.80842" lon="-3.52631">
        <ele>-15</ele>
        <time>2015-11-13T14:09:41Z</time>
      </trkpt>
      <trkpt lat="48.80846" lon="-3.52618">
        <ele>-15</ele>
        <time>2015-11-13T14:09:42Z</time>
      </trkpt>
      <trkpt lat="48.80852" lon="-3.52605">
        <ele>-15</ele>
        <time>2015-11-13T14:09:43Z</time>
      </trkpt>
      <trkpt lat="48.8086" lon="-3.52595">
        <ele>-15</ele>
        <time>2015-11-13T14:09:44Z</time>
      </trkpt>
      <trkpt lat="48.80877" lon="-3.52575">
        <ele>-15</ele>
        <time>2015-11-13T14:09:46Z</time>
      </trkpt>
      <trkpt lat="48.80887" lon="-3.52567">
        <ele>-16</ele>
        <time>2015-11-13T14:09:47Z</time>
      </trkpt>
      <trkpt lat="48.80898" lon="-3.5256">
        <ele>-16</ele>
        <time>2015-11-13T14:09:48Z</time>
      </trkpt>
      <trkpt lat="48.80908" lon="-3.52554">
        <ele>-16</ele>
        <time>2015-11-13T14:09:49Z</time>
      </trkpt>
      <trkpt lat="48.80919" lon="-3.52548">
        <ele>-16</ele>
        <time>2015-11-13T14:09:50Z</time>
      </trkpt>
      <trkpt lat="48.80928" lon="-3.52542">
        <ele>-16</ele>
        <time>2015-11-13T14:09:51Z</time>
      </trkpt>
      <trkpt lat="48.80938" lon="-3.52537">
        <ele>-16</ele>
        <time>2015-11-13T14:09:52Z</time>
      </trkpt>
      <trkpt lat="48.80947" lon="-3.52532">
        <ele>-16</ele>
        <time>2015-11-13T14:09:53Z</time>
      </trkpt>
      <trkpt lat="48.80957" lon="-3.52528">
        <ele>-16</ele>
        <time>2015-11-13T14:09:54Z</time>
      </trkpt>
      <trkpt lat="48.80976" lon="-3.52527">
        <ele>-16</ele>
        <time>2015-11-13T14:09:56Z</time>
      </trkpt>
      <trkpt lat="48.80985" lon="-3.52528">
        <ele>-17</ele>
        <time>2015-11-13T14:09:57Z</time>
      </trkpt>
      <trkpt lat="48.80994" lon="-3.52529">
        <ele>-17</ele>
        <time>2015-11-13T14:09:58Z</time>
      </trkpt>
      <trkpt lat="48.81003" lon="-3.5253">
        <ele>-17</ele>
        <time>2015-11-13T14:09:59Z</time>
      </trkpt>
      <trkpt lat="48.81021" lon="-3.52531">
        <ele>-17</ele>
        <time>2015-11-13T14:10:01Z</time>
      </trkpt>
      <trkpt lat="48.81036" lon="-3.52525">
        <ele>-17</ele>
        <time>2015-11-13T14:10:03Z</time>
      </trkpt>
      <trkpt lat="48.81046" lon="-3.52516">
        <ele>-18</ele>
        <time>2015-11-13T14:10:05Z</time>
      </trkpt>
      <trkpt lat="48.81049" lon="-3.52503">
        <ele>-19</ele>
        <time>2015-11-13T14:10:07Z</time>
      </trkpt>
      <trkpt lat="48.81048" lon="-3.52489">
        <ele>-19</ele>
        <time>2015-11-13T14:10:09Z</time>
      </trkpt>
      <trkpt lat="48.81047" lon="-3.52477">
        <ele>-20</ele>
        <time>2015-11-13T14:10:11Z</time>
      </trkpt>
      <trkpt lat="48.81046" lon="-3.52452">
        <ele>-20</ele>
        <time>2015-11-13T14:10:16Z</time>
      </trkpt>
      <trkpt lat="48.81047" lon="-3.52433">
        <ele>-21</ele>
        <time>2015-11-13T14:10:22Z</time>
      </trkpt>
      <trkpt lat="48.81049" lon="-3.52416">
        <ele>-22</ele>
        <time>2015-11-13T14:10:28Z</time>
      </trkpt>
      <trkpt lat="48.81051" lon="-3.52401">
        <ele>-22</ele>
        <time>2015-11-13T14:10:33Z</time>
      </trkpt>
      <trkpt lat="48.81054" lon="-3.52378">
        <ele>-23</ele>
        <time>2015-11-13T14:10:39Z</time>
      </trkpt>
      <trkpt lat="48.81056" lon="-3.52363">
        <ele>-23</ele>
        <time>2015-11-13T14:10:43Z</time>
      </trkpt>
      <trkpt lat="48.81062" lon="-3.52339">
        <ele>-23</ele>
        <time>2015-11-13T14:10:50Z</time>
      </trkpt>
      <trkpt lat="48.8107" lon="-3.52316">
        <ele>-23</ele>
        <time>2015-11-13T14:10:56Z</time>
      </trkpt>
      <trkpt lat="48.81073" lon="-3.52287">
        <ele>-24</ele>
        <time>2015-11-13T14:11:03Z</time>
      </trkpt>
      <trkpt lat="48.81077" lon="-3.52261">
        <ele>-24</ele>
        <time>2015-11-13T14:11:10Z</time>
      </trkpt>
      <trkpt lat="48.81078" lon="-3.52236">
        <ele>-24</ele>
        <time>2015-11-13T14:11:15Z</time>
      </trkpt>
      <trkpt lat="48.81078" lon="-3.52212">
        <ele>-24</ele>
        <time>2015-11-13T14:11:20Z</time>
      </trkpt>
      <trkpt lat="48.8108" lon="-3.52188">
        <ele>-23</ele>
        <time>2015-11-13T14:11:25Z</time>
      </trkpt>
      <trkpt lat="48.81082" lon="-3.52157">
        <ele>-23</ele>
        <time>2015-11-13T14:11:31Z</time>
      </trkpt>
      <trkpt lat="48.81084" lon="-3.5213">
        <ele>-23</ele>
        <time>2015-11-13T14:11:36Z</time>
      </trkpt>
      <trkpt lat="48.81086" lon="-3.5211">
        <ele>-23</ele>
        <time>2015-11-13T14:11:40Z</time>
      </trkpt>
      <trkpt lat="48.81087" lon="-3.52089">
        <ele>-22</ele>
        <time>2015-11-13T14:11:44Z</time>
      </trkpt>
      <trkpt lat="48.81088" lon="-3.52061">
        <ele>-22</ele>
        <time>2015-11-13T14:11:49Z</time>
      </trkpt>
      <trkpt lat="48.81088" lon="-3.52044">
        <ele>-22</ele>
        <time>2015-11-13T14:11:52Z</time>
      </trkpt>
      <trkpt lat="48.81088" lon="-3.52017">
        <ele>-21</ele>
        <time>2015-11-13T14:11:57Z</time>
      </trkpt>
      <trkpt lat="48.81086" lon="-3.51996">
        <ele>-21</ele>
        <time>2015-11-13T14:12:01Z</time>
      </trkpt>
      <trkpt lat="48.81093" lon="-3.51975">
        <ele>-20</ele>
        <time>2015-11-13T14:12:07Z</time>
      </trkpt>
      <trkpt lat="48.81114" lon="-3.51973">
        <ele>-20</ele>
        <time>2015-11-13T14:12:11Z</time>
      </trkpt>
      <trkpt lat="48.81127" lon="-3.51971">
        <ele>-20</ele>
        <time>2015-11-13T14:12:13Z</time>
      </trkpt>
      <trkpt lat="48.81142" lon="-3.51961">
        <ele>-20</ele>
        <time>2015-11-13T14:12:15Z</time>
      </trkpt>
      <trkpt lat="48.81165" lon="-3.51945">
        <ele>-20</ele>
        <time>2015-11-13T14:12:18Z</time>
      </trkpt>
      <trkpt lat="48.81182" lon="-3.51938">
        <ele>-20</ele>
        <time>2015-11-13T14:12:20Z</time>
      </trkpt>
      <trkpt lat="48.81192" lon="-3.51934">
        <ele>-20</ele>
        <time>2015-11-13T14:12:21Z</time>
      </trkpt>
      <trkpt lat="48.81202" lon="-3.5193">
        <ele>-20</ele>
        <time>2015-11-13T14:12:22Z</time>
      </trkpt>
      <trkpt lat="48.81212" lon="-3.51926">
        <ele>-20</ele>
        <time>2015-11-13T14:12:23Z</time>
      </trkpt>
      <trkpt lat="48.81221" lon="-3.51921">
        <ele>-20</ele>
        <time>2015-11-13T14:12:24Z</time>
      </trkpt>
      <trkpt lat="48.81231" lon="-3.51917">
        <ele>-20</ele>
        <time>2015-11-13T14:12:25Z</time>
      </trkpt>
      <trkpt lat="48.8124" lon="-3.51914">
        <ele>-20</ele>
        <time>2015-11-13T14:12:26Z</time>
      </trkpt>
      <trkpt lat="48.81258" lon="-3.51907">
        <ele>-20</ele>
        <time>2015-11-13T14:12:28Z</time>
      </trkpt>
      <trkpt lat="48.81275" lon="-3.51901">
        <ele>-20</ele>
        <time>2015-11-13T14:12:30Z</time>
      </trkpt>
      <trkpt lat="48.81291" lon="-3.51895">
        <ele>-21</ele>
        <time>2015-11-13T14:12:32Z</time>
      </trkpt>
      <trkpt lat="48.81306" lon="-3.51889">
        <ele>-21</ele>
        <time>2015-11-13T14:12:34Z</time>
      </trkpt>
      <trkpt lat="48.81321" lon="-3.51881">
        <ele>-21</ele>
        <time>2015-11-13T14:12:36Z</time>
      </trkpt>
      <trkpt lat="48.81335" lon="-3.51873">
        <ele>-21</ele>
        <time>2015-11-13T14:12:38Z</time>
      </trkpt>
      <trkpt lat="48.8135" lon="-3.51864">
        <ele>-22</ele>
        <time>2015-11-13T14:12:40Z</time>
      </trkpt>
      <trkpt lat="48.81365" lon="-3.51854">
        <ele>-22</ele>
        <time>2015-11-13T14:12:42Z</time>
      </trkpt>
      <trkpt lat="48.8138" lon="-3.51843">
        <ele>-22</ele>
        <time>2015-11-13T14:12:44Z</time>
      </trkpt>
      <trkpt lat="48.81395" lon="-3.51832">
        <ele>-23</ele>
        <time>2015-11-13T14:12:46Z</time>
      </trkpt>
      <trkpt lat="48.8141" lon="-3.51821">
        <ele>-23</ele>
        <time>2015-11-13T14:12:48Z</time>
      </trkpt>
      <trkpt lat="48.81424" lon="-3.51807">
        <ele>-23</ele>
        <time>2015-11-13T14:12:50Z</time>
      </trkpt>
      <trkpt lat="48.81438" lon="-3.51792">
        <ele>-24</ele>
        <time>2015-11-13T14:12:52Z</time>
      </trkpt>
      <trkpt lat="48.81455" lon="-3.51768">
        <ele>-24</ele>
        <time>2015-11-13T14:12:55Z</time>
      </trkpt>
      <trkpt lat="48.81465" lon="-3.5175">
        <ele>-24</ele>
        <time>2015-11-13T14:12:57Z</time>
      </trkpt>
      <trkpt lat="48.8148" lon="-3.51725">
        <ele>-25</ele>
        <time>2015-11-13T14:13:00Z</time>
      </trkpt>
      <trkpt lat="48.81495" lon="-3.51703">
        <ele>-25</ele>
        <time>2015-11-13T14:13:03Z</time>
      </trkpt>
      <trkpt lat="48.8151" lon="-3.51679">
        <ele>-26</ele>
        <time>2015-11-13T14:13:06Z</time>
      </trkpt>
      <trkpt lat="48.81526" lon="-3.51655">
        <ele>-27</ele>
        <time>2015-11-13T14:13:09Z</time>
      </trkpt>
      <trkpt lat="48.81537" lon="-3.51639">
        <ele>-27</ele>
        <time>2015-11-13T14:13:11Z</time>
      </trkpt>
      <trkpt lat="48.81555" lon="-3.51618">
        <ele>-28</ele>
        <time>2015-11-13T14:13:14Z</time>
      </trkpt>
      <trkpt lat="48.81573" lon="-3.516">
        <ele>-28</ele>
        <time>2015-11-13T14:13:17Z</time>
      </trkpt>
      <trkpt lat="48.81604" lon="-3.51575">
        <ele>-29</ele>
        <time>2015-11-13T14:13:22Z</time>
      </trkpt>
      <trkpt lat="48.81636" lon="-3.5156">
        <ele>-30</ele>
        <time>2015-11-13T14:13:27Z</time>
      </trkpt>
      <trkpt lat="48.81657" lon="-3.5155">
        <ele>-31</ele>
        <time>2015-11-13T14:13:30Z</time>
      </trkpt>
      <trkpt lat="48.81675" lon="-3.51535">
        <ele>-32</ele>
        <time>2015-11-13T14:13:33Z</time>
      </trkpt>
      <trkpt lat="48.8169" lon="-3.51525">
        <ele>-33</ele>
        <time>2015-11-13T14:13:36Z</time>
      </trkpt>
      <trkpt lat="48.81703" lon="-3.5152">
        <ele>-41</ele>
        <time>2015-11-13T14:14:15Z</time>
      </trkpt>
      <trkpt lat="48.81702" lon="-3.51513">
        <ele>-42</ele>
        <time>2015-11-13T14:15:51Z</time>
      </trkpt>
      <trkpt lat="48.81708" lon="-3.51507">
        <ele>-40</ele>
        <time>2015-11-13T14:16:34Z</time>
      </trkpt>
      <trkpt lat="48.81719" lon="-3.51493">
        <ele>-39</ele>
        <time>2015-11-13T14:16:40Z</time>
      </trkpt>
      <trkpt lat="48.81727" lon="-3.51478">
        <ele>-38</ele>
        <time>2015-11-13T14:16:45Z</time>
      </trkpt>
      <trkpt lat="48.81729" lon="-3.51463">
        <ele>-37</ele>
        <time>2015-11-13T14:16:48Z</time>
      </trkpt>
      <trkpt lat="48.81728" lon="-3.51434">
        <ele>-36</ele>
        <time>2015-11-13T14:16:52Z</time>
      </trkpt>
      <trkpt lat="48.81729" lon="-3.51402">
        <ele>-36</ele>
        <time>2015-11-13T14:16:56Z</time>
      </trkpt>
      <trkpt lat="48.81731" lon="-3.51376">
        <ele>-36</ele>
        <time>2015-11-13T14:16:59Z</time>
      </trkpt>
      <trkpt lat="48.81738" lon="-3.51342">
        <ele>-35</ele>
        <time>2015-11-13T14:17:03Z</time>
      </trkpt>
      <trkpt lat="48.81743" lon="-3.51315">
        <ele>-35</ele>
        <time>2015-11-13T14:17:06Z</time>
      </trkpt>
      <trkpt lat="48.81746" lon="-3.51288">
        <ele>-35</ele>
        <time>2015-11-13T14:17:09Z</time>
      </trkpt>
      <trkpt lat="48.81745" lon="-3.51259">
        <ele>-35</ele>
        <time>2015-11-13T14:17:12Z</time>
      </trkpt>
      <trkpt lat="48.81744" lon="-3.51231">
        <ele>-35</ele>
        <time>2015-11-13T14:17:15Z</time>
      </trkpt>
      <trkpt lat="48.81742" lon="-3.51203">
        <ele>-35</ele>
        <time>2015-11-13T14:17:18Z</time>
      </trkpt>
      <trkpt lat="48.81741" lon="-3.51184">
        <ele>-34</ele>
        <time>2015-11-13T14:17:20Z</time>
      </trkpt>
      <trkpt lat="48.81742" lon="-3.51166">
        <ele>-34</ele>
        <time>2015-11-13T14:17:22Z</time>
      </trkpt>
      <trkpt lat="48.81743" lon="-3.51147">
        <ele>-34</ele>
        <time>2015-11-13T14:17:24Z</time>
      </trkpt>
      <trkpt lat="48.81746" lon="-3.51129">
        <ele>-34</ele>
        <time>2015-11-13T14:17:26Z</time>
      </trkpt>
      <trkpt lat="48.8175" lon="-3.51112">
        <ele>-34</ele>
        <time>2015-11-13T14:17:28Z</time>
      </trkpt>
      <trkpt lat="48.8176" lon="-3.5109">
        <ele>-35</ele>
        <time>2015-11-13T14:17:31Z</time>
      </trkpt>
      <trkpt lat="48.8177" lon="-3.51067">
        <ele>-35</ele>
        <time>2015-11-13T14:17:34Z</time>
      </trkpt>
      <trkpt lat="48.81777" lon="-3.51041">
        <ele>-35</ele>
        <time>2015-11-13T14:17:37Z</time>
      </trkpt>
      <trkpt lat="48.81781" lon="-3.51014">
        <ele>-35</ele>
        <time>2015-11-13T14:17:40Z</time>
      </trkpt>
      <trkpt lat="48.81784" lon="-3.50987">
        <ele>-36</ele>
        <time>2015-11-13T14:17:43Z</time>
      </trkpt>
      <trkpt lat="48.81787" lon="-3.50968">
        <ele>-36</ele>
        <time>2015-11-13T14:17:45Z</time>
      </trkpt>
      <trkpt lat="48.8179" lon="-3.5094">
        <ele>-36</ele>
        <time>2015-11-13T14:17:48Z</time>
      </trkpt>
      <trkpt lat="48.81792" lon="-3.50912">
        <ele>-36</ele>
        <time>2015-11-13T14:17:51Z</time>
      </trkpt>
      <trkpt lat="48.81793" lon="-3.50884">
        <ele>-37</ele>
        <time>2015-11-13T14:17:54Z</time>
      </trkpt>
      <trkpt lat="48.81796" lon="-3.50857">
        <ele>-37</ele>
        <time>2015-11-13T14:17:57Z</time>
      </trkpt>
      <trkpt lat="48.81798" lon="-3.5083">
        <ele>-37</ele>
        <time>2015-11-13T14:18:00Z</time>
      </trkpt>
      <trkpt lat="48.818" lon="-3.50814">
        <ele>-37</ele>
        <time>2015-11-13T14:18:02Z</time>
      </trkpt>
      <trkpt lat="48.81802" lon="-3.5079">
        <ele>-37</ele>
        <time>2015-11-13T14:18:05Z</time>
      </trkpt>
      <trkpt lat="48.81804" lon="-3.5077">
        <ele>-37</ele>
        <time>2015-11-13T14:18:08Z</time>
      </trkpt>
      <trkpt lat="48.81809" lon="-3.50747">
        <ele>-38</ele>
        <time>2015-11-13T14:18:22Z</time>
      </trkpt>
      <trkpt lat="48.8181" lon="-3.50722">
        <ele>-38</ele>
        <time>2015-11-13T14:18:28Z</time>
      </trkpt>
      <trkpt lat="48.81812" lon="-3.50704">
        <ele>-38</ele>
        <time>2015-11-13T14:18:31Z</time>
      </trkpt>
      <trkpt lat="48.81814" lon="-3.50686">
        <ele>-37</ele>
        <time>2015-11-13T14:18:34Z</time>
      </trkpt>
      <trkpt lat="48.81817" lon="-3.5066">
        <ele>-37</ele>
        <time>2015-11-13T14:18:38Z</time>
      </trkpt>
      <trkpt lat="48.8182" lon="-3.50631">
        <ele>-37</ele>
        <time>2015-11-13T14:18:42Z</time>
      </trkpt>
      <trkpt lat="48.81823" lon="-3.50601">
        <ele>-37</ele>
        <time>2015-11-13T14:18:46Z</time>
      </trkpt>
      <trkpt lat="48.81825" lon="-3.50586">
        <ele>-37</ele>
        <time>2015-11-13T14:18:48Z</time>
      </trkpt>
      <trkpt lat="48.81827" lon="-3.50573">
        <ele>-37</ele>
        <time>2015-11-13T14:18:50Z</time>
      </trkpt>
      <trkpt lat="48.81843" lon="-3.50565">
        <ele>-36</ele>
        <time>2015-11-13T14:18:59Z</time>
      </trkpt>
      <trkpt lat="48.81855" lon="-3.50574">
        <ele>-36</ele>
        <time>2015-11-13T14:19:02Z</time>
      </trkpt>
      <trkpt lat="48.81864" lon="-3.5058">
        <ele>-36</ele>
        <time>2015-11-13T14:19:04Z</time>
      </trkpt>
      <trkpt lat="48.81873" lon="-3.50584">
        <ele>-36</ele>
        <time>2015-11-13T14:19:06Z</time>
      </trkpt>
      <trkpt lat="48.81883" lon="-3.50589">
        <ele>-36</ele>
        <time>2015-11-13T14:19:08Z</time>
      </trkpt>
      <trkpt lat="48.81898" lon="-3.50594">
        <ele>-36</ele>
        <time>2015-11-13T14:19:11Z</time>
      </trkpt>
      <trkpt lat="48.81913" lon="-3.50598">
        <ele>-36</ele>
        <time>2015-11-13T14:19:14Z</time>
      </trkpt>
      <trkpt lat="48.81924" lon="-3.506">
        <ele>-36</ele>
        <time>2015-11-13T14:19:16Z</time>
      </trkpt>
      <trkpt lat="48.81934" lon="-3.50602">
        <ele>-36</ele>
        <time>2015-11-13T14:19:18Z</time>
      </trkpt>
      <trkpt lat="48.81945" lon="-3.50603">
        <ele>-36</ele>
        <time>2015-11-13T14:19:20Z</time>
      </trkpt>
      <trkpt lat="48.81955" lon="-3.50604">
        <ele>-36</ele>
        <time>2015-11-13T14:19:22Z</time>
      </trkpt>
      <trkpt lat="48.81967" lon="-3.50606">
        <ele>-36</ele>
        <time>2015-11-13T14:19:24Z</time>
      </trkpt>
      <trkpt lat="48.81979" lon="-3.50608">
        <ele>-36</ele>
        <time>2015-11-13T14:19:26Z</time>
      </trkpt>
      <trkpt lat="48.81995" lon="-3.50618">
        <ele>-36</ele>
        <time>2015-11-13T14:19:29Z</time>
      </trkpt>
      <trkpt lat="48.82005" lon="-3.50626">
        <ele>-36</ele>
        <time>2015-11-13T14:19:31Z</time>
      </trkpt>
      <trkpt lat="48.82013" lon="-3.50634">
        <ele>-36</ele>
        <time>2015-11-13T14:19:33Z</time>
      </trkpt>
      <trkpt lat="48.82022" lon="-3.50643">
        <ele>-36</ele>
        <time>2015-11-13T14:19:35Z</time>
      </trkpt>
      <trkpt lat="48.82035" lon="-3.50658">
        <ele>-36</ele>
        <time>2015-11-13T14:19:38Z</time>
      </trkpt>
      <trkpt lat="48.82044" lon="-3.5067">
        <ele>-36</ele>
        <time>2015-11-13T14:19:40Z</time>
      </trkpt>
      <trkpt lat="48.82053" lon="-3.50681">
        <ele>-37</ele>
        <time>2015-11-13T14:19:42Z</time>
      </trkpt>
      <trkpt lat="48.82063" lon="-3.50692">
        <ele>-37</ele>
        <time>2015-11-13T14:19:44Z</time>
      </trkpt>
      <trkpt lat="48.82078" lon="-3.50704">
        <ele>-37</ele>
        <time>2015-11-13T14:19:47Z</time>
      </trkpt>
      <trkpt lat="48.82088" lon="-3.50712">
        <ele>-37</ele>
        <time>2015-11-13T14:19:49Z</time>
      </trkpt>
      <trkpt lat="48.82103" lon="-3.50722">
        <ele>-37</ele>
        <time>2015-11-13T14:19:52Z</time>
      </trkpt>
      <trkpt lat="48.82114" lon="-3.50727">
        <ele>-37</ele>
        <time>2015-11-13T14:19:54Z</time>
      </trkpt>
      <trkpt lat="48.82124" lon="-3.50733">
        <ele>-37</ele>
        <time>2015-11-13T14:19:56Z</time>
      </trkpt>
      <trkpt lat="48.8214" lon="-3.50742">
        <ele>-37</ele>
        <time>2015-11-13T14:19:59Z</time>
      </trkpt>
      <trkpt lat="48.8215" lon="-3.50745">
        <ele>-36</ele>
        <time>2015-11-13T14:20:01Z</time>
      </trkpt>
      <trkpt lat="48.82165" lon="-3.50727">
        <ele>-36</ele>
        <time>2015-11-13T14:20:05Z</time>
      </trkpt>
      <trkpt lat="48.82172" lon="-3.50708">
        <ele>-36</ele>
        <time>2015-11-13T14:20:08Z</time>
      </trkpt>
      <trkpt lat="48.82181" lon="-3.50681">
        <ele>-36</ele>
        <time>2015-11-13T14:20:12Z</time>
      </trkpt>
      <trkpt lat="48.82189" lon="-3.50652">
        <ele>-36</ele>
        <time>2015-11-13T14:20:16Z</time>
      </trkpt>
      <trkpt lat="48.82195" lon="-3.50628">
        <ele>-36</ele>
        <time>2015-11-13T14:20:19Z</time>
      </trkpt>
      <trkpt lat="48.82203" lon="-3.506">
        <ele>-36</ele>
        <time>2015-11-13T14:20:22Z</time>
      </trkpt>
      <trkpt lat="48.82211" lon="-3.5057">
        <ele>-36</ele>
        <time>2015-11-13T14:20:25Z</time>
      </trkpt>
      <trkpt lat="48.82218" lon="-3.50539">
        <ele>-36</ele>
        <time>2015-11-13T14:20:28Z</time>
      </trkpt>
      <trkpt lat="48.82231" lon="-3.50495">
        <ele>-36</ele>
        <time>2015-11-13T14:20:32Z</time>
      </trkpt>
      <trkpt lat="48.82237" lon="-3.50472">
        <ele>-36</ele>
        <time>2015-11-13T14:20:34Z</time>
      </trkpt>
      <trkpt lat="48.82244" lon="-3.50449">
        <ele>-36</ele>
        <time>2015-11-13T14:20:36Z</time>
      </trkpt>
      <trkpt lat="48.8225" lon="-3.50426">
        <ele>-36</ele>
        <time>2015-11-13T14:20:38Z</time>
      </trkpt>
      <trkpt lat="48.82255" lon="-3.50403">
        <ele>-36</ele>
        <time>2015-11-13T14:20:40Z</time>
      </trkpt>
      <trkpt lat="48.82259" lon="-3.5038">
        <ele>-36</ele>
        <time>2015-11-13T14:20:42Z</time>
      </trkpt>
      <trkpt lat="48.82265" lon="-3.5035">
        <ele>-36</ele>
        <time>2015-11-13T14:20:45Z</time>
      </trkpt>
      <trkpt lat="48.82265" lon="-3.50323">
        <ele>-36</ele>
        <time>2015-11-13T14:20:49Z</time>
      </trkpt>
      <trkpt lat="48.82264" lon="-3.5031">
        <ele>-36</ele>
        <time>2015-11-13T14:20:51Z</time>
      </trkpt>
      <trkpt lat="48.82261" lon="-3.50281">
        <ele>-36</ele>
        <time>2015-11-13T14:20:55Z</time>
      </trkpt>
      <trkpt lat="48.8226" lon="-3.50266">
        <ele>-37</ele>
        <time>2015-11-13T14:20:57Z</time>
      </trkpt>
      <trkpt lat="48.82259" lon="-3.50251">
        <ele>-37</ele>
        <time>2015-11-13T14:20:59Z</time>
      </trkpt>
      <trkpt lat="48.82257" lon="-3.50221">
        <ele>-37</ele>
        <time>2015-11-13T14:21:03Z</time>
      </trkpt>
      <trkpt lat="48.82257" lon="-3.50206">
        <ele>-37</ele>
        <time>2015-11-13T14:21:05Z</time>
      </trkpt>
      <trkpt lat="48.82258" lon="-3.50182">
        <ele>-37</ele>
        <time>2015-11-13T14:21:08Z</time>
      </trkpt>
      <trkpt lat="48.82259" lon="-3.50165">
        <ele>-37</ele>
        <time>2015-11-13T14:21:10Z</time>
      </trkpt>
      <trkpt lat="48.8226" lon="-3.50138">
        <ele>-37</ele>
        <time>2015-11-13T14:21:13Z</time>
      </trkpt>
      <trkpt lat="48.82261" lon="-3.50111">
        <ele>-37</ele>
        <time>2015-11-13T14:21:16Z</time>
      </trkpt>
      <trkpt lat="48.82261" lon="-3.50095">
        <ele>-37</ele>
        <time>2015-11-13T14:21:18Z</time>
      </trkpt>
      <trkpt lat="48.82262" lon="-3.50078">
        <ele>-37</ele>
        <time>2015-11-13T14:21:21Z</time>
      </trkpt>
      <trkpt lat="48.8227" lon="-3.50068">
        <ele>-38</ele>
        <time>2015-11-13T14:21:24Z</time>
      </trkpt>
      <trkpt lat="48.82286" lon="-3.5006">
        <ele>-38</ele>
        <time>2015-11-13T14:21:28Z</time>
      </trkpt>
      <trkpt lat="48.82301" lon="-3.50054">
        <ele>-38</ele>
        <time>2015-11-13T14:21:31Z</time>
      </trkpt>
      <trkpt lat="48.82317" lon="-3.50047">
        <ele>-38</ele>
        <time>2015-11-13T14:21:34Z</time>
      </trkpt>
      <trkpt lat="48.82332" lon="-3.5004">
        <ele>-39</ele>
        <time>2015-11-13T14:21:37Z</time>
      </trkpt>
      <trkpt lat="48.8235" lon="-3.50033">
        <ele>-39</ele>
        <time>2015-11-13T14:21:41Z</time>
      </trkpt>
      <trkpt lat="48.82362" lon="-3.50013">
        <ele>-39</ele>
        <time>2015-11-13T14:21:47Z</time>
      </trkpt>
      <trkpt lat="48.82366" lon="-3.4999">
        <ele>-40</ele>
        <time>2015-11-13T14:21:50Z</time>
      </trkpt>
      <trkpt lat="48.82373" lon="-3.49939">
        <ele>-40</ele>
        <time>2015-11-13T14:21:56Z</time>
      </trkpt>
      <trkpt lat="48.82378" lon="-3.49913">
        <ele>-40</ele>
        <time>2015-11-13T14:21:59Z</time>
      </trkpt>
      <trkpt lat="48.82383" lon="-3.49886">
        <ele>-40</ele>
        <time>2015-11-13T14:22:02Z</time>
      </trkpt>
      <trkpt lat="48.8239" lon="-3.49858">
        <ele>-40</ele>
        <time>2015-11-13T14:22:05Z</time>
      </trkpt>
      <trkpt lat="48.82395" lon="-3.4984">
        <ele>-41</ele>
        <time>2015-11-13T14:22:07Z</time>
      </trkpt>
      <trkpt lat="48.82401" lon="-3.49813">
        <ele>-41</ele>
        <time>2015-11-13T14:22:10Z</time>
      </trkpt>
      <trkpt lat="48.82404" lon="-3.49795">
        <ele>-42</ele>
        <time>2015-11-13T14:22:12Z</time>
      </trkpt>
      <trkpt lat="48.82406" lon="-3.49777">
        <ele>-42</ele>
        <time>2015-11-13T14:22:14Z</time>
      </trkpt>
      <trkpt lat="48.82409" lon="-3.4975">
        <ele>-42</ele>
        <time>2015-11-13T14:22:17Z</time>
      </trkpt>
      <trkpt lat="48.82413" lon="-3.49733">
        <ele>-42</ele>
        <time>2015-11-13T14:22:19Z</time>
      </trkpt>
      <trkpt lat="48.82421" lon="-3.49706">
        <ele>-42</ele>
        <time>2015-11-13T14:22:22Z</time>
      </trkpt>
      <trkpt lat="48.82426" lon="-3.49676">
        <ele>-43</ele>
        <time>2015-11-13T14:22:25Z</time>
      </trkpt>
      <trkpt lat="48.8243" lon="-3.49647">
        <ele>-43</ele>
        <time>2015-11-13T14:22:28Z</time>
      </trkpt>
      <trkpt lat="48.82435" lon="-3.49618">
        <ele>-43</ele>
        <time>2015-11-13T14:22:31Z</time>
      </trkpt>
      <trkpt lat="48.8244" lon="-3.4959">
        <ele>-43</ele>
        <time>2015-11-13T14:22:34Z</time>
      </trkpt>
      <trkpt lat="48.82445" lon="-3.49563">
        <ele>-43</ele>
        <time>2015-11-13T14:22:37Z</time>
      </trkpt>
      <trkpt lat="48.8245" lon="-3.49537">
        <ele>-43</ele>
        <time>2015-11-13T14:22:40Z</time>
      </trkpt>
      <trkpt lat="48.82454" lon="-3.4952">
        <ele>-43</ele>
        <time>2015-11-13T14:22:42Z</time>
      </trkpt>
      <trkpt lat="48.82457" lon="-3.49504">
        <ele>-43</ele>
        <time>2015-11-13T14:22:44Z</time>
      </trkpt>
      <trkpt lat="48.82463" lon="-3.49479">
        <ele>-43</ele>
        <time>2015-11-13T14:22:47Z</time>
      </trkpt>
      <trkpt lat="48.82474" lon="-3.4944">
        <ele>-43</ele>
        <time>2015-11-13T14:22:52Z</time>
      </trkpt>
      <trkpt lat="48.82479" lon="-3.49423">
        <ele>-43</ele>
        <time>2015-11-13T14:22:54Z</time>
      </trkpt>
      <trkpt lat="48.82486" lon="-3.49399">
        <ele>-43</ele>
        <time>2015-11-13T14:22:57Z</time>
      </trkpt>
      <trkpt lat="48.82494" lon="-3.49375">
        <ele>-43</ele>
        <time>2015-11-13T14:23:00Z</time>
      </trkpt>
      <trkpt lat="48.82502" lon="-3.49351">
        <ele>-43</ele>
        <time>2015-11-13T14:23:03Z</time>
      </trkpt>
      <trkpt lat="48.82507" lon="-3.49336">
        <ele>-43</ele>
        <time>2015-11-13T14:23:05Z</time>
      </trkpt>
      <trkpt lat="48.82515" lon="-3.49311">
        <ele>-43</ele>
        <time>2015-11-13T14:23:08Z</time>
      </trkpt>
      <trkpt lat="48.82524" lon="-3.49286">
        <ele>-42</ele>
        <time>2015-11-13T14:23:11Z</time>
      </trkpt>
      <trkpt lat="48.8253" lon="-3.49268">
        <ele>-42</ele>
        <time>2015-11-13T14:23:13Z</time>
      </trkpt>
      <trkpt lat="48.82539" lon="-3.4924">
        <ele>-42</ele>
        <time>2015-11-13T14:23:16Z</time>
      </trkpt>
      <trkpt lat="48.82548" lon="-3.4921">
        <ele>-42</ele>
        <time>2015-11-13T14:23:19Z</time>
      </trkpt>
      <trkpt lat="48.82554" lon="-3.4919">
        <ele>-42</ele>
        <time>2015-11-13T14:23:21Z</time>
      </trkpt>
      <trkpt lat="48.8256" lon="-3.49156">
        <ele>-41</ele>
        <time>2015-11-13T14:23:24Z</time>
      </trkpt>
      <trkpt lat="48.82562" lon="-3.49132">
        <ele>-41</ele>
        <time>2015-11-13T14:23:26Z</time>
      </trkpt>
      <trkpt lat="48.82563" lon="-3.4912">
        <ele>-41</ele>
        <time>2015-11-13T14:23:27Z</time>
      </trkpt>
      <trkpt lat="48.82563" lon="-3.49107">
        <ele>-41</ele>
        <time>2015-11-13T14:23:28Z</time>
      </trkpt>
      <trkpt lat="48.82563" lon="-3.49094">
        <ele>-41</ele>
        <time>2015-11-13T14:23:29Z</time>
      </trkpt>
      <trkpt lat="48.82562" lon="-3.49068">
        <ele>-41</ele>
        <time>2015-11-13T14:23:31Z</time>
      </trkpt>
      <trkpt lat="48.82557" lon="-3.49031">
        <ele>-41</ele>
        <time>2015-11-13T14:23:34Z</time>
      </trkpt>
      <trkpt lat="48.82552" lon="-3.49007">
        <ele>-41</ele>
        <time>2015-11-13T14:23:36Z</time>
      </trkpt>
      <trkpt lat="48.82547" lon="-3.48985">
        <ele>-41</ele>
        <time>2015-11-13T14:23:38Z</time>
      </trkpt>
      <trkpt lat="48.82542" lon="-3.48963">
        <ele>-40</ele>
        <time>2015-11-13T14:23:40Z</time>
      </trkpt>
      <trkpt lat="48.82537" lon="-3.48944">
        <ele>-40</ele>
        <time>2015-11-13T14:23:42Z</time>
      </trkpt>
      <trkpt lat="48.82531" lon="-3.48925">
        <ele>-40</ele>
        <time>2015-11-13T14:23:44Z</time>
      </trkpt>
      <trkpt lat="48.82525" lon="-3.48902">
        <ele>-40</ele>
        <time>2015-11-13T14:23:47Z</time>
      </trkpt>
      <trkpt lat="48.82521" lon="-3.48889">
        <ele>-40</ele>
        <time>2015-11-13T14:23:49Z</time>
      </trkpt>
      <trkpt lat="48.82518" lon="-3.48876">
        <ele>-40</ele>
        <time>2015-11-13T14:23:51Z</time>
      </trkpt>
      <trkpt lat="48.82514" lon="-3.48864">
        <ele>-40</ele>
        <time>2015-11-13T14:23:53Z</time>
      </trkpt>
      <trkpt lat="48.82508" lon="-3.48838">
        <ele>-40</ele>
        <time>2015-11-13T14:23:58Z</time>
      </trkpt>
      <trkpt lat="48.82502" lon="-3.48816">
        <ele>-40</ele>
        <time>2015-11-13T14:24:03Z</time>
      </trkpt>
      <trkpt lat="48.82494" lon="-3.48792">
        <ele>-40</ele>
        <time>2015-11-13T14:24:09Z</time>
      </trkpt>
      <trkpt lat="48.82486" lon="-3.48785">
        <ele>-40</ele>
        <time>2015-11-13T14:24:12Z</time>
      </trkpt>
      <trkpt lat="48.82471" lon="-3.48799">
        <ele>-40</ele>
        <time>2015-11-13T14:24:18Z</time>
      </trkpt>
      <trkpt lat="48.82465" lon="-3.48808">
        <ele>-40</ele>
        <time>2015-11-13T14:24:21Z</time>
      </trkpt>
      <trkpt lat="48.82458" lon="-3.48815">
        <ele>-39</ele>
        <time>2015-11-13T14:24:24Z</time>
      </trkpt>
      <trkpt lat="48.82452" lon="-3.48824">
        <ele>-39</ele>
        <time>2015-11-13T14:24:27Z</time>
      </trkpt>
      <trkpt lat="48.82444" lon="-3.48834">
        <ele>-39</ele>
        <time>2015-11-13T14:24:30Z</time>
      </trkpt>
      <trkpt lat="48.82436" lon="-3.48843">
        <ele>-39</ele>
        <time>2015-11-13T14:24:33Z</time>
      </trkpt>
      <trkpt lat="48.82428" lon="-3.48851">
        <ele>-39</ele>
        <time>2015-11-13T14:24:36Z</time>
      </trkpt>
      <trkpt lat="48.82419" lon="-3.48859">
        <ele>-38</ele>
        <time>2015-11-13T14:24:39Z</time>
      </trkpt>
      <trkpt lat="48.8241" lon="-3.48864">
        <ele>-38</ele>
        <time>2015-11-13T14:24:42Z</time>
      </trkpt>
      <trkpt lat="48.82393" lon="-3.48868">
        <ele>-38</ele>
        <time>2015-11-13T14:24:46Z</time>
      </trkpt>
      <trkpt lat="48.82376" lon="-3.4887">
        <ele>-38</ele>
        <time>2015-11-13T14:24:49Z</time>
      </trkpt>
      <trkpt lat="48.82364" lon="-3.48871">
        <ele>-38</ele>
        <time>2015-11-13T14:24:51Z</time>
      </trkpt>
      <trkpt lat="48.82352" lon="-3.48873">
        <ele>-37</ele>
        <time>2015-11-13T14:24:53Z</time>
      </trkpt>
      <trkpt lat="48.82334" lon="-3.48875">
        <ele>-37</ele>
        <time>2015-11-13T14:24:57Z</time>
      </trkpt>
      <trkpt lat="48.82318" lon="-3.48877">
        <ele>-37</ele>
        <time>2015-11-13T14:25:02Z</time>
      </trkpt>
      <trkpt lat="48.82303" lon="-3.48877">
        <ele>-36</ele>
        <time>2015-11-13T14:25:08Z</time>
      </trkpt>
      <trkpt lat="48.82292" lon="-3.48877">
        <ele>-36</ele>
        <time>2015-11-13T14:25:12Z</time>
      </trkpt>
      <trkpt lat="48.82278" lon="-3.48877">
        <ele>-36</ele>
        <time>2015-11-13T14:25:18Z</time>
      </trkpt>
      <trkpt lat="48.82261" lon="-3.48874">
        <ele>-35</ele>
        <time>2015-11-13T14:25:25Z</time>
      </trkpt>
      <trkpt lat="48.8225" lon="-3.48871">
        <ele>-34</ele>
        <time>2015-11-13T14:25:30Z</time>
      </trkpt>
      <trkpt lat="48.82241" lon="-3.4887">
        <ele>-34</ele>
        <time>2015-11-13T14:25:34Z</time>
      </trkpt>
      <trkpt lat="48.8223" lon="-3.4887">
        <ele>-33</ele>
        <time>2015-11-13T14:25:40Z</time>
      </trkpt>
      <trkpt lat="48.82221" lon="-3.48872">
        <ele>-33</ele>
        <time>2015-11-13T14:25:45Z</time>
      </trkpt>
      <trkpt lat="48.82212" lon="-3.48879">
        <ele>-32</ele>
        <time>2015-11-13T14:25:50Z</time>
      </trkpt>
      <trkpt lat="48.82204" lon="-3.48889">
        <ele>-31</ele>
        <time>2015-11-13T14:25:55Z</time>
      </trkpt>
      <trkpt lat="48.82198" lon="-3.48901">
        <ele>-31</ele>
        <time>2015-11-13T14:26:00Z</time>
      </trkpt>
      <trkpt lat="48.82192" lon="-3.48913">
        <ele>-30</ele>
        <time>2015-11-13T14:26:05Z</time>
      </trkpt>
      <trkpt lat="48.82186" lon="-3.48924">
        <ele>-29</ele>
        <time>2015-11-13T14:26:10Z</time>
      </trkpt>
      <trkpt lat="48.82179" lon="-3.48935">
        <ele>-29</ele>
        <time>2015-11-13T14:26:15Z</time>
      </trkpt>
      <trkpt lat="48.8217" lon="-3.48942">
        <ele>-28</ele>
        <time>2015-11-13T14:26:19Z</time>
      </trkpt>
      <trkpt lat="48.8216" lon="-3.48947">
        <ele>-28</ele>
        <time>2015-11-13T14:26:23Z</time>
      </trkpt>
      <trkpt lat="48.82144" lon="-3.4895">
        <ele>-28</ele>
        <time>2015-11-13T14:26:29Z</time>
      </trkpt>
      <trkpt lat="48.82121" lon="-3.48951">
        <ele>-27</ele>
        <time>2015-11-13T14:26:37Z</time>
      </trkpt>
      <trkpt lat="48.82112" lon="-3.48952">
        <ele>-27</ele>
        <time>2015-11-13T14:26:40Z</time>
      </trkpt>
      <trkpt lat="48.82102" lon="-3.48952">
        <ele>-26</ele>
        <time>2015-11-13T14:26:43Z</time>
      </trkpt>
      <trkpt lat="48.82086" lon="-3.48952">
        <ele>-26</ele>
        <time>2015-11-13T14:26:48Z</time>
      </trkpt>
      <trkpt lat="48.82068" lon="-3.48951">
        <ele>-25</ele>
        <time>2015-11-13T14:26:54Z</time>
      </trkpt>
      <trkpt lat="48.8206" lon="-3.48949">
        <ele>-25</ele>
        <time>2015-11-13T14:26:57Z</time>
      </trkpt>
      <trkpt lat="48.82046" lon="-3.48943">
        <ele>-24</ele>
        <time>2015-11-13T14:27:03Z</time>
      </trkpt>
      <trkpt lat="48.82036" lon="-3.48939">
        <ele>-23</ele>
        <time>2015-11-13T14:27:08Z</time>
      </trkpt>
      <trkpt lat="48.82024" lon="-3.48934">
        <ele>-22</ele>
        <time>2015-11-13T14:27:16Z</time>
      </trkpt>
      <trkpt lat="48.82015" lon="-3.48931">
        <ele>-22</ele>
        <time>2015-11-13T14:27:21Z</time>
      </trkpt>
      <trkpt lat="48.82006" lon="-3.48929">
        <ele>-21</ele>
        <time>2015-11-13T14:27:26Z</time>
      </trkpt>
      <trkpt lat="48.81992" lon="-3.48925">
        <ele>-20</ele>
        <time>2015-11-13T14:27:33Z</time>
      </trkpt>
      <trkpt lat="48.81976" lon="-3.4892">
        <ele>-19</ele>
        <time>2015-11-13T14:27:40Z</time>
      </trkpt>
      <trkpt lat="48.81961" lon="-3.48914">
        <ele>-19</ele>
        <time>2015-11-13T14:27:46Z</time>
      </trkpt>
      <trkpt lat="48.8195" lon="-3.4891">
        <ele>-18</ele>
        <time>2015-11-13T14:27:50Z</time>
      </trkpt>
      <trkpt lat="48.81937" lon="-3.48904">
        <ele>-17</ele>
        <time>2015-11-13T14:27:55Z</time>
      </trkpt>
      <trkpt lat="48.81928" lon="-3.48901">
        <ele>-17</ele>
        <time>2015-11-13T14:27:58Z</time>
      </trkpt>
      <trkpt lat="48.81919" lon="-3.48899">
        <ele>-16</ele>
        <time>2015-11-13T14:28:01Z</time>
      </trkpt>
      <trkpt lat="48.81904" lon="-3.48897">
        <ele>-15</ele>
        <time>2015-11-13T14:28:06Z</time>
      </trkpt>
      <trkpt lat="48.81896" lon="-3.48897">
        <ele>-15</ele>
        <time>2015-11-13T14:28:09Z</time>
      </trkpt>
      <trkpt lat="48.81884" lon="-3.48896">
        <ele>-14</ele>
        <time>2015-11-13T14:28:13Z</time>
      </trkpt>
      <trkpt lat="48.81876" lon="-3.48895">
        <ele>-14</ele>
        <time>2015-11-13T14:28:16Z</time>
      </trkpt>
      <trkpt lat="48.8186" lon="-3.48894">
        <ele>-13</ele>
        <time>2015-11-13T14:28:22Z</time>
      </trkpt>
      <trkpt lat="48.81851" lon="-3.48893">
        <ele>-13</ele>
        <time>2015-11-13T14:28:25Z</time>
      </trkpt>
      <trkpt lat="48.81843" lon="-3.48892">
        <ele>-13</ele>
        <time>2015-11-13T14:28:28Z</time>
      </trkpt>
      <trkpt lat="48.81834" lon="-3.48892">
        <ele>-12</ele>
        <time>2015-11-13T14:28:31Z</time>
      </trkpt>
      <trkpt lat="48.81824" lon="-3.48892">
        <ele>-12</ele>
        <time>2015-11-13T14:28:34Z</time>
      </trkpt>
      <trkpt lat="48.81814" lon="-3.48894">
        <ele>-11</ele>
        <time>2015-11-13T14:28:37Z</time>
      </trkpt>
      <trkpt lat="48.81805" lon="-3.48898">
        <ele>-11</ele>
        <time>2015-11-13T14:28:40Z</time>
      </trkpt>
      <trkpt lat="48.81797" lon="-3.48902">
        <ele>-11</ele>
        <time>2015-11-13T14:28:43Z</time>
      </trkpt>
      <trkpt lat="48.81786" lon="-3.48907">
        <ele>-10</ele>
        <time>2015-11-13T14:28:47Z</time>
      </trkpt>
      <trkpt lat="48.81768" lon="-3.48912">
        <ele>-10</ele>
        <time>2015-11-13T14:28:53Z</time>
      </trkpt>
      <trkpt lat="48.81751" lon="-3.48915">
        <ele>-10</ele>
        <time>2015-11-13T14:28:58Z</time>
      </trkpt>
      <trkpt lat="48.81739" lon="-3.48916">
        <ele>-9</ele>
        <time>2015-11-13T14:29:01Z</time>
      </trkpt>
      <trkpt lat="48.81723" lon="-3.48916">
        <ele>-9</ele>
        <time>2015-11-13T14:29:05Z</time>
      </trkpt>
      <trkpt lat="48.81707" lon="-3.48912">
        <ele>-8</ele>
        <time>2015-11-13T14:29:09Z</time>
      </trkpt>
      <trkpt lat="48.81691" lon="-3.48903">
        <ele>-8</ele>
        <time>2015-11-13T14:29:13Z</time>
      </trkpt>
      <trkpt lat="48.81684" lon="-3.48899">
        <ele>-8</ele>
        <time>2015-11-13T14:29:15Z</time>
      </trkpt>
      <trkpt lat="48.81673" lon="-3.48894">
        <ele>-8</ele>
        <time>2015-11-13T14:29:18Z</time>
      </trkpt>
      <trkpt lat="48.81662" lon="-3.4889">
        <ele>-7</ele>
        <time>2015-11-13T14:29:21Z</time>
      </trkpt>
      <trkpt lat="48.81645" lon="-3.48887">
        <ele>-7</ele>
        <time>2015-11-13T14:29:26Z</time>
      </trkpt>
      <trkpt lat="48.81635" lon="-3.48888">
        <ele>-7</ele>
        <time>2015-11-13T14:29:29Z</time>
      </trkpt>
      <trkpt lat="48.81625" lon="-3.48889">
        <ele>-6</ele>
        <time>2015-11-13T14:29:33Z</time>
      </trkpt>
      <trkpt lat="48.81616" lon="-3.48889">
        <ele>-6</ele>
        <time>2015-11-13T14:29:37Z</time>
      </trkpt>
      <trkpt lat="48.81606" lon="-3.48888">
        <ele>-5</ele>
        <time>2015-11-13T14:29:41Z</time>
      </trkpt>
      <trkpt lat="48.81593" lon="-3.48888">
        <ele>-5</ele>
        <time>2015-11-13T14:29:46Z</time>
      </trkpt>
      <trkpt lat="48.81583" lon="-3.48888">
        <ele>-4</ele>
        <time>2015-11-13T14:29:50Z</time>
      </trkpt>
      <trkpt lat="48.81565" lon="-3.48888">
        <ele>-4</ele>
        <time>2015-11-13T14:29:56Z</time>
      </trkpt>
      <trkpt lat="48.81546" lon="-3.48888">
        <ele>-4</ele>
        <time>2015-11-13T14:30:01Z</time>
      </trkpt>
      <trkpt lat="48.81527" lon="-3.48889">
        <ele>-3</ele>
        <time>2015-11-13T14:30:05Z</time>
      </trkpt>
      <trkpt lat="48.81509" lon="-3.4889">
        <ele>-3</ele>
        <time>2015-11-13T14:30:09Z</time>
      </trkpt>
      <trkpt lat="48.81495" lon="-3.48893">
        <ele>-3</ele>
        <time>2015-11-13T14:30:13Z</time>
      </trkpt>
      <trkpt lat="48.81477" lon="-3.48886">
        <ele>-3</ele>
        <time>2015-11-13T14:30:18Z</time>
      </trkpt>
      <trkpt lat="48.81458" lon="-3.48881">
        <ele>-2</ele>
        <time>2015-11-13T14:30:23Z</time>
      </trkpt>
      <trkpt lat="48.8144" lon="-3.48882">
        <ele>-2</ele>
        <time>2015-11-13T14:30:28Z</time>
      </trkpt>
      <trkpt lat="48.8143" lon="-3.48882">
        <ele>-1</ele>
        <time>2015-11-13T14:30:31Z</time>
      </trkpt>
      <trkpt lat="48.81421" lon="-3.48882">
        <ele>-1</ele>
        <time>2015-11-13T14:30:34Z</time>
      </trkpt>
      <trkpt lat="48.81405" lon="-3.4888">
        <ele>-1</ele>
        <time>2015-11-13T14:30:39Z</time>
      </trkpt>
      <trkpt lat="48.81395" lon="-3.4888">
        <ele>49.4</ele>
        <time>2015-11-13T14:30:42Z</time>
      </trkpt>
      <trkpt lat="48.81386" lon="-3.48881">
        <ele>49.9</ele>
        <time>2015-11-13T14:30:45Z</time>
      </trkpt>
      <trkpt lat="48.81376" lon="-3.48882">
        <ele>50.3</ele>
        <time>2015-11-13T14:30:48Z</time>
      </trkpt>
      <trkpt lat="48.81367" lon="-3.48884">
        <ele>1</ele>
        <time>2015-11-13T14:30:51Z</time>
      </trkpt>
      <trkpt lat="48.81358" lon="-3.48888">
        <ele>1</ele>
        <time>2015-11-13T14:30:54Z</time>
      </trkpt>
      <trkpt lat="48.8135" lon="-3.48892">
        <ele>1</ele>
        <time>2015-11-13T14:30:57Z</time>
      </trkpt>
      <trkpt lat="48.81341" lon="-3.48898">
        <ele>1</ele>
        <time>2015-11-13T14:31:00Z</time>
      </trkpt>
      <trkpt lat="48.81334" lon="-3.48904">
        <ele>2</ele>
        <time>2015-11-13T14:31:03Z</time>
      </trkpt>
      <trkpt lat="48.81327" lon="-3.48911">
        <ele>2</ele>
        <time>2015-11-13T14:31:06Z</time>
      </trkpt>
      <trkpt lat="48.81319" lon="-3.48922">
        <ele>2</ele>
        <time>2015-11-13T14:31:10Z</time>
      </trkpt>
      <trkpt lat="48.81313" lon="-3.48931">
        <ele>2</ele>
        <time>2015-11-13T14:31:13Z</time>
      </trkpt>
      <trkpt lat="48.81308" lon="-3.48942">
        <ele>3</ele>
        <time>2015-11-13T14:31:16Z</time>
      </trkpt>
      <trkpt lat="48.81304" lon="-3.48954">
        <ele>3</ele>
        <time>2015-11-13T14:31:19Z</time>
      </trkpt>
      <trkpt lat="48.813" lon="-3.48966">
        <ele>3</ele>
        <time>2015-11-13T14:31:22Z</time>
      </trkpt>
      <trkpt lat="48.81296" lon="-3.48981">
        <ele>4</ele>
        <time>2015-11-13T14:31:26Z</time>
      </trkpt>
      <trkpt lat="48.81292" lon="-3.48996">
        <ele>4</ele>
        <time>2015-11-13T14:31:30Z</time>
      </trkpt>
      <trkpt lat="48.81282" lon="-3.49016">
        <ele>4</ele>
        <time>2015-11-13T14:31:36Z</time>
      </trkpt>
      <trkpt lat="48.81275" lon="-3.49025">
        <ele>5</ele>
        <time>2015-11-13T14:31:39Z</time>
      </trkpt>
      <trkpt lat="48.81268" lon="-3.49034">
        <ele>5</ele>
        <time>2015-11-13T14:31:42Z</time>
      </trkpt>
      <trkpt lat="48.81252" lon="-3.49047">
        <ele>5</ele>
        <time>2015-11-13T14:31:48Z</time>
      </trkpt>
      <trkpt lat="48.8124" lon="-3.49057">
        <ele>5</ele>
        <time>2015-11-13T14:31:53Z</time>
      </trkpt>
      <trkpt lat="48.81231" lon="-3.49062">
        <ele>6</ele>
        <time>2015-11-13T14:31:56Z</time>
      </trkpt>
      <trkpt lat="48.81222" lon="-3.49065">
        <ele>6</ele>
        <time>2015-11-13T14:31:59Z</time>
      </trkpt>
      <trkpt lat="48.81213" lon="-3.49067">
        <ele>6</ele>
        <time>2015-11-13T14:32:02Z</time>
      </trkpt>
      <trkpt lat="48.81203" lon="-3.49069">
        <ele>6</ele>
        <time>2015-11-13T14:32:05Z</time>
      </trkpt>
      <trkpt lat="48.81194" lon="-3.49069">
        <ele>7</ele>
        <time>2015-11-13T14:32:08Z</time>
      </trkpt>
      <trkpt lat="48.81179" lon="-3.49069">
        <ele>7</ele>
        <time>2015-11-13T14:32:13Z</time>
      </trkpt>
      <trkpt lat="48.81161" lon="-3.4907">
        <ele>7</ele>
        <time>2015-11-13T14:32:18Z</time>
      </trkpt>
      <trkpt lat="48.81144" lon="-3.49072">
        <ele>8</ele>
        <time>2015-11-13T14:32:22Z</time>
      </trkpt>
      <trkpt lat="48.81134" lon="-3.49073">
        <ele>8</ele>
        <time>2015-11-13T14:32:24Z</time>
      </trkpt>
      <trkpt lat="48.81124" lon="-3.49076">
        <ele>8</ele>
        <time>2015-11-13T14:32:26Z</time>
      </trkpt>
      <trkpt lat="48.81113" lon="-3.49079">
        <ele>8</ele>
        <time>2015-11-13T14:32:28Z</time>
      </trkpt>
      <trkpt lat="48.81097" lon="-3.49085">
        <ele>8</ele>
        <time>2015-11-13T14:32:31Z</time>
      </trkpt>
      <trkpt lat="48.8108" lon="-3.49093">
        <ele>9</ele>
        <time>2015-11-13T14:32:34Z</time>
      </trkpt>
      <trkpt lat="48.81069" lon="-3.49098">
        <ele>9</ele>
        <time>2015-11-13T14:32:36Z</time>
      </trkpt>
      <trkpt lat="48.81058" lon="-3.49102">
        <ele>9</ele>
        <time>2015-11-13T14:32:38Z</time>
      </trkpt>
      <trkpt lat="48.81046" lon="-3.49105">
        <ele>9</ele>
        <time>2015-11-13T14:32:40Z</time>
      </trkpt>
      <trkpt lat="48.81034" lon="-3.49106">
        <ele>9</ele>
        <time>2015-11-13T14:32:42Z</time>
      </trkpt>
      <trkpt lat="48.81023" lon="-3.49107">
        <ele>9</ele>
        <time>2015-11-13T14:32:44Z</time>
      </trkpt>
      <trkpt lat="48.8101" lon="-3.49107">
        <ele>9</ele>
        <time>2015-11-13T14:32:46Z</time>
      </trkpt>
      <trkpt lat="48.8099" lon="-3.49107">
        <ele>9</ele>
        <time>2015-11-13T14:32:49Z</time>
      </trkpt>
      <trkpt lat="48.80969" lon="-3.49108">
        <ele>9</ele>
        <time>2015-11-13T14:32:52Z</time>
      </trkpt>
      <trkpt lat="48.80948" lon="-3.49108">
        <ele>9</ele>
        <time>2015-11-13T14:32:55Z</time>
      </trkpt>
      <trkpt lat="48.80927" lon="-3.49109">
        <ele>9</ele>
        <time>2015-11-13T14:32:58Z</time>
      </trkpt>
      <trkpt lat="48.80914" lon="-3.4911">
        <ele>9</ele>
        <time>2015-11-13T14:33:00Z</time>
      </trkpt>
      <trkpt lat="48.80895" lon="-3.49111">
        <ele>9</ele>
        <time>2015-11-13T14:33:03Z</time>
      </trkpt>
      <trkpt lat="48.80884" lon="-3.49111">
        <ele>10</ele>
        <time>2015-11-13T14:33:05Z</time>
      </trkpt>
      <trkpt lat="48.80873" lon="-3.49111">
        <ele>10</ele>
        <time>2015-11-13T14:33:07Z</time>
      </trkpt>
      <trkpt lat="48.80857" lon="-3.49111">
        <ele>10</ele>
        <time>2015-11-13T14:33:10Z</time>
      </trkpt>
      <trkpt lat="48.80848" lon="-3.49112">
        <ele>10</ele>
        <time>2015-11-13T14:33:12Z</time>
      </trkpt>
      <trkpt lat="48.80839" lon="-3.49112">
        <ele>10</ele>
        <time>2015-11-13T14:33:14Z</time>
      </trkpt>
      <trkpt lat="48.8083" lon="-3.49113">
        <ele>10</ele>
        <time>2015-11-13T14:33:16Z</time>
      </trkpt>
      <trkpt lat="48.80815" lon="-3.49116">
        <ele>10</ele>
        <time>2015-11-13T14:33:20Z</time>
      </trkpt>
      <trkpt lat="48.80805" lon="-3.49119">
        <ele>11</ele>
        <time>2015-11-13T14:33:23Z</time>
      </trkpt>
      <trkpt lat="48.80789" lon="-3.49127">
        <ele>11</ele>
        <time>2015-11-13T14:33:28Z</time>
      </trkpt>
      <trkpt lat="48.8078" lon="-3.49132">
        <ele>11</ele>
        <time>2015-11-13T14:33:31Z</time>
      </trkpt>
      <trkpt lat="48.80772" lon="-3.49138">
        <ele>11</ele>
        <time>2015-11-13T14:33:34Z</time>
      </trkpt>
      <trkpt lat="48.80765" lon="-3.49143">
        <ele>12</ele>
        <time>2015-11-13T14:33:37Z</time>
      </trkpt>
      <trkpt lat="48.80756" lon="-3.49146">
        <ele>12</ele>
        <time>2015-11-13T14:33:40Z</time>
      </trkpt>
      <trkpt lat="48.80745" lon="-3.4915">
        <ele>12</ele>
        <time>2015-11-13T14:33:44Z</time>
      </trkpt>
      <trkpt lat="48.80736" lon="-3.49151">
        <ele>12</ele>
        <time>2015-11-13T14:33:47Z</time>
      </trkpt>
      <trkpt lat="48.80719" lon="-3.4915">
        <ele>12</ele>
        <time>2015-11-13T14:33:52Z</time>
      </trkpt>
      <trkpt lat="48.807" lon="-3.49145">
        <ele>12</ele>
        <time>2015-11-13T14:33:57Z</time>
      </trkpt>
      <trkpt lat="48.80689" lon="-3.49142">
        <ele>12</ele>
        <time>2015-11-13T14:34:00Z</time>
      </trkpt>
      <trkpt lat="48.80679" lon="-3.49138">
        <ele>12</ele>
        <time>2015-11-13T14:34:03Z</time>
      </trkpt>
      <trkpt lat="48.80669" lon="-3.49132">
        <ele>12</ele>
        <time>2015-11-13T14:34:06Z</time>
      </trkpt>
      <trkpt lat="48.80659" lon="-3.49124">
        <ele>12</ele>
        <time>2015-11-13T14:34:09Z</time>
      </trkpt>
      <trkpt lat="48.80649" lon="-3.49116">
        <ele>13</ele>
        <time>2015-11-13T14:34:12Z</time>
      </trkpt>
      <trkpt lat="48.80639" lon="-3.49108">
        <ele>13</ele>
        <time>2015-11-13T14:34:15Z</time>
      </trkpt>
      <trkpt lat="48.80629" lon="-3.49099">
        <ele>13</ele>
        <time>2015-11-13T14:34:18Z</time>
      </trkpt>
      <trkpt lat="48.80622" lon="-3.49093">
        <ele>13</ele>
        <time>2015-11-13T14:34:20Z</time>
      </trkpt>
      <trkpt lat="48.80598" lon="-3.49073">
        <ele>13</ele>
        <time>2015-11-13T14:34:25Z</time>
      </trkpt>
      <trkpt lat="48.80576" lon="-3.49064">
        <ele>13</ele>
        <time>2015-11-13T14:34:28Z</time>
      </trkpt>
      <trkpt lat="48.8056" lon="-3.49062">
        <ele>13</ele>
        <time>2015-11-13T14:34:30Z</time>
      </trkpt>
      <trkpt lat="48.80544" lon="-3.49062">
        <ele>13</ele>
        <time>2015-11-13T14:34:32Z</time>
      </trkpt>
      <trkpt lat="48.80528" lon="-3.49064">
        <ele>13</ele>
        <time>2015-11-13T14:34:34Z</time>
      </trkpt>
      <trkpt lat="48.80507" lon="-3.49069">
        <ele>13</ele>
        <time>2015-11-13T14:34:37Z</time>
      </trkpt>
      <trkpt lat="48.80491" lon="-3.49074">
        <ele>13</ele>
        <time>2015-11-13T14:34:40Z</time>
      </trkpt>
      <trkpt lat="48.80481" lon="-3.49077">
        <ele>13</ele>
        <time>2015-11-13T14:34:42Z</time>
      </trkpt>
      <trkpt lat="48.80462" lon="-3.49083">
        <ele>13</ele>
        <time>2015-11-13T14:34:46Z</time>
      </trkpt>
      <trkpt lat="48.80452" lon="-3.49086">
        <ele>14</ele>
        <time>2015-11-13T14:34:48Z</time>
      </trkpt>
      <trkpt lat="48.80443" lon="-3.49089">
        <ele>14</ele>
        <time>2015-11-13T14:34:50Z</time>
      </trkpt>
      <trkpt lat="48.80435" lon="-3.49092">
        <ele>14</ele>
        <time>2015-11-13T14:34:52Z</time>
      </trkpt>
      <trkpt lat="48.80427" lon="-3.49095">
        <ele>14</ele>
        <time>2015-11-13T14:34:54Z</time>
      </trkpt>
      <trkpt lat="48.80419" lon="-3.49098">
        <ele>14</ele>
        <time>2015-11-13T14:34:56Z</time>
      </trkpt>
      <trkpt lat="48.80403" lon="-3.49106">
        <ele>14</ele>
        <time>2015-11-13T14:35:00Z</time>
      </trkpt>
      <trkpt lat="48.80391" lon="-3.49113">
        <ele>14</ele>
        <time>2015-11-13T14:35:03Z</time>
      </trkpt>
      <trkpt lat="48.80382" lon="-3.4912">
        <ele>14</ele>
        <time>2015-11-13T14:35:06Z</time>
      </trkpt>
      <trkpt lat="48.80363" lon="-3.49136">
        <ele>14</ele>
        <time>2015-11-13T14:35:14Z</time>
      </trkpt>
      <trkpt lat="48.80354" lon="-3.49143">
        <ele>14</ele>
        <time>2015-11-13T14:35:18Z</time>
      </trkpt>
      <trkpt lat="48.80346" lon="-3.49149">
        <ele>14</ele>
        <time>2015-11-13T14:35:22Z</time>
      </trkpt>
      <trkpt lat="48.80338" lon="-3.49156">
        <ele>14</ele>
        <time>2015-11-13T14:35:26Z</time>
      </trkpt>
      <trkpt lat="48.8033" lon="-3.49162">
        <ele>14</ele>
        <time>2015-11-13T14:35:30Z</time>
      </trkpt>
      <trkpt lat="48.80322" lon="-3.49167">
        <ele>15</ele>
        <time>2015-11-13T14:35:34Z</time>
      </trkpt>
      <trkpt lat="48.80312" lon="-3.49173">
        <ele>15</ele>
        <time>2015-11-13T14:35:38Z</time>
      </trkpt>
      <trkpt lat="48.80302" lon="-3.49178">
        <ele>15</ele>
        <time>2015-11-13T14:35:42Z</time>
      </trkpt>
      <trkpt lat="48.80288" lon="-3.49184">
        <ele>15</ele>
        <time>2015-11-13T14:35:47Z</time>
      </trkpt>
      <trkpt lat="48.80279" lon="-3.49188">
        <ele>16</ele>
        <time>2015-11-13T14:35:50Z</time>
      </trkpt>
      <trkpt lat="48.80262" lon="-3.4919">
        <ele>16</ele>
        <time>2015-11-13T14:35:55Z</time>
      </trkpt>
      <trkpt lat="48.8025" lon="-3.49186">
        <ele>16</ele>
        <time>2015-11-13T14:35:58Z</time>
      </trkpt>
      <trkpt lat="48.80242" lon="-3.49182">
        <ele>16</ele>
        <time>2015-11-13T14:36:00Z</time>
      </trkpt>
      <trkpt lat="48.80233" lon="-3.49177">
        <ele>16</ele>
        <time>2015-11-13T14:36:02Z</time>
      </trkpt>
      <trkpt lat="48.80225" lon="-3.49171">
        <ele>17</ele>
        <time>2015-11-13T14:36:04Z</time>
      </trkpt>
      <trkpt lat="48.8021" lon="-3.4916">
        <ele>17</ele>
        <time>2015-11-13T14:36:08Z</time>
      </trkpt>
      <trkpt lat="48.80195" lon="-3.49149">
        <ele>17</ele>
        <time>2015-11-13T14:36:12Z</time>
      </trkpt>
      <trkpt lat="48.80181" lon="-3.49139">
        <ele>18</ele>
        <time>2015-11-13T14:36:16Z</time>
      </trkpt>
      <trkpt lat="48.80165" lon="-3.49128">
        <ele>18</ele>
        <time>2015-11-13T14:36:20Z</time>
      </trkpt>
      <trkpt lat="48.80153" lon="-3.49118">
        <ele>18</ele>
        <time>2015-11-13T14:36:23Z</time>
      </trkpt>
      <trkpt lat="48.80144" lon="-3.49112">
        <ele>18</ele>
        <time>2015-11-13T14:36:25Z</time>
      </trkpt>
      <trkpt lat="48.80135" lon="-3.49107">
        <ele>18</ele>
        <time>2015-11-13T14:36:27Z</time>
      </trkpt>
      <trkpt lat="48.80125" lon="-3.49103">
        <ele>18</ele>
        <time>2015-11-13T14:36:29Z</time>
      </trkpt>
      <trkpt lat="48.80113" lon="-3.49099">
        <ele>18</ele>
        <time>2015-11-13T14:36:31Z</time>
      </trkpt>
      <trkpt lat="48.80101" lon="-3.49096">
        <ele>18</ele>
        <time>2015-11-13T14:36:33Z</time>
      </trkpt>
      <trkpt lat="48.80089" lon="-3.49093">
        <ele>18</ele>
        <time>2015-11-13T14:36:35Z</time>
      </trkpt>
      <trkpt lat="48.80077" lon="-3.4909">
        <ele>18</ele>
        <time>2015-11-13T14:36:37Z</time>
      </trkpt>
      <trkpt lat="48.80065" lon="-3.49088">
        <ele>18</ele>
        <time>2015-11-13T14:36:39Z</time>
      </trkpt>
      <trkpt lat="48.80047" lon="-3.49083">
        <ele>18</ele>
        <time>2015-11-13T14:36:42Z</time>
      </trkpt>
      <trkpt lat="48.80035" lon="-3.49078">
        <ele>18</ele>
        <time>2015-11-13T14:36:44Z</time>
      </trkpt>
      <trkpt lat="48.80016" lon="-3.49069">
        <ele>18</ele>
        <time>2015-11-13T14:36:47Z</time>
      </trkpt>
      <trkpt lat="48.79996" lon="-3.49057">
        <ele>18</ele>
        <time>2015-11-13T14:36:50Z</time>
      </trkpt>
      <trkpt lat="48.79976" lon="-3.49043">
        <ele>18</ele>
        <time>2015-11-13T14:36:53Z</time>
      </trkpt>
      <trkpt lat="48.79962" lon="-3.49032">
        <ele>18</ele>
        <time>2015-11-13T14:36:55Z</time>
      </trkpt>
      <trkpt lat="48.79942" lon="-3.49017">
        <ele>18</ele>
        <time>2015-11-13T14:36:58Z</time>
      </trkpt>
      <trkpt lat="48.79924" lon="-3.49002">
        <ele>18</ele>
        <time>2015-11-13T14:37:01Z</time>
      </trkpt>
      <trkpt lat="48.79906" lon="-3.48987">
        <ele>18</ele>
        <time>2015-11-13T14:37:04Z</time>
      </trkpt>
      <trkpt lat="48.79889" lon="-3.48971">
        <ele>18</ele>
        <time>2015-11-13T14:37:07Z</time>
      </trkpt>
      <trkpt lat="48.79867" lon="-3.4895">
        <ele>18</ele>
        <time>2015-11-13T14:37:11Z</time>
      </trkpt>
      <trkpt lat="48.79855" lon="-3.4894">
        <ele>18</ele>
        <time>2015-11-13T14:37:13Z</time>
      </trkpt>
      <trkpt lat="48.79838" lon="-3.48924">
        <ele>18</ele>
        <time>2015-11-13T14:37:16Z</time>
      </trkpt>
      <trkpt lat="48.79821" lon="-3.48911">
        <ele>18</ele>
        <time>2015-11-13T14:37:19Z</time>
      </trkpt>
      <trkpt lat="48.79807" lon="-3.48901">
        <ele>17</ele>
        <time>2015-11-13T14:37:22Z</time>
      </trkpt>
      <trkpt lat="48.79788" lon="-3.48887">
        <ele>17</ele>
        <time>2015-11-13T14:37:26Z</time>
      </trkpt>
      <trkpt lat="48.79769" lon="-3.48876">
        <ele>17</ele>
        <time>2015-11-13T14:37:30Z</time>
      </trkpt>
      <trkpt lat="48.79754" lon="-3.48868">
        <ele>17</ele>
        <time>2015-11-13T14:37:34Z</time>
      </trkpt>
      <trkpt lat="48.7975" lon="-3.4884">
        <ele>17</ele>
        <time>2015-11-13T14:37:39Z</time>
      </trkpt>
      <trkpt lat="48.79753" lon="-3.48816">
        <ele>17</ele>
        <time>2015-11-13T14:37:42Z</time>
      </trkpt>
      <trkpt lat="48.79756" lon="-3.48794">
        <ele>16</ele>
        <time>2015-11-13T14:37:45Z</time>
      </trkpt>
      <trkpt lat="48.79758" lon="-3.4877">
        <ele>16</ele>
        <time>2015-11-13T14:37:48Z</time>
      </trkpt>
      <trkpt lat="48.79758" lon="-3.48755">
        <ele>16</ele>
        <time>2015-11-13T14:37:50Z</time>
      </trkpt>
      <trkpt lat="48.79758" lon="-3.4874">
        <ele>16</ele>
        <time>2015-11-13T14:37:52Z</time>
      </trkpt>
      <trkpt lat="48.79756" lon="-3.48725">
        <ele>16</ele>
        <time>2015-11-13T14:37:54Z</time>
      </trkpt>
      <trkpt lat="48.79754" lon="-3.4871">
        <ele>16</ele>
        <time>2015-11-13T14:37:56Z</time>
      </trkpt>
      <trkpt lat="48.79753" lon="-3.48695">
        <ele>16</ele>
        <time>2015-11-13T14:37:58Z</time>
      </trkpt>
      <trkpt lat="48.7975" lon="-3.48665">
        <ele>16</ele>
        <time>2015-11-13T14:38:02Z</time>
      </trkpt>
      <trkpt lat="48.79748" lon="-3.48651">
        <ele>16</ele>
        <time>2015-11-13T14:38:04Z</time>
      </trkpt>
      <trkpt lat="48.79748" lon="-3.48637">
        <ele>16</ele>
        <time>2015-11-13T14:38:06Z</time>
      </trkpt>
      <trkpt lat="48.79748" lon="-3.48624">
        <ele>16</ele>
        <time>2015-11-13T14:38:08Z</time>
      </trkpt>
      <trkpt lat="48.79749" lon="-3.48611">
        <ele>16</ele>
        <time>2015-11-13T14:38:10Z</time>
      </trkpt>
      <trkpt lat="48.79751" lon="-3.48582">
        <ele>15</ele>
        <time>2015-11-13T14:38:14Z</time>
      </trkpt>
      <trkpt lat="48.79753" lon="-3.48552">
        <ele>15</ele>
        <time>2015-11-13T14:38:17Z</time>
      </trkpt>
      <trkpt lat="48.79751" lon="-3.48522">
        <ele>15</ele>
        <time>2015-11-13T14:38:20Z</time>
      </trkpt>
      <trkpt lat="48.79749" lon="-3.48494">
        <ele>15</ele>
        <time>2015-11-13T14:38:23Z</time>
      </trkpt>
      <trkpt lat="48.79746" lon="-3.48467">
        <ele>15</ele>
        <time>2015-11-13T14:38:26Z</time>
      </trkpt>
      <trkpt lat="48.79745" lon="-3.48442">
        <ele>14</ele>
        <time>2015-11-13T14:38:30Z</time>
      </trkpt>
      <trkpt lat="48.79743" lon="-3.48418">
        <ele>14</ele>
        <time>2015-11-13T14:38:35Z</time>
      </trkpt>
      <trkpt lat="48.7974" lon="-3.48395">
        <ele>13</ele>
        <time>2015-11-13T14:38:42Z</time>
      </trkpt>
      <trkpt lat="48.79739" lon="-3.4837">
        <ele>13</ele>
        <time>2015-11-13T14:38:50Z</time>
      </trkpt>
      <trkpt lat="48.7974" lon="-3.48355">
        <ele>12</ele>
        <time>2015-11-13T14:38:57Z</time>
      </trkpt>
      <trkpt lat="48.79742" lon="-3.48334">
        <ele>12</ele>
        <time>2015-11-13T14:39:03Z</time>
      </trkpt>
      <trkpt lat="48.79744" lon="-3.4831">
        <ele>12</ele>
        <time>2015-11-13T14:39:13Z</time>
      </trkpt>
      <trkpt lat="48.79745" lon="-3.48281">
        <ele>13</ele>
        <time>2015-11-13T14:39:25Z</time>
      </trkpt>
      <trkpt lat="48.79743" lon="-3.48266">
        <ele>14</ele>
        <time>2015-11-13T14:39:31Z</time>
      </trkpt>
      <trkpt lat="48.79743" lon="-3.48253">
        <ele>15</ele>
        <time>2015-11-13T14:39:36Z</time>
      </trkpt>
      <trkpt lat="48.79742" lon="-3.48238">
        <ele>16</ele>
        <time>2015-11-13T14:39:42Z</time>
      </trkpt>
      <trkpt lat="48.79742" lon="-3.48219">
        <ele>17</ele>
        <time>2015-11-13T14:39:50Z</time>
      </trkpt>
      <trkpt lat="48.79739" lon="-3.48206">
        <ele>19</ele>
        <time>2015-11-13T14:39:56Z</time>
      </trkpt>
      <trkpt lat="48.79738" lon="-3.48193">
        <ele>19</ele>
        <time>2015-11-13T14:40:00Z</time>
      </trkpt>
      <trkpt lat="48.79742" lon="-3.48176">
        <ele>20</ele>
        <time>2015-11-13T14:40:04Z</time>
      </trkpt>
      <trkpt lat="48.79751" lon="-3.48157">
        <ele>20</ele>
        <time>2015-11-13T14:40:08Z</time>
      </trkpt>
      <trkpt lat="48.79762" lon="-3.48136">
        <ele>21</ele>
        <time>2015-11-13T14:40:12Z</time>
      </trkpt>
      <trkpt lat="48.79771" lon="-3.48116">
        <ele>21</ele>
        <time>2015-11-13T14:40:16Z</time>
      </trkpt>
      <trkpt lat="48.79781" lon="-3.48097">
        <ele>21</ele>
        <time>2015-11-13T14:40:20Z</time>
      </trkpt>
      <trkpt lat="48.79791" lon="-3.4808">
        <ele>22</ele>
        <time>2015-11-13T14:40:24Z</time>
      </trkpt>
      <trkpt lat="48.79802" lon="-3.48057">
        <ele>22</ele>
        <time>2015-11-13T14:40:29Z</time>
      </trkpt>
      <trkpt lat="48.79814" lon="-3.48037">
        <ele>23</ele>
        <time>2015-11-13T14:40:34Z</time>
      </trkpt>
      <trkpt lat="48.79828" lon="-3.48014">
        <ele>23</ele>
        <time>2015-11-13T14:40:40Z</time>
      </trkpt>
      <trkpt lat="48.79838" lon="-3.47994">
        <ele>23</ele>
        <time>2015-11-13T14:40:45Z</time>
      </trkpt>
      <trkpt lat="48.79849" lon="-3.47963">
        <ele>23</ele>
        <time>2015-11-13T14:40:52Z</time>
      </trkpt>
      <trkpt lat="48.79856" lon="-3.47938">
        <ele>24</ele>
        <time>2015-11-13T14:40:57Z</time>
      </trkpt>
      <trkpt lat="48.79863" lon="-3.47908">
        <ele>24</ele>
        <time>2015-11-13T14:41:03Z</time>
      </trkpt>
      <trkpt lat="48.79872" lon="-3.47884">
        <ele>24</ele>
        <time>2015-11-13T14:41:08Z</time>
      </trkpt>
      <trkpt lat="48.79882" lon="-3.47864">
        <ele>24</ele>
        <time>2015-11-13T14:41:12Z</time>
      </trkpt>
      <trkpt lat="48.79893" lon="-3.47844">
        <ele>25</ele>
        <time>2015-11-13T14:41:16Z</time>
      </trkpt>
      <trkpt lat="48.79904" lon="-3.47824">
        <ele>25</ele>
        <time>2015-11-13T14:41:20Z</time>
      </trkpt>
      <trkpt lat="48.79917" lon="-3.478">
        <ele>26</ele>
        <time>2015-11-13T14:41:25Z</time>
      </trkpt>
      <trkpt lat="48.79927" lon="-3.4778">
        <ele>26</ele>
        <time>2015-11-13T14:41:29Z</time>
      </trkpt>
      <trkpt lat="48.79978" lon="-3.4767">
        <ele>26</ele>
        <time>2015-11-13T14:41:48Z</time>
      </trkpt>
      <trkpt lat="48.7999" lon="-3.47652">
        <ele>26</ele>
        <time>2015-11-13T14:41:51Z</time>
      </trkpt>
      <trkpt lat="48.80003" lon="-3.47632">
        <ele>26</ele>
        <time>2015-11-13T14:41:54Z</time>
      </trkpt>
      <trkpt lat="48.8002" lon="-3.47602">
        <ele>26</ele>
        <time>2015-11-13T14:41:58Z</time>
      </trkpt>
      <trkpt lat="48.8003" lon="-3.47578">
        <ele>26</ele>
        <time>2015-11-13T14:42:01Z</time>
      </trkpt>
      <trkpt lat="48.80036" lon="-3.47561">
        <ele>26</ele>
        <time>2015-11-13T14:42:03Z</time>
      </trkpt>
      <trkpt lat="48.80042" lon="-3.47543">
        <ele>26</ele>
        <time>2015-11-13T14:42:05Z</time>
      </trkpt>
      <trkpt lat="48.80049" lon="-3.47516">
        <ele>27</ele>
        <time>2015-11-13T14:42:08Z</time>
      </trkpt>
      <trkpt lat="48.80053" lon="-3.47497">
        <ele>27</ele>
        <time>2015-11-13T14:42:10Z</time>
      </trkpt>
      <trkpt lat="48.80057" lon="-3.47478">
        <ele>28</ele>
        <time>2015-11-13T14:42:12Z</time>
      </trkpt>
      <trkpt lat="48.80063" lon="-3.4745">
        <ele>28</ele>
        <time>2015-11-13T14:42:15Z</time>
      </trkpt>
      <trkpt lat="48.80068" lon="-3.47432">
        <ele>29</ele>
        <time>2015-11-13T14:42:17Z</time>
      </trkpt>
      <trkpt lat="48.80072" lon="-3.47413">
        <ele>29</ele>
        <time>2015-11-13T14:42:19Z</time>
      </trkpt>
      <trkpt lat="48.8008" lon="-3.47386">
        <ele>29</ele>
        <time>2015-11-13T14:42:22Z</time>
      </trkpt>
      <trkpt lat="48.80093" lon="-3.47344">
        <ele>30</ele>
        <time>2015-11-13T14:42:27Z</time>
      </trkpt>
      <trkpt lat="48.80098" lon="-3.47328">
        <ele>30</ele>
        <time>2015-11-13T14:42:29Z</time>
      </trkpt>
      <trkpt lat="48.80084" lon="-3.47315">
        <ele>30</ele>
        <time>2015-11-13T14:42:33Z</time>
      </trkpt>
      <trkpt lat="48.80054" lon="-3.47316">
        <ele>30</ele>
        <time>2015-11-13T14:42:38Z</time>
      </trkpt>
      <trkpt lat="48.80035" lon="-3.47314">
        <ele>30</ele>
        <time>2015-11-13T14:42:41Z</time>
      </trkpt>
      <trkpt lat="48.80014" lon="-3.47307">
        <ele>30</ele>
        <time>2015-11-13T14:42:44Z</time>
      </trkpt>
      <trkpt lat="48.79998" lon="-3.47302">
        <ele>30</ele>
        <time>2015-11-13T14:42:46Z</time>
      </trkpt>
      <trkpt lat="48.79983" lon="-3.47299">
        <ele>30</ele>
        <time>2015-11-13T14:42:48Z</time>
      </trkpt>
      <trkpt lat="48.79967" lon="-3.47295">
        <ele>30</ele>
        <time>2015-11-13T14:42:50Z</time>
      </trkpt>
      <trkpt lat="48.79951" lon="-3.47292">
        <ele>30</ele>
        <time>2015-11-13T14:42:52Z</time>
      </trkpt>
      <trkpt lat="48.79936" lon="-3.47291">
        <ele>30</ele>
        <time>2015-11-13T14:42:54Z</time>
      </trkpt>
      <trkpt lat="48.79921" lon="-3.47296">
        <ele>30</ele>
        <time>2015-11-13T14:42:56Z</time>
      </trkpt>
      <trkpt lat="48.799" lon="-3.47301">
        <ele>30</ele>
        <time>2015-11-13T14:42:59Z</time>
      </trkpt>
      <trkpt lat="48.79879" lon="-3.47306">
        <ele>30</ele>
        <time>2015-11-13T14:43:02Z</time>
      </trkpt>
      <trkpt lat="48.79858" lon="-3.47308">
        <ele>30</ele>
        <time>2015-11-13T14:43:05Z</time>
      </trkpt>
      <trkpt lat="48.79839" lon="-3.47309">
        <ele>30</ele>
        <time>2015-11-13T14:43:08Z</time>
      </trkpt>
      <trkpt lat="48.79822" lon="-3.47311">
        <ele>30</ele>
        <time>2015-11-13T14:43:11Z</time>
      </trkpt>
      <trkpt lat="48.79801" lon="-3.47308">
        <ele>30</ele>
        <time>2015-11-13T14:43:15Z</time>
      </trkpt>
      <trkpt lat="48.79783" lon="-3.47295">
        <ele>30</ele>
        <time>2015-11-13T14:43:18Z</time>
      </trkpt>
      <trkpt lat="48.79769" lon="-3.47282">
        <ele>31</ele>
        <time>2015-11-13T14:43:20Z</time>
      </trkpt>
      <trkpt lat="48.79754" lon="-3.47272">
        <ele>31</ele>
        <time>2015-11-13T14:43:22Z</time>
      </trkpt>
      <trkpt lat="48.79733" lon="-3.47259">
        <ele>31</ele>
        <time>2015-11-13T14:43:25Z</time>
      </trkpt>
      <trkpt lat="48.79712" lon="-3.47249">
        <ele>31</ele>
        <time>2015-11-13T14:43:28Z</time>
      </trkpt>
      <trkpt lat="48.79692" lon="-3.4724">
        <ele>31</ele>
        <time>2015-11-13T14:43:31Z</time>
      </trkpt>
      <trkpt lat="48.79608" lon="-3.47209">
        <ele>31</ele>
        <time>2015-11-13T14:43:44Z</time>
      </trkpt>
      <trkpt lat="48.79589" lon="-3.47199">
        <ele>31</ele>
        <time>2015-11-13T14:43:47Z</time>
      </trkpt>
      <trkpt lat="48.79564" lon="-3.47179">
        <ele>31</ele>
        <time>2015-11-13T14:43:51Z</time>
      </trkpt>
      <trkpt lat="48.79545" lon="-3.47163">
        <ele>31</ele>
        <time>2015-11-13T14:43:54Z</time>
      </trkpt>
      <trkpt lat="48.79525" lon="-3.4715">
        <ele>31</ele>
        <time>2015-11-13T14:43:57Z</time>
      </trkpt>
      <trkpt lat="48.79509" lon="-3.47143">
        <ele>31</ele>
        <time>2015-11-13T14:43:59Z</time>
      </trkpt>
      <trkpt lat="48.79486" lon="-3.47134">
        <ele>31</ele>
        <time>2015-11-13T14:44:02Z</time>
      </trkpt>
      <trkpt lat="48.79465" lon="-3.47124">
        <ele>31</ele>
        <time>2015-11-13T14:44:05Z</time>
      </trkpt>
      <trkpt lat="48.79441" lon="-3.47115">
        <ele>31</ele>
        <time>2015-11-13T14:44:09Z</time>
      </trkpt>
      <trkpt lat="48.79414" lon="-3.47106">
        <ele>31</ele>
        <time>2015-11-13T14:44:14Z</time>
      </trkpt>
      <trkpt lat="48.79397" lon="-3.47097">
        <ele>32</ele>
        <time>2015-11-13T14:44:18Z</time>
      </trkpt>
      <trkpt lat="48.79379" lon="-3.47089">
        <ele>32</ele>
        <time>2015-11-13T14:44:22Z</time>
      </trkpt>
      <trkpt lat="48.79363" lon="-3.47086">
        <ele>32</ele>
        <time>2015-11-13T14:44:25Z</time>
      </trkpt>
      <trkpt lat="48.79353" lon="-3.47085">
        <ele>33</ele>
        <time>2015-11-13T14:44:27Z</time>
      </trkpt>
      <trkpt lat="48.79343" lon="-3.47083">
        <ele>33</ele>
        <time>2015-11-13T14:44:29Z</time>
      </trkpt>
      <trkpt lat="48.79328" lon="-3.47081">
        <ele>34</ele>
        <time>2015-11-13T14:44:33Z</time>
      </trkpt>
      <trkpt lat="48.79312" lon="-3.47065">
        <ele>34</ele>
        <time>2015-11-13T14:44:41Z</time>
      </trkpt>
      <trkpt lat="48.79298" lon="-3.47048">
        <ele>34</ele>
        <time>2015-11-13T14:44:46Z</time>
      </trkpt>
      <trkpt lat="48.79283" lon="-3.47034">
        <ele>34</ele>
        <time>2015-11-13T14:44:49Z</time>
      </trkpt>
      <trkpt lat="48.7927" lon="-3.47022">
        <ele>34</ele>
        <time>2015-11-13T14:44:52Z</time>
      </trkpt>
      <trkpt lat="48.79244" lon="-3.47001">
        <ele>34</ele>
        <time>2015-11-13T14:44:57Z</time>
      </trkpt>
      <trkpt lat="48.79223" lon="-3.46981">
        <ele>34</ele>
        <time>2015-11-13T14:45:01Z</time>
      </trkpt>
      <trkpt lat="48.79208" lon="-3.46971">
        <ele>34</ele>
        <time>2015-11-13T14:45:03Z</time>
      </trkpt>
      <trkpt lat="48.7919" lon="-3.46962">
        <ele>34</ele>
        <time>2015-11-13T14:45:05Z</time>
      </trkpt>
      <trkpt lat="48.79161" lon="-3.46957">
        <ele>34</ele>
        <time>2015-11-13T14:45:08Z</time>
      </trkpt>
      <trkpt lat="48.79144" lon="-3.46955">
        <ele>34</ele>
        <time>2015-11-13T14:45:10Z</time>
      </trkpt>
      <trkpt lat="48.79125" lon="-3.46952">
        <ele>34</ele>
        <time>2015-11-13T14:45:12Z</time>
      </trkpt>
      <trkpt lat="48.79116" lon="-3.4695">
        <ele>34</ele>
        <time>2015-11-13T14:45:13Z</time>
      </trkpt>
      <trkpt lat="48.79105" lon="-3.4695">
        <ele>34</ele>
        <time>2015-11-13T14:45:14Z</time>
      </trkpt>
      <trkpt lat="48.79095" lon="-3.4695">
        <ele>34</ele>
        <time>2015-11-13T14:45:15Z</time>
      </trkpt>
      <trkpt lat="48.79084" lon="-3.4695">
        <ele>34</ele>
        <time>2015-11-13T14:45:16Z</time>
      </trkpt>
      <trkpt lat="48.79074" lon="-3.46949">
        <ele>34</ele>
        <time>2015-11-13T14:45:17Z</time>
      </trkpt>
      <trkpt lat="48.79063" lon="-3.46948">
        <ele>33</ele>
        <time>2015-11-13T14:45:18Z</time>
      </trkpt>
      <trkpt lat="48.79053" lon="-3.46945">
        <ele>33</ele>
        <time>2015-11-13T14:45:19Z</time>
      </trkpt>
      <trkpt lat="48.79021" lon="-3.46911">
        <ele>33</ele>
        <time>2015-11-13T14:45:23Z</time>
      </trkpt>
      <trkpt lat="48.7901" lon="-3.46888">
        <ele>33</ele>
        <time>2015-11-13T14:45:25Z</time>
      </trkpt>
      <trkpt lat="48.79004" lon="-3.46876">
        <ele>33</ele>
        <time>2015-11-13T14:45:26Z</time>
      </trkpt>
      <trkpt lat="48.78976" lon="-3.46782">
        <ele>61.4</ele>
        <time>2015-11-13T14:45:33Z</time>
      </trkpt>
      <trkpt lat="48.78928" lon="-3.46723">
        <ele>32</ele>
        <time>2015-11-13T14:45:43Z</time>
      </trkpt>
      <trkpt lat="48.789" lon="-3.46695">
        <ele>31</ele>
        <time>2015-11-13T14:45:48Z</time>
      </trkpt>
      <trkpt lat="48.78882" lon="-3.4669">
        <ele>30</ele>
        <time>2015-11-13T14:45:50Z</time>
      </trkpt>
      <trkpt lat="48.78864" lon="-3.46687">
        <ele>29</ele>
        <time>2015-11-13T14:45:52Z</time>
      </trkpt>
      <trkpt lat="48.78822" lon="-3.46675">
        <ele>28</ele>
        <time>2015-11-13T14:45:58Z</time>
      </trkpt>
      <trkpt lat="48.78807" lon="-3.46666">
        <ele>27</ele>
        <time>2015-11-13T14:46:00Z</time>
      </trkpt>
      <trkpt lat="48.78791" lon="-3.46656">
        <ele>26</ele>
        <time>2015-11-13T14:46:02Z</time>
      </trkpt>
      <trkpt lat="48.78756" lon="-3.46634">
        <ele>26</ele>
        <time>2015-11-13T14:46:06Z</time>
      </trkpt>
      <trkpt lat="48.78738" lon="-3.46619">
        <ele>25</ele>
        <time>2015-11-13T14:46:08Z</time>
      </trkpt>
      <trkpt lat="48.7872" lon="-3.46603">
        <ele>24</ele>
        <time>2015-11-13T14:46:10Z</time>
      </trkpt>
      <trkpt lat="48.78711" lon="-3.46596">
        <ele>23</ele>
        <time>2015-11-13T14:46:11Z</time>
      </trkpt>
      <trkpt lat="48.78701" lon="-3.46592">
        <ele>23</ele>
        <time>2015-11-13T14:46:12Z</time>
      </trkpt>
      <trkpt lat="48.78691" lon="-3.46589">
        <ele>22</ele>
        <time>2015-11-13T14:46:13Z</time>
      </trkpt>
      <trkpt lat="48.78671" lon="-3.46588">
        <ele>21</ele>
        <time>2015-11-13T14:46:15Z</time>
      </trkpt>
      <trkpt lat="48.78634" lon="-3.46582">
        <ele>20</ele>
        <time>2015-11-13T14:46:19Z</time>
      </trkpt>
      <trkpt lat="48.78617" lon="-3.46579">
        <ele>19</ele>
        <time>2015-11-13T14:46:21Z</time>
      </trkpt>
      <trkpt lat="48.78602" lon="-3.46575">
        <ele>17</ele>
        <time>2015-11-13T14:46:23Z</time>
      </trkpt>
      <trkpt lat="48.78582" lon="-3.46567">
        <ele>16</ele>
        <time>2015-11-13T14:46:26Z</time>
      </trkpt>
      <trkpt lat="48.78566" lon="-3.46557">
        <ele>14</ele>
        <time>2015-11-13T14:46:29Z</time>
      </trkpt>
      <trkpt lat="48.78551" lon="-3.46551">
        <ele>12</ele>
        <time>2015-11-13T14:46:33Z</time>
      </trkpt>
      <trkpt lat="48.7853" lon="-3.46547">
        <ele>9</ele>
        <time>2015-11-13T14:46:41Z</time>
      </trkpt>
      <trkpt lat="48.7852" lon="-3.46545">
        <ele>7</ele>
        <time>2015-11-13T14:46:46Z</time>
      </trkpt>
      <trkpt lat="48.78501" lon="-3.4654">
        <ele>5</ele>
        <time>2015-11-13T14:46:57Z</time>
      </trkpt>
      <trkpt lat="48.78473" lon="-3.46527">
        <ele>3</ele>
        <time>2015-11-13T14:47:20Z</time>
      </trkpt>
      <trkpt lat="48.78454" lon="-3.46516">
        <ele>3</ele>
        <time>2015-11-13T14:47:31Z</time>
      </trkpt>
      <trkpt lat="48.78436" lon="-3.46503">
        <ele>4</ele>
        <time>2015-11-13T14:47:54Z</time>
      </trkpt>
      <trkpt lat="48.7842" lon="-3.46485">
        <ele>5</ele>
        <time>2015-11-13T14:48:12Z</time>
      </trkpt>
      <trkpt lat="48.78407" lon="-3.46463">
        <ele>6</ele>
        <time>2015-11-13T14:48:31Z</time>
      </trkpt>
      <trkpt lat="48.78347" lon="-3.46472">
        <ele>59</ele>
        <time>2015-11-13T14:51:15Z</time>
      </trkpt>
      <trkpt lat="48.78295" lon="-3.46454">
        <ele>63.1</ele>
        <time>2015-11-13T14:51:55Z</time>
      </trkpt>
      <trkpt lat="48.78245" lon="-3.46413">
        <ele>67.5</ele>
        <time>2015-11-13T14:52:16Z</time>
      </trkpt>
      <trkpt lat="48.78124" lon="-3.46299">
        <ele>73.6</ele>
        <time>2015-11-13T14:53:06Z</time>
      </trkpt>
      <trkpt lat="48.78011" lon="-3.46198">
        <ele>76.6</ele>
        <time>2015-11-13T14:53:40Z</time>
      </trkpt>
      <trkpt lat="48.77967" lon="-3.46179">
        <ele>77.6</ele>
        <time>2015-11-13T14:53:52Z</time>
      </trkpt>
      <trkpt lat="48.77923" lon="-3.46167">
        <ele>78.8</ele>
        <time>2015-11-13T14:54:03Z</time>
      </trkpt>
      <trkpt lat="48.77877" lon="-3.46181">
        <ele>80.2</ele>
        <time>2015-11-13T14:54:14Z</time>
      </trkpt>
      <trkpt lat="48.7773" lon="-3.46218">
        <ele>21</ele>
        <time>2015-11-13T14:54:48Z</time>
      </trkpt>
      <trkpt lat="48.77712" lon="-3.46214">
        <ele>22</ele>
        <time>2015-11-13T14:54:52Z</time>
      </trkpt>
      <trkpt lat="48.77692" lon="-3.46208">
        <ele>22</ele>
        <time>2015-11-13T14:54:56Z</time>
      </trkpt>
      <trkpt lat="48.77678" lon="-3.46199">
        <ele>23</ele>
        <time>2015-11-13T14:54:59Z</time>
      </trkpt>
      <trkpt lat="48.77659" lon="-3.46187">
        <ele>23</ele>
        <time>2015-11-13T14:55:03Z</time>
      </trkpt>
      <trkpt lat="48.77644" lon="-3.46173">
        <ele>23</ele>
        <time>2015-11-13T14:55:07Z</time>
      </trkpt>
      <trkpt lat="48.7763" lon="-3.46159">
        <ele>23</ele>
        <time>2015-11-13T14:55:10Z</time>
      </trkpt>
      <trkpt lat="48.77616" lon="-3.46144">
        <ele>23</ele>
        <time>2015-11-13T14:55:13Z</time>
      </trkpt>
      <trkpt lat="48.77591" lon="-3.46121">
        <ele>23</ele>
        <time>2015-11-13T14:55:18Z</time>
      </trkpt>
      <trkpt lat="48.77569" lon="-3.46104">
        <ele>23</ele>
        <time>2015-11-13T14:55:22Z</time>
      </trkpt>
      <trkpt lat="48.77552" lon="-3.46094">
        <ele>23</ele>
        <time>2015-11-13T14:55:25Z</time>
      </trkpt>
      <trkpt lat="48.77536" lon="-3.46084">
        <ele>23</ele>
        <time>2015-11-13T14:55:28Z</time>
      </trkpt>
      <trkpt lat="48.77521" lon="-3.46075">
        <ele>23</ele>
        <time>2015-11-13T14:55:31Z</time>
      </trkpt>
      <trkpt lat="48.77507" lon="-3.46063">
        <ele>23</ele>
        <time>2015-11-13T14:55:34Z</time>
      </trkpt>
      <trkpt lat="48.77493" lon="-3.46052">
        <ele>23</ele>
        <time>2015-11-13T14:55:37Z</time>
      </trkpt>
      <trkpt lat="48.77478" lon="-3.46044">
        <ele>23</ele>
        <time>2015-11-13T14:55:40Z</time>
      </trkpt>
      <trkpt lat="48.77463" lon="-3.46038">
        <ele>23</ele>
        <time>2015-11-13T14:55:43Z</time>
      </trkpt>
      <trkpt lat="48.77446" lon="-3.46044">
        <ele>23</ele>
        <time>2015-11-13T14:55:46Z</time>
      </trkpt>
      <trkpt lat="48.77431" lon="-3.46054">
        <ele>23</ele>
        <time>2015-11-13T14:55:49Z</time>
      </trkpt>
      <trkpt lat="48.77415" lon="-3.46065">
        <ele>23</ele>
        <time>2015-11-13T14:55:52Z</time>
      </trkpt>
      <trkpt lat="48.774" lon="-3.46076">
        <ele>23</ele>
        <time>2015-11-13T14:55:55Z</time>
      </trkpt>
      <trkpt lat="48.7738" lon="-3.46083">
        <ele>23</ele>
        <time>2015-11-13T14:55:59Z</time>
      </trkpt>
      <trkpt lat="48.77364" lon="-3.46082">
        <ele>24</ele>
        <time>2015-11-13T14:56:02Z</time>
      </trkpt>
      <trkpt lat="48.77347" lon="-3.4608">
        <ele>24</ele>
        <time>2015-11-13T14:56:05Z</time>
      </trkpt>
      <trkpt lat="48.77327" lon="-3.46077">
        <ele>24</ele>
        <time>2015-11-13T14:56:08Z</time>
      </trkpt>
      <trkpt lat="48.7731" lon="-3.46074">
        <ele>24</ele>
        <time>2015-11-13T14:56:10Z</time>
      </trkpt>
      <trkpt lat="48.77293" lon="-3.46068">
        <ele>25</ele>
        <time>2015-11-13T14:56:12Z</time>
      </trkpt>
      <trkpt lat="48.77274" lon="-3.46059">
        <ele>25</ele>
        <time>2015-11-13T14:56:14Z</time>
      </trkpt>
      <trkpt lat="48.77265" lon="-3.46054">
        <ele>25</ele>
        <time>2015-11-13T14:56:15Z</time>
      </trkpt>
      <trkpt lat="48.77255" lon="-3.46049">
        <ele>25</ele>
        <time>2015-11-13T14:56:16Z</time>
      </trkpt>
      <trkpt lat="48.77245" lon="-3.46045">
        <ele>25</ele>
        <time>2015-11-13T14:56:17Z</time>
      </trkpt>
      <trkpt lat="48.77227" lon="-3.4604">
        <ele>25</ele>
        <time>2015-11-13T14:56:19Z</time>
      </trkpt>
      <trkpt lat="48.77217" lon="-3.46044">
        <ele>25</ele>
        <time>2015-11-13T14:56:20Z</time>
      </trkpt>
      <trkpt lat="48.77207" lon="-3.46048">
        <ele>25</ele>
        <time>2015-11-13T14:56:21Z</time>
      </trkpt>
      <trkpt lat="48.77196" lon="-3.46053">
        <ele>24</ele>
        <time>2015-11-13T14:56:22Z</time>
      </trkpt>
      <trkpt lat="48.77184" lon="-3.46057">
        <ele>24</ele>
        <time>2015-11-13T14:56:23Z</time>
      </trkpt>
      <trkpt lat="48.77173" lon="-3.46058">
        <ele>24</ele>
        <time>2015-11-13T14:56:24Z</time>
      </trkpt>
      <trkpt lat="48.77163" lon="-3.46056">
        <ele>24</ele>
        <time>2015-11-13T14:56:25Z</time>
      </trkpt>
      <trkpt lat="48.77152" lon="-3.46054">
        <ele>24</ele>
        <time>2015-11-13T14:56:26Z</time>
      </trkpt>
      <trkpt lat="48.77137" lon="-3.46043">
        <ele>24</ele>
        <time>2015-11-13T14:56:29Z</time>
      </trkpt>
      <trkpt lat="48.77063" lon="-3.45992">
        <ele>24</ele>
        <time>2015-11-13T14:56:43Z</time>
      </trkpt>
      <trkpt lat="48.77046" lon="-3.45985">
        <ele>23</ele>
        <time>2015-11-13T14:56:47Z</time>
      </trkpt>
      <trkpt lat="48.77029" lon="-3.45985">
        <ele>22</ele>
        <time>2015-11-13T14:56:51Z</time>
      </trkpt>
      <trkpt lat="48.77012" lon="-3.45989">
        <ele>21</ele>
        <time>2015-11-13T14:56:56Z</time>
      </trkpt>
      <trkpt lat="48.76996" lon="-3.45997">
        <ele>21</ele>
        <time>2015-11-13T14:57:02Z</time>
      </trkpt>
      <trkpt lat="48.76981" lon="-3.46005">
        <ele>20</ele>
        <time>2015-11-13T14:57:07Z</time>
      </trkpt>
      <trkpt lat="48.76964" lon="-3.46021">
        <ele>20</ele>
        <time>2015-11-13T14:57:13Z</time>
      </trkpt>
      <trkpt lat="48.76942" lon="-3.46041">
        <ele>20</ele>
        <time>2015-11-13T14:57:20Z</time>
      </trkpt>
      <trkpt lat="48.76928" lon="-3.46051">
        <ele>20</ele>
        <time>2015-11-13T14:57:24Z</time>
      </trkpt>
      <trkpt lat="48.76912" lon="-3.46061">
        <ele>19</ele>
        <time>2015-11-13T14:57:28Z</time>
      </trkpt>
      <trkpt lat="48.76893" lon="-3.46067">
        <ele>19</ele>
        <time>2015-11-13T14:57:32Z</time>
      </trkpt>
      <trkpt lat="48.76876" lon="-3.4607">
        <ele>19</ele>
        <time>2015-11-13T14:57:35Z</time>
      </trkpt>
      <trkpt lat="48.76858" lon="-3.46077">
        <ele>19</ele>
        <time>2015-11-13T14:57:38Z</time>
      </trkpt>
      <trkpt lat="48.76835" lon="-3.46094">
        <ele>19</ele>
        <time>2015-11-13T14:57:42Z</time>
      </trkpt>
      <trkpt lat="48.76818" lon="-3.46109">
        <ele>19</ele>
        <time>2015-11-13T14:57:45Z</time>
      </trkpt>
      <trkpt lat="48.76801" lon="-3.46122">
        <ele>19</ele>
        <time>2015-11-13T14:57:48Z</time>
      </trkpt>
      <trkpt lat="48.76783" lon="-3.46135">
        <ele>19</ele>
        <time>2015-11-13T14:57:51Z</time>
      </trkpt>
      <trkpt lat="48.76767" lon="-3.46147">
        <ele>19</ele>
        <time>2015-11-13T14:57:54Z</time>
      </trkpt>
      <trkpt lat="48.76751" lon="-3.46159">
        <ele>19</ele>
        <time>2015-11-13T14:57:57Z</time>
      </trkpt>
      <trkpt lat="48.76735" lon="-3.4617">
        <ele>19</ele>
        <time>2015-11-13T14:58:00Z</time>
      </trkpt>
      <trkpt lat="48.76719" lon="-3.46182">
        <ele>19</ele>
        <time>2015-11-13T14:58:03Z</time>
      </trkpt>
      <trkpt lat="48.76704" lon="-3.46193">
        <ele>19</ele>
        <time>2015-11-13T14:58:06Z</time>
      </trkpt>
      <trkpt lat="48.7669" lon="-3.46203">
        <ele>19</ele>
        <time>2015-11-13T14:58:09Z</time>
      </trkpt>
      <trkpt lat="48.76672" lon="-3.46216">
        <ele>19</ele>
        <time>2015-11-13T14:58:13Z</time>
      </trkpt>
      <trkpt lat="48.76651" lon="-3.4623">
        <ele>19</ele>
        <time>2015-11-13T14:58:18Z</time>
      </trkpt>
      <trkpt lat="48.76635" lon="-3.46238">
        <ele>19</ele>
        <time>2015-11-13T14:58:22Z</time>
      </trkpt>
      <trkpt lat="48.76617" lon="-3.46241">
        <ele>19</ele>
        <time>2015-11-13T14:58:26Z</time>
      </trkpt>
      <trkpt lat="48.76595" lon="-3.46244">
        <ele>19</ele>
        <time>2015-11-13T14:58:31Z</time>
      </trkpt>
      <trkpt lat="48.7658" lon="-3.4625">
        <ele>19</ele>
        <time>2015-11-13T14:58:35Z</time>
      </trkpt>
      <trkpt lat="48.76564" lon="-3.46255">
        <ele>19</ele>
        <time>2015-11-13T14:58:41Z</time>
      </trkpt>
      <trkpt lat="48.76544" lon="-3.46255">
        <ele>19</ele>
        <time>2015-11-13T14:58:46Z</time>
      </trkpt>
      <trkpt lat="48.76527" lon="-3.46261">
        <ele>19</ele>
        <time>2015-11-13T14:58:49Z</time>
      </trkpt>
      <trkpt lat="48.76507" lon="-3.46296">
        <ele>19</ele>
        <time>2015-11-13T14:58:54Z</time>
      </trkpt>
      <trkpt lat="48.76498" lon="-3.4632">
        <ele>19</ele>
        <time>2015-11-13T14:58:57Z</time>
      </trkpt>
      <trkpt lat="48.76489" lon="-3.46348">
        <ele>19</ele>
        <time>2015-11-13T14:59:00Z</time>
      </trkpt>
      <trkpt lat="48.76482" lon="-3.46377">
        <ele>19</ele>
        <time>2015-11-13T14:59:03Z</time>
      </trkpt>
      <trkpt lat="48.76474" lon="-3.46407">
        <ele>18</ele>
        <time>2015-11-13T14:59:06Z</time>
      </trkpt>
      <trkpt lat="48.76467" lon="-3.46437">
        <ele>18</ele>
        <time>2015-11-13T14:59:09Z</time>
      </trkpt>
      <trkpt lat="48.76461" lon="-3.46467">
        <ele>18</ele>
        <time>2015-11-13T14:59:12Z</time>
      </trkpt>
      <trkpt lat="48.76454" lon="-3.46495">
        <ele>18</ele>
        <time>2015-11-13T14:59:15Z</time>
      </trkpt>
      <trkpt lat="48.76448" lon="-3.46523">
        <ele>18</ele>
        <time>2015-11-13T14:59:18Z</time>
      </trkpt>
      <trkpt lat="48.76445" lon="-3.46549">
        <ele>18</ele>
        <time>2015-11-13T14:59:21Z</time>
      </trkpt>
      <trkpt lat="48.76442" lon="-3.46576">
        <ele>18</ele>
        <time>2015-11-13T14:59:25Z</time>
      </trkpt>
      <trkpt lat="48.76437" lon="-3.466">
        <ele>18</ele>
        <time>2015-11-13T14:59:30Z</time>
      </trkpt>
      <trkpt lat="48.76431" lon="-3.46626">
        <ele>18</ele>
        <time>2015-11-13T14:59:36Z</time>
      </trkpt>
      <trkpt lat="48.76425" lon="-3.46648">
        <ele>18</ele>
        <time>2015-11-13T14:59:41Z</time>
      </trkpt>
      <trkpt lat="48.76417" lon="-3.46668">
        <ele>18</ele>
        <time>2015-11-13T14:59:46Z</time>
      </trkpt>
      <trkpt lat="48.76408" lon="-3.46689">
        <ele>18</ele>
        <time>2015-11-13T14:59:51Z</time>
      </trkpt>
      <trkpt lat="48.76399" lon="-3.46717">
        <ele>18</ele>
        <time>2015-11-13T14:59:57Z</time>
      </trkpt>
      <trkpt lat="48.76384" lon="-3.46764">
        <ele>18</ele>
        <time>2015-11-13T15:00:07Z</time>
      </trkpt>
      <trkpt lat="48.76377" lon="-3.46788">
        <ele>18</ele>
        <time>2015-11-13T15:00:12Z</time>
      </trkpt>
      <trkpt lat="48.76372" lon="-3.46813">
        <ele>18</ele>
        <time>2015-11-13T15:00:17Z</time>
      </trkpt>
      <trkpt lat="48.76367" lon="-3.46836">
        <ele>18</ele>
        <time>2015-11-13T15:00:22Z</time>
      </trkpt>
      <trkpt lat="48.76361" lon="-3.46861">
        <ele>18</ele>
        <time>2015-11-13T15:00:28Z</time>
      </trkpt>
      <trkpt lat="48.76351" lon="-3.46881">
        <ele>18</ele>
        <time>2015-11-13T15:00:34Z</time>
      </trkpt>
      <trkpt lat="48.76335" lon="-3.46902">
        <ele>18</ele>
        <time>2015-11-13T15:00:45Z</time>
      </trkpt>
      <trkpt lat="48.76321" lon="-3.46912">
        <ele>19</ele>
        <time>2015-11-13T15:00:52Z</time>
      </trkpt>
      <trkpt lat="48.76305" lon="-3.46917">
        <ele>20</ele>
        <time>2015-11-13T15:00:58Z</time>
      </trkpt>
      <trkpt lat="48.76293" lon="-3.4692">
        <ele>21</ele>
        <time>2015-11-13T15:01:03Z</time>
      </trkpt>
      <trkpt lat="48.76283" lon="-3.46923">
        <ele>22</ele>
        <time>2015-11-13T15:01:07Z</time>
      </trkpt>
      <trkpt lat="48.76271" lon="-3.46929">
        <ele>23</ele>
        <time>2015-11-13T15:01:12Z</time>
      </trkpt>
      <trkpt lat="48.76262" lon="-3.46938">
        <ele>24</ele>
        <time>2015-11-13T15:01:16Z</time>
      </trkpt>
      <trkpt lat="48.76252" lon="-3.46952">
        <ele>25</ele>
        <time>2015-11-13T15:01:21Z</time>
      </trkpt>
      <trkpt lat="48.76247" lon="-3.46961">
        <ele>26</ele>
        <time>2015-11-13T15:01:24Z</time>
      </trkpt>
      <trkpt lat="48.76242" lon="-3.46972">
        <ele>26</ele>
        <time>2015-11-13T15:01:27Z</time>
      </trkpt>
      <trkpt lat="48.76238" lon="-3.46985">
        <ele>27</ele>
        <time>2015-11-13T15:01:30Z</time>
      </trkpt>
      <trkpt lat="48.76234" lon="-3.46999">
        <ele>27</ele>
        <time>2015-11-13T15:01:33Z</time>
      </trkpt>
      <trkpt lat="48.76227" lon="-3.47021">
        <ele>27</ele>
        <time>2015-11-13T15:01:38Z</time>
      </trkpt>
      <trkpt lat="48.76217" lon="-3.47043">
        <ele>28</ele>
        <time>2015-11-13T15:01:43Z</time>
      </trkpt>
      <trkpt lat="48.76203" lon="-3.47062">
        <ele>28</ele>
        <time>2015-11-13T15:01:48Z</time>
      </trkpt>
      <trkpt lat="48.76189" lon="-3.47079">
        <ele>28</ele>
        <time>2015-11-13T15:01:53Z</time>
      </trkpt>
      <trkpt lat="48.76175" lon="-3.47095">
        <ele>29</ele>
        <time>2015-11-13T15:01:58Z</time>
      </trkpt>
      <trkpt lat="48.76163" lon="-3.47109">
        <ele>29</ele>
        <time>2015-11-13T15:02:04Z</time>
      </trkpt>
      <trkpt lat="48.76144" lon="-3.47118">
        <ele>29</ele>
        <time>2015-11-13T15:02:23Z</time>
      </trkpt>
      <trkpt lat="48.76131" lon="-3.47135">
        <ele>29</ele>
        <time>2015-11-13T15:02:28Z</time>
      </trkpt>
      <trkpt lat="48.76121" lon="-3.47165">
        <ele>29</ele>
        <time>2015-11-13T15:02:34Z</time>
      </trkpt>
      <trkpt lat="48.76114" lon="-3.47189">
        <ele>29</ele>
        <time>2015-11-13T15:02:38Z</time>
      </trkpt>
      <trkpt lat="48.76108" lon="-3.47212">
        <ele>29</ele>
        <time>2015-11-13T15:02:42Z</time>
      </trkpt>
      <trkpt lat="48.761" lon="-3.47236">
        <ele>29</ele>
        <time>2015-11-13T15:02:46Z</time>
      </trkpt>
      <trkpt lat="48.76093" lon="-3.47262">
        <ele>29</ele>
        <time>2015-11-13T15:02:50Z</time>
      </trkpt>
      <trkpt lat="48.76085" lon="-3.47294">
        <ele>29</ele>
        <time>2015-11-13T15:02:55Z</time>
      </trkpt>
      <trkpt lat="48.76079" lon="-3.47318">
        <ele>28</ele>
        <time>2015-11-13T15:02:59Z</time>
      </trkpt>
      <trkpt lat="48.76063" lon="-3.47317">
        <ele>28</ele>
        <time>2015-11-13T15:03:04Z</time>
      </trkpt>
      <trkpt lat="48.76048" lon="-3.4731">
        <ele>28</ele>
        <time>2015-11-13T15:03:08Z</time>
      </trkpt>
      <trkpt lat="48.76032" lon="-3.47305">
        <ele>28</ele>
        <time>2015-11-13T15:03:12Z</time>
      </trkpt>
      <trkpt lat="48.76024" lon="-3.47302">
        <ele>28</ele>
        <time>2015-11-13T15:03:14Z</time>
      </trkpt>
      <trkpt lat="48.76016" lon="-3.47299">
        <ele>28</ele>
        <time>2015-11-13T15:03:16Z</time>
      </trkpt>
      <trkpt lat="48.76008" lon="-3.47297">
        <ele>28</ele>
        <time>2015-11-13T15:03:18Z</time>
      </trkpt>
      <trkpt lat="48.75991" lon="-3.47296">
        <ele>28</ele>
        <time>2015-11-13T15:03:22Z</time>
      </trkpt>
      <trkpt lat="48.75983" lon="-3.47299">
        <ele>28</ele>
        <time>2015-11-13T15:03:24Z</time>
      </trkpt>
      <trkpt lat="48.75975" lon="-3.47303">
        <ele>28</ele>
        <time>2015-11-13T15:03:26Z</time>
      </trkpt>
      <trkpt lat="48.75963" lon="-3.47309">
        <ele>28</ele>
        <time>2015-11-13T15:03:29Z</time>
      </trkpt>
      <trkpt lat="48.75953" lon="-3.47318">
        <ele>28</ele>
        <time>2015-11-13T15:03:32Z</time>
      </trkpt>
      <trkpt lat="48.75954" lon="-3.47346">
        <ele>29</ele>
        <time>2015-11-13T15:03:37Z</time>
      </trkpt>
      <trkpt lat="48.7596" lon="-3.47366">
        <ele>29</ele>
        <time>2015-11-13T15:03:40Z</time>
      </trkpt>
      <trkpt lat="48.75968" lon="-3.47394">
        <ele>29</ele>
        <time>2015-11-13T15:03:44Z</time>
      </trkpt>
      <trkpt lat="48.75973" lon="-3.47416">
        <ele>29</ele>
        <time>2015-11-13T15:03:47Z</time>
      </trkpt>
      <trkpt lat="48.75975" lon="-3.47431">
        <ele>29</ele>
        <time>2015-11-13T15:03:49Z</time>
      </trkpt>
      <trkpt lat="48.75977" lon="-3.47459">
        <ele>29</ele>
        <time>2015-11-13T15:03:53Z</time>
      </trkpt>
      <trkpt lat="48.75977" lon="-3.47487">
        <ele>29</ele>
        <time>2015-11-13T15:03:57Z</time>
      </trkpt>
      <trkpt lat="48.75975" lon="-3.47508">
        <ele>29</ele>
        <time>2015-11-13T15:04:00Z</time>
      </trkpt>
      <trkpt lat="48.75973" lon="-3.47523">
        <ele>29</ele>
        <time>2015-11-13T15:04:02Z</time>
      </trkpt>
      <trkpt lat="48.75971" lon="-3.47537">
        <ele>29</ele>
        <time>2015-11-13T15:04:04Z</time>
      </trkpt>
      <trkpt lat="48.75969" lon="-3.47552">
        <ele>29</ele>
        <time>2015-11-13T15:04:06Z</time>
      </trkpt>
      <trkpt lat="48.75968" lon="-3.47566">
        <ele>29</ele>
        <time>2015-11-13T15:04:08Z</time>
      </trkpt>
      <trkpt lat="48.75966" lon="-3.47581">
        <ele>29</ele>
        <time>2015-11-13T15:04:10Z</time>
      </trkpt>
      <trkpt lat="48.75964" lon="-3.47596">
        <ele>29</ele>
        <time>2015-11-13T15:04:12Z</time>
      </trkpt>
      <trkpt lat="48.75962" lon="-3.4761">
        <ele>29</ele>
        <time>2015-11-13T15:04:14Z</time>
      </trkpt>
      <trkpt lat="48.75961" lon="-3.47624">
        <ele>29</ele>
        <time>2015-11-13T15:04:16Z</time>
      </trkpt>
      <trkpt lat="48.75959" lon="-3.47638">
        <ele>29</ele>
        <time>2015-11-13T15:04:18Z</time>
      </trkpt>
      <trkpt lat="48.75956" lon="-3.47659">
        <ele>29</ele>
        <time>2015-11-13T15:04:21Z</time>
      </trkpt>
      <trkpt lat="48.75954" lon="-3.47673">
        <ele>29</ele>
        <time>2015-11-13T15:04:23Z</time>
      </trkpt>
      <trkpt lat="48.75952" lon="-3.47687">
        <ele>29</ele>
        <time>2015-11-13T15:04:25Z</time>
      </trkpt>
      <trkpt lat="48.75951" lon="-3.47702">
        <ele>29</ele>
        <time>2015-11-13T15:04:27Z</time>
      </trkpt>
      <trkpt lat="48.7595" lon="-3.47717">
        <ele>29</ele>
        <time>2015-11-13T15:04:29Z</time>
      </trkpt>
      <trkpt lat="48.75949" lon="-3.47732">
        <ele>29</ele>
        <time>2015-11-13T15:04:31Z</time>
      </trkpt>
      <trkpt lat="48.75949" lon="-3.47748">
        <ele>29</ele>
        <time>2015-11-13T15:04:33Z</time>
      </trkpt>
      <trkpt lat="48.75949" lon="-3.47771">
        <ele>29</ele>
        <time>2015-11-13T15:04:36Z</time>
      </trkpt>
      <trkpt lat="48.75951" lon="-3.47787">
        <ele>29</ele>
        <time>2015-11-13T15:04:38Z</time>
      </trkpt>
      <trkpt lat="48.75953" lon="-3.47811">
        <ele>29</ele>
        <time>2015-11-13T15:04:41Z</time>
      </trkpt>
      <trkpt lat="48.75955" lon="-3.47827">
        <ele>29</ele>
        <time>2015-11-13T15:04:43Z</time>
      </trkpt>
      <trkpt lat="48.75958" lon="-3.47843">
        <ele>29</ele>
        <time>2015-11-13T15:04:45Z</time>
      </trkpt>
      <trkpt lat="48.75961" lon="-3.47858">
        <ele>29</ele>
        <time>2015-11-13T15:04:47Z</time>
      </trkpt>
      <trkpt lat="48.75965" lon="-3.47873">
        <ele>29</ele>
        <time>2015-11-13T15:04:49Z</time>
      </trkpt>
      <trkpt lat="48.75969" lon="-3.47888">
        <ele>30</ele>
        <time>2015-11-13T15:04:51Z</time>
      </trkpt>
      <trkpt lat="48.75972" lon="-3.47903">
        <ele>30</ele>
        <time>2015-11-13T15:04:53Z</time>
      </trkpt>
      <trkpt lat="48.75976" lon="-3.47917">
        <ele>30</ele>
        <time>2015-11-13T15:04:55Z</time>
      </trkpt>
      <trkpt lat="48.7598" lon="-3.47931">
        <ele>30</ele>
        <time>2015-11-13T15:04:57Z</time>
      </trkpt>
      <trkpt lat="48.75983" lon="-3.47945">
        <ele>30</ele>
        <time>2015-11-13T15:04:59Z</time>
      </trkpt>
      <trkpt lat="48.75989" lon="-3.47968">
        <ele>30</ele>
        <time>2015-11-13T15:05:03Z</time>
      </trkpt>
      <trkpt lat="48.7598" lon="-3.47989">
        <ele>31</ele>
        <time>2015-11-13T15:05:12Z</time>
      </trkpt>
      <trkpt lat="48.75971" lon="-3.47993">
        <ele>31</ele>
        <time>2015-11-13T15:05:14Z</time>
      </trkpt>
      <trkpt lat="48.75962" lon="-3.47997">
        <ele>31</ele>
        <time>2015-11-13T15:05:16Z</time>
      </trkpt>
      <trkpt lat="48.75954" lon="-3.48002">
        <ele>31</ele>
        <time>2015-11-13T15:05:18Z</time>
      </trkpt>
      <trkpt lat="48.75945" lon="-3.48006">
        <ele>31</ele>
        <time>2015-11-13T15:05:20Z</time>
      </trkpt>
      <trkpt lat="48.75937" lon="-3.48011">
        <ele>32</ele>
        <time>2015-11-13T15:05:22Z</time>
      </trkpt>
      <trkpt lat="48.75924" lon="-3.48018">
        <ele>32</ele>
        <time>2015-11-13T15:05:25Z</time>
      </trkpt>
      <trkpt lat="48.75916" lon="-3.48024">
        <ele>32</ele>
        <time>2015-11-13T15:05:27Z</time>
      </trkpt>
      <trkpt lat="48.75908" lon="-3.48031">
        <ele>32</ele>
        <time>2015-11-13T15:05:29Z</time>
      </trkpt>
      <trkpt lat="48.759" lon="-3.48041">
        <ele>32</ele>
        <time>2015-11-13T15:05:31Z</time>
      </trkpt>
      <trkpt lat="48.75891" lon="-3.48057">
        <ele>32</ele>
        <time>2015-11-13T15:05:34Z</time>
      </trkpt>
      <trkpt lat="48.75885" lon="-3.48068">
        <ele>32</ele>
        <time>2015-11-13T15:05:36Z</time>
      </trkpt>
      <trkpt lat="48.75881" lon="-3.4808">
        <ele>32</ele>
        <time>2015-11-13T15:05:38Z</time>
      </trkpt>
      <trkpt lat="48.75876" lon="-3.48091">
        <ele>32</ele>
        <time>2015-11-13T15:05:40Z</time>
      </trkpt>
      <trkpt lat="48.75872" lon="-3.48102">
        <ele>33</ele>
        <time>2015-11-13T15:05:42Z</time>
      </trkpt>
      <trkpt lat="48.75867" lon="-3.48113">
        <ele>33</ele>
        <time>2015-11-13T15:05:44Z</time>
      </trkpt>
      <trkpt lat="48.75863" lon="-3.48123">
        <ele>33</ele>
        <time>2015-11-13T15:05:46Z</time>
      </trkpt>
      <trkpt lat="48.75858" lon="-3.48133">
        <ele>33</ele>
        <time>2015-11-13T15:05:48Z</time>
      </trkpt>
      <trkpt lat="48.75854" lon="-3.48144">
        <ele>34</ele>
        <time>2015-11-13T15:05:50Z</time>
      </trkpt>
      <trkpt lat="48.75849" lon="-3.48155">
        <ele>34</ele>
        <time>2015-11-13T15:05:52Z</time>
      </trkpt>
      <trkpt lat="48.75842" lon="-3.48172">
        <ele>34</ele>
        <time>2015-11-13T15:05:55Z</time>
      </trkpt>
      <trkpt lat="48.75838" lon="-3.48183">
        <ele>34</ele>
        <time>2015-11-13T15:05:57Z</time>
      </trkpt>
      <trkpt lat="48.75834" lon="-3.48194">
        <ele>34</ele>
        <time>2015-11-13T15:05:59Z</time>
      </trkpt>
      <trkpt lat="48.75829" lon="-3.48205">
        <ele>34</ele>
        <time>2015-11-13T15:06:01Z</time>
      </trkpt>
      <trkpt lat="48.75825" lon="-3.48216">
        <ele>34</ele>
        <time>2015-11-13T15:06:03Z</time>
      </trkpt>
      <trkpt lat="48.75816" lon="-3.48239">
        <ele>34</ele>
        <time>2015-11-13T15:06:07Z</time>
      </trkpt>
      <trkpt lat="48.7581" lon="-3.48264">
        <ele>34</ele>
        <time>2015-11-13T15:06:11Z</time>
      </trkpt>
      <trkpt lat="48.75804" lon="-3.48288">
        <ele>35</ele>
        <time>2015-11-13T15:06:15Z</time>
      </trkpt>
      <trkpt lat="48.75802" lon="-3.483">
        <ele>35</ele>
        <time>2015-11-13T15:06:17Z</time>
      </trkpt>
      <trkpt lat="48.75799" lon="-3.48319">
        <ele>35</ele>
        <time>2015-11-13T15:06:20Z</time>
      </trkpt>
      <trkpt lat="48.75797" lon="-3.48331">
        <ele>35</ele>
        <time>2015-11-13T15:06:22Z</time>
      </trkpt>
      <trkpt lat="48.75794" lon="-3.48355">
        <ele>35</ele>
        <time>2015-11-13T15:06:26Z</time>
      </trkpt>
      <trkpt lat="48.75792" lon="-3.48368">
        <ele>35</ele>
        <time>2015-11-13T15:06:28Z</time>
      </trkpt>
      <trkpt lat="48.75791" lon="-3.48381">
        <ele>35</ele>
        <time>2015-11-13T15:06:30Z</time>
      </trkpt>
      <trkpt lat="48.7579" lon="-3.48393">
        <ele>35</ele>
        <time>2015-11-13T15:06:32Z</time>
      </trkpt>
      <trkpt lat="48.75786" lon="-3.48418">
        <ele>35</ele>
        <time>2015-11-13T15:06:36Z</time>
      </trkpt>
      <trkpt lat="48.75784" lon="-3.4843">
        <ele>35</ele>
        <time>2015-11-13T15:06:38Z</time>
      </trkpt>
      <trkpt lat="48.75782" lon="-3.48443">
        <ele>35</ele>
        <time>2015-11-13T15:06:40Z</time>
      </trkpt>
      <trkpt lat="48.7578" lon="-3.48455">
        <ele>35</ele>
        <time>2015-11-13T15:06:42Z</time>
      </trkpt>
      <trkpt lat="48.75777" lon="-3.48468">
        <ele>35</ele>
        <time>2015-11-13T15:06:44Z</time>
      </trkpt>
      <trkpt lat="48.75769" lon="-3.48491">
        <ele>35</ele>
        <time>2015-11-13T15:06:48Z</time>
      </trkpt>
      <trkpt lat="48.75764" lon="-3.48502">
        <ele>35</ele>
        <time>2015-11-13T15:06:50Z</time>
      </trkpt>
      <trkpt lat="48.75752" lon="-3.48521">
        <ele>36</ele>
        <time>2015-11-13T15:06:54Z</time>
      </trkpt>
      <trkpt lat="48.75739" lon="-3.48538">
        <ele>36</ele>
        <time>2015-11-13T15:06:58Z</time>
      </trkpt>
      <trkpt lat="48.75723" lon="-3.48547">
        <ele>36</ele>
        <time>2015-11-13T15:07:02Z</time>
      </trkpt>
      <trkpt lat="48.75706" lon="-3.48551">
        <ele>36</ele>
        <time>2015-11-13T15:07:06Z</time>
      </trkpt>
      <trkpt lat="48.75694" lon="-3.48552">
        <ele>36</ele>
        <time>2015-11-13T15:07:09Z</time>
      </trkpt>
      <trkpt lat="48.75677" lon="-3.48551">
        <ele>37</ele>
        <time>2015-11-13T15:07:13Z</time>
      </trkpt>
      <trkpt lat="48.75668" lon="-3.48548">
        <ele>37</ele>
        <time>2015-11-13T15:07:15Z</time>
      </trkpt>
      <trkpt lat="48.7566" lon="-3.48544">
        <ele>37</ele>
        <time>2015-11-13T15:07:17Z</time>
      </trkpt>
      <trkpt lat="48.75652" lon="-3.4854">
        <ele>37</ele>
        <time>2015-11-13T15:07:19Z</time>
      </trkpt>
      <trkpt lat="48.75644" lon="-3.48534">
        <ele>37</ele>
        <time>2015-11-13T15:07:21Z</time>
      </trkpt>
      <trkpt lat="48.75636" lon="-3.48527">
        <ele>38</ele>
        <time>2015-11-13T15:07:23Z</time>
      </trkpt>
      <trkpt lat="48.75622" lon="-3.48509">
        <ele>38</ele>
        <time>2015-11-13T15:07:27Z</time>
      </trkpt>
      <trkpt lat="48.75609" lon="-3.48488">
        <ele>38</ele>
        <time>2015-11-13T15:07:31Z</time>
      </trkpt>
      <trkpt lat="48.75594" lon="-3.48467">
        <ele>38</ele>
        <time>2015-11-13T15:07:35Z</time>
      </trkpt>
      <trkpt lat="48.7558" lon="-3.48454">
        <ele>38</ele>
        <time>2015-11-13T15:07:38Z</time>
      </trkpt>
      <trkpt lat="48.75564" lon="-3.48444">
        <ele>38</ele>
        <time>2015-11-13T15:07:41Z</time>
      </trkpt>
      <trkpt lat="48.75546" lon="-3.48439">
        <ele>39</ele>
        <time>2015-11-13T15:07:44Z</time>
      </trkpt>
      <trkpt lat="48.75528" lon="-3.4844">
        <ele>39</ele>
        <time>2015-11-13T15:07:47Z</time>
      </trkpt>
      <trkpt lat="48.75509" lon="-3.48446">
        <ele>39</ele>
        <time>2015-11-13T15:07:50Z</time>
      </trkpt>
      <trkpt lat="48.75498" lon="-3.48451">
        <ele>40</ele>
        <time>2015-11-13T15:07:52Z</time>
      </trkpt>
      <trkpt lat="48.75482" lon="-3.48459">
        <ele>40</ele>
        <time>2015-11-13T15:07:55Z</time>
      </trkpt>
      <trkpt lat="48.75467" lon="-3.48464">
        <ele>40</ele>
        <time>2015-11-13T15:07:58Z</time>
      </trkpt>
      <trkpt lat="48.75451" lon="-3.48465">
        <ele>40</ele>
        <time>2015-11-13T15:08:01Z</time>
      </trkpt>
      <trkpt lat="48.75433" lon="-3.48471">
        <ele>40</ele>
        <time>2015-11-13T15:08:05Z</time>
      </trkpt>
      <trkpt lat="48.75414" lon="-3.48477">
        <ele>40</ele>
        <time>2015-11-13T15:08:09Z</time>
      </trkpt>
      <trkpt lat="48.75396" lon="-3.4848">
        <ele>40</ele>
        <time>2015-11-13T15:08:13Z</time>
      </trkpt>
      <trkpt lat="48.75377" lon="-3.48479">
        <ele>40</ele>
        <time>2015-11-13T15:08:17Z</time>
      </trkpt>
      <trkpt lat="48.75361" lon="-3.48476">
        <ele>40</ele>
        <time>2015-11-13T15:08:21Z</time>
      </trkpt>
      <trkpt lat="48.75343" lon="-3.48472">
        <ele>40</ele>
        <time>2015-11-13T15:08:26Z</time>
      </trkpt>
      <trkpt lat="48.75327" lon="-3.48468">
        <ele>40</ele>
        <time>2015-11-13T15:08:30Z</time>
      </trkpt>
      <trkpt lat="48.75311" lon="-3.48467">
        <ele>40</ele>
        <time>2015-11-13T15:08:34Z</time>
      </trkpt>
      <trkpt lat="48.75295" lon="-3.48472">
        <ele>40</ele>
        <time>2015-11-13T15:08:38Z</time>
      </trkpt>
      <trkpt lat="48.75279" lon="-3.48478">
        <ele>40</ele>
        <time>2015-11-13T15:08:42Z</time>
      </trkpt>
      <trkpt lat="48.75261" lon="-3.48486">
        <ele>39</ele>
        <time>2015-11-13T15:08:47Z</time>
      </trkpt>
      <trkpt lat="48.75243" lon="-3.48491">
        <ele>39</ele>
        <time>2015-11-13T15:08:52Z</time>
      </trkpt>
      <trkpt lat="48.75225" lon="-3.48497">
        <ele>39</ele>
        <time>2015-11-13T15:08:57Z</time>
      </trkpt>
      <trkpt lat="48.75208" lon="-3.48502">
        <ele>38</ele>
        <time>2015-11-13T15:09:02Z</time>
      </trkpt>
      <trkpt lat="48.75188" lon="-3.48507">
        <ele>38</ele>
        <time>2015-11-13T15:09:08Z</time>
      </trkpt>
      <trkpt lat="48.75171" lon="-3.4851">
        <ele>38</ele>
        <time>2015-11-13T15:09:13Z</time>
      </trkpt>
      <trkpt lat="48.75156" lon="-3.48515">
        <ele>38</ele>
        <time>2015-11-13T15:09:18Z</time>
      </trkpt>
      <trkpt lat="48.75136" lon="-3.4852">
        <ele>38</ele>
        <time>2015-11-13T15:09:24Z</time>
      </trkpt>
      <trkpt lat="48.75119" lon="-3.48526">
        <ele>38</ele>
        <time>2015-11-13T15:09:29Z</time>
      </trkpt>
      <trkpt lat="48.75094" lon="-3.48532">
        <ele>38</ele>
        <time>2015-11-13T15:09:36Z</time>
      </trkpt>
      <trkpt lat="48.75073" lon="-3.48537">
        <ele>38</ele>
        <time>2015-11-13T15:09:42Z</time>
      </trkpt>
      <trkpt lat="48.75046" lon="-3.48542">
        <ele>39</ele>
        <time>2015-11-13T15:09:49Z</time>
      </trkpt>
      <trkpt lat="48.7503" lon="-3.48546">
        <ele>39</ele>
        <time>2015-11-13T15:09:53Z</time>
      </trkpt>
      <trkpt lat="48.75015" lon="-3.4855">
        <ele>39</ele>
        <time>2015-11-13T15:09:57Z</time>
      </trkpt>
      <trkpt lat="48.74996" lon="-3.48553">
        <ele>39</ele>
        <time>2015-11-13T15:10:02Z</time>
      </trkpt>
      <trkpt lat="48.74972" lon="-3.48552">
        <ele>39</ele>
        <time>2015-11-13T15:10:08Z</time>
      </trkpt>
      <trkpt lat="48.74953" lon="-3.48551">
        <ele>40</ele>
        <time>2015-11-13T15:10:12Z</time>
      </trkpt>
      <trkpt lat="48.74936" lon="-3.48553">
        <ele>40</ele>
        <time>2015-11-13T15:10:15Z</time>
      </trkpt>
      <trkpt lat="48.74916" lon="-3.48489">
        <ele>40</ele>
        <time>2015-11-13T15:10:27Z</time>
      </trkpt>
      <trkpt lat="48.74921" lon="-3.48463">
        <ele>40</ele>
        <time>2015-11-13T15:10:29Z</time>
      </trkpt>
      <trkpt lat="48.74929" lon="-3.4844">
        <ele>40</ele>
        <time>2015-11-13T15:10:31Z</time>
      </trkpt>
      <trkpt lat="48.7494" lon="-3.48423">
        <ele>40</ele>
        <time>2015-11-13T15:10:33Z</time>
      </trkpt>
      <trkpt lat="48.74957" lon="-3.48402">
        <ele>41</ele>
        <time>2015-11-13T15:10:36Z</time>
      </trkpt>
      <trkpt lat="48.74973" lon="-3.48378">
        <ele>41</ele>
        <time>2015-11-13T15:10:39Z</time>
      </trkpt>
      <trkpt lat="48.7499" lon="-3.4834">
        <ele>41</ele>
        <time>2015-11-13T15:10:43Z</time>
      </trkpt>
      <trkpt lat="48.75" lon="-3.48307">
        <ele>41</ele>
        <time>2015-11-13T15:10:46Z</time>
      </trkpt>
      <trkpt lat="48.75006" lon="-3.48284">
        <ele>41</ele>
        <time>2015-11-13T15:10:48Z</time>
      </trkpt>
      <trkpt lat="48.75011" lon="-3.48261">
        <ele>41</ele>
        <time>2015-11-13T15:10:50Z</time>
      </trkpt>
      <trkpt lat="48.75016" lon="-3.48239">
        <ele>42</ele>
        <time>2015-11-13T15:10:52Z</time>
      </trkpt>
      <trkpt lat="48.75021" lon="-3.48217">
        <ele>42</ele>
        <time>2015-11-13T15:10:54Z</time>
      </trkpt>
      <trkpt lat="48.75026" lon="-3.48194">
        <ele>42</ele>
        <time>2015-11-13T15:10:56Z</time>
      </trkpt>
      <trkpt lat="48.75029" lon="-3.48171">
        <ele>42</ele>
        <time>2015-11-13T15:10:58Z</time>
      </trkpt>
      <trkpt lat="48.75031" lon="-3.48147">
        <ele>42</ele>
        <time>2015-11-13T15:11:00Z</time>
      </trkpt>
      <trkpt lat="48.75033" lon="-3.48123">
        <ele>42</ele>
        <time>2015-11-13T15:11:02Z</time>
      </trkpt>
      <trkpt lat="48.75037" lon="-3.481">
        <ele>42</ele>
        <time>2015-11-13T15:11:04Z</time>
      </trkpt>
      <trkpt lat="48.75042" lon="-3.48077">
        <ele>42</ele>
        <time>2015-11-13T15:11:06Z</time>
      </trkpt>
      <trkpt lat="48.75046" lon="-3.48053">
        <ele>42</ele>
        <time>2015-11-13T15:11:08Z</time>
      </trkpt>
      <trkpt lat="48.75052" lon="-3.4803">
        <ele>42</ele>
        <time>2015-11-13T15:11:10Z</time>
      </trkpt>
      <trkpt lat="48.75057" lon="-3.48006">
        <ele>42</ele>
        <time>2015-11-13T15:11:12Z</time>
      </trkpt>
      <trkpt lat="48.75065" lon="-3.47984">
        <ele>43</ele>
        <time>2015-11-13T15:11:14Z</time>
      </trkpt>
      <trkpt lat="48.75071" lon="-3.4796">
        <ele>43</ele>
        <time>2015-11-13T15:11:16Z</time>
      </trkpt>
      <trkpt lat="48.75074" lon="-3.47937">
        <ele>43</ele>
        <time>2015-11-13T15:11:18Z</time>
      </trkpt>
      <trkpt lat="48.75077" lon="-3.47902">
        <ele>43</ele>
        <time>2015-11-13T15:11:21Z</time>
      </trkpt>
      <trkpt lat="48.75089" lon="-3.47875">
        <ele>43</ele>
        <time>2015-11-13T15:11:24Z</time>
      </trkpt>
      <trkpt lat="48.75107" lon="-3.47858">
        <ele>43</ele>
        <time>2015-11-13T15:11:27Z</time>
      </trkpt>
      <trkpt lat="48.75126" lon="-3.47845">
        <ele>43</ele>
        <time>2015-11-13T15:11:30Z</time>
      </trkpt>
      <trkpt lat="48.75145" lon="-3.47832">
        <ele>43</ele>
        <time>2015-11-13T15:11:33Z</time>
      </trkpt>
      <trkpt lat="48.75162" lon="-3.47825">
        <ele>43</ele>
        <time>2015-11-13T15:11:36Z</time>
      </trkpt>
      <trkpt lat="48.75178" lon="-3.47818">
        <ele>43</ele>
        <time>2015-11-13T15:11:39Z</time>
      </trkpt>
      <trkpt lat="48.75192" lon="-3.47808">
        <ele>43</ele>
        <time>2015-11-13T15:11:42Z</time>
      </trkpt>
      <trkpt lat="48.75208" lon="-3.47789">
        <ele>43</ele>
        <time>2015-11-13T15:11:46Z</time>
      </trkpt>
      <trkpt lat="48.75214" lon="-3.47759">
        <ele>43</ele>
        <time>2015-11-13T15:11:50Z</time>
      </trkpt>
      <trkpt lat="48.7521" lon="-3.47734">
        <ele>44</ele>
        <time>2015-11-13T15:11:53Z</time>
      </trkpt>
      <trkpt lat="48.75203" lon="-3.47709">
        <ele>44</ele>
        <time>2015-11-13T15:11:56Z</time>
      </trkpt>
      <trkpt lat="48.75198" lon="-3.47692">
        <ele>44</ele>
        <time>2015-11-13T15:11:58Z</time>
      </trkpt>
      <trkpt lat="48.75191" lon="-3.47665">
        <ele>44</ele>
        <time>2015-11-13T15:12:01Z</time>
      </trkpt>
      <trkpt lat="48.75185" lon="-3.47638">
        <ele>44</ele>
        <time>2015-11-13T15:12:04Z</time>
      </trkpt>
      <trkpt lat="48.75178" lon="-3.4761">
        <ele>44</ele>
        <time>2015-11-13T15:12:07Z</time>
      </trkpt>
      <trkpt lat="48.75174" lon="-3.47591">
        <ele>44</ele>
        <time>2015-11-13T15:12:09Z</time>
      </trkpt>
      <trkpt lat="48.75169" lon="-3.47563">
        <ele>44</ele>
        <time>2015-11-13T15:12:12Z</time>
      </trkpt>
      <trkpt lat="48.75162" lon="-3.47514">
        <ele>45</ele>
        <time>2015-11-13T15:12:17Z</time>
      </trkpt>
      <trkpt lat="48.75161" lon="-3.47494">
        <ele>45</ele>
        <time>2015-11-13T15:12:19Z</time>
      </trkpt>
      <trkpt lat="48.75161" lon="-3.47473">
        <ele>45</ele>
        <time>2015-11-13T15:12:21Z</time>
      </trkpt>
      <trkpt lat="48.75165" lon="-3.47432">
        <ele>45</ele>
        <time>2015-11-13T15:12:25Z</time>
      </trkpt>
      <trkpt lat="48.75168" lon="-3.47401">
        <ele>45</ele>
        <time>2015-11-13T15:12:28Z</time>
      </trkpt>
      <trkpt lat="48.75172" lon="-3.47369">
        <ele>44</ele>
        <time>2015-11-13T15:12:31Z</time>
      </trkpt>
      <trkpt lat="48.75179" lon="-3.47337">
        <ele>44</ele>
        <time>2015-11-13T15:12:34Z</time>
      </trkpt>
      <trkpt lat="48.7519" lon="-3.47283">
        <ele>43</ele>
        <time>2015-11-13T15:12:39Z</time>
      </trkpt>
      <trkpt lat="48.75195" lon="-3.47262">
        <ele>43</ele>
        <time>2015-11-13T15:12:41Z</time>
      </trkpt>
      <trkpt lat="48.752" lon="-3.47241">
        <ele>43</ele>
        <time>2015-11-13T15:12:43Z</time>
      </trkpt>
      <trkpt lat="48.75206" lon="-3.4721">
        <ele>42</ele>
        <time>2015-11-13T15:12:46Z</time>
      </trkpt>
      <trkpt lat="48.75211" lon="-3.47178">
        <ele>42</ele>
        <time>2015-11-13T15:12:49Z</time>
      </trkpt>
      <trkpt lat="48.75215" lon="-3.47144">
        <ele>42</ele>
        <time>2015-11-13T15:12:52Z</time>
      </trkpt>
      <trkpt lat="48.75213" lon="-3.4711">
        <ele>42</ele>
        <time>2015-11-13T15:12:55Z</time>
      </trkpt>
      <trkpt lat="48.75211" lon="-3.47087">
        <ele>42</ele>
        <time>2015-11-13T15:12:57Z</time>
      </trkpt>
      <trkpt lat="48.75208" lon="-3.47064">
        <ele>42</ele>
        <time>2015-11-13T15:12:59Z</time>
      </trkpt>
      <trkpt lat="48.75204" lon="-3.4704">
        <ele>42</ele>
        <time>2015-11-13T15:13:01Z</time>
      </trkpt>
      <trkpt lat="48.752" lon="-3.47017">
        <ele>42</ele>
        <time>2015-11-13T15:13:03Z</time>
      </trkpt>
      <trkpt lat="48.75197" lon="-3.46994">
        <ele>42</ele>
        <time>2015-11-13T15:13:05Z</time>
      </trkpt>
      <trkpt lat="48.75193" lon="-3.46971">
        <ele>42</ele>
        <time>2015-11-13T15:13:07Z</time>
      </trkpt>
      <trkpt lat="48.75189" lon="-3.46947">
        <ele>42</ele>
        <time>2015-11-13T15:13:09Z</time>
      </trkpt>
      <trkpt lat="48.75185" lon="-3.46925">
        <ele>42</ele>
        <time>2015-11-13T15:13:11Z</time>
      </trkpt>
      <trkpt lat="48.75179" lon="-3.46891">
        <ele>42</ele>
        <time>2015-11-13T15:13:14Z</time>
      </trkpt>
      <trkpt lat="48.75174" lon="-3.46858">
        <ele>42</ele>
        <time>2015-11-13T15:13:17Z</time>
      </trkpt>
      <trkpt lat="48.75169" lon="-3.46825">
        <ele>42</ele>
        <time>2015-11-13T15:13:20Z</time>
      </trkpt>
      <trkpt lat="48.75165" lon="-3.46794">
        <ele>42</ele>
        <time>2015-11-13T15:13:23Z</time>
      </trkpt>
      <trkpt lat="48.75159" lon="-3.46763">
        <ele>42</ele>
        <time>2015-11-13T15:13:26Z</time>
      </trkpt>
      <trkpt lat="48.75153" lon="-3.46732">
        <ele>42</ele>
        <time>2015-11-13T15:13:29Z</time>
      </trkpt>
      <trkpt lat="48.75123" lon="-3.46708">
        <ele>42</ele>
        <time>2015-11-13T15:13:34Z</time>
      </trkpt>
      <trkpt lat="48.75103" lon="-3.46706">
        <ele>42</ele>
        <time>2015-11-13T15:13:36Z</time>
      </trkpt>
      <trkpt lat="48.75083" lon="-3.46701">
        <ele>42</ele>
        <time>2015-11-13T15:13:38Z</time>
      </trkpt>
      <trkpt lat="48.75063" lon="-3.46695">
        <ele>42</ele>
        <time>2015-11-13T15:13:40Z</time>
      </trkpt>
      <trkpt lat="48.75044" lon="-3.46691">
        <ele>41</ele>
        <time>2015-11-13T15:13:42Z</time>
      </trkpt>
      <trkpt lat="48.75026" lon="-3.46692">
        <ele>41</ele>
        <time>2015-11-13T15:13:44Z</time>
      </trkpt>
      <trkpt lat="48.75008" lon="-3.46694">
        <ele>41</ele>
        <time>2015-11-13T15:13:46Z</time>
      </trkpt>
      <trkpt lat="48.74991" lon="-3.46695">
        <ele>40</ele>
        <time>2015-11-13T15:13:48Z</time>
      </trkpt>
      <trkpt lat="48.74966" lon="-3.46693">
        <ele>40</ele>
        <time>2015-11-13T15:13:51Z</time>
      </trkpt>
      <trkpt lat="48.74934" lon="-3.46691">
        <ele>40</ele>
        <time>2015-11-13T15:13:55Z</time>
      </trkpt>
      <trkpt lat="48.74918" lon="-3.46689">
        <ele>39</ele>
        <time>2015-11-13T15:13:57Z</time>
      </trkpt>
      <trkpt lat="48.74902" lon="-3.46687">
        <ele>39</ele>
        <time>2015-11-13T15:13:59Z</time>
      </trkpt>
      <trkpt lat="48.74886" lon="-3.46684">
        <ele>38</ele>
        <time>2015-11-13T15:14:01Z</time>
      </trkpt>
      <trkpt lat="48.7487" lon="-3.46683">
        <ele>38</ele>
        <time>2015-11-13T15:14:03Z</time>
      </trkpt>
      <trkpt lat="48.74853" lon="-3.46683">
        <ele>37</ele>
        <time>2015-11-13T15:14:05Z</time>
      </trkpt>
      <trkpt lat="48.74836" lon="-3.46683">
        <ele>37</ele>
        <time>2015-11-13T15:14:07Z</time>
      </trkpt>
      <trkpt lat="48.74819" lon="-3.46682">
        <ele>37</ele>
        <time>2015-11-13T15:14:09Z</time>
      </trkpt>
      <trkpt lat="48.74803" lon="-3.46682">
        <ele>36</ele>
        <time>2015-11-13T15:14:11Z</time>
      </trkpt>
      <trkpt lat="48.74787" lon="-3.46682">
        <ele>36</ele>
        <time>2015-11-13T15:14:13Z</time>
      </trkpt>
      <trkpt lat="48.74771" lon="-3.4668">
        <ele>36</ele>
        <time>2015-11-13T15:14:15Z</time>
      </trkpt>
      <trkpt lat="48.74755" lon="-3.46679">
        <ele>36</ele>
        <time>2015-11-13T15:14:17Z</time>
      </trkpt>
      <trkpt lat="48.74739" lon="-3.46679">
        <ele>36</ele>
        <time>2015-11-13T15:14:19Z</time>
      </trkpt>
      <trkpt lat="48.74724" lon="-3.46677">
        <ele>36</ele>
        <time>2015-11-13T15:14:21Z</time>
      </trkpt>
      <trkpt lat="48.74708" lon="-3.46676">
        <ele>35</ele>
        <time>2015-11-13T15:14:23Z</time>
      </trkpt>
      <trkpt lat="48.74686" lon="-3.46674">
        <ele>35</ele>
        <time>2015-11-13T15:14:26Z</time>
      </trkpt>
      <trkpt lat="48.74663" lon="-3.4667">
        <ele>35</ele>
        <time>2015-11-13T15:14:29Z</time>
      </trkpt>
      <trkpt lat="48.74642" lon="-3.46667">
        <ele>35</ele>
        <time>2015-11-13T15:14:32Z</time>
      </trkpt>
      <trkpt lat="48.74626" lon="-3.46663">
        <ele>35</ele>
        <time>2015-11-13T15:14:39Z</time>
      </trkpt>
      <trkpt lat="48.74608" lon="-3.46655">
        <ele>34</ele>
        <time>2015-11-13T15:14:44Z</time>
      </trkpt>
      <trkpt lat="48.74564" lon="-3.46619">
        <ele>35</ele>
        <time>2015-11-13T15:14:51Z</time>
      </trkpt>
      <trkpt lat="48.74547" lon="-3.46605">
        <ele>35</ele>
        <time>2015-11-13T15:14:53Z</time>
      </trkpt>
      <trkpt lat="48.7453" lon="-3.46592">
        <ele>35</ele>
        <time>2015-11-13T15:14:55Z</time>
      </trkpt>
      <trkpt lat="48.74513" lon="-3.4658">
        <ele>35</ele>
        <time>2015-11-13T15:14:57Z</time>
      </trkpt>
      <trkpt lat="48.74496" lon="-3.46569">
        <ele>35</ele>
        <time>2015-11-13T15:14:59Z</time>
      </trkpt>
      <trkpt lat="48.74487" lon="-3.46565">
        <ele>35</ele>
        <time>2015-11-13T15:15:00Z</time>
      </trkpt>
      <trkpt lat="48.74478" lon="-3.46561">
        <ele>35</ele>
        <time>2015-11-13T15:15:01Z</time>
      </trkpt>
      <trkpt lat="48.74469" lon="-3.46557">
        <ele>35</ele>
        <time>2015-11-13T15:15:02Z</time>
      </trkpt>
      <trkpt lat="48.7446" lon="-3.46553">
        <ele>35</ele>
        <time>2015-11-13T15:15:03Z</time>
      </trkpt>
      <trkpt lat="48.74451" lon="-3.46548">
        <ele>35</ele>
        <time>2015-11-13T15:15:04Z</time>
      </trkpt>
      <trkpt lat="48.74442" lon="-3.46544">
        <ele>35</ele>
        <time>2015-11-13T15:15:05Z</time>
      </trkpt>
      <trkpt lat="48.74433" lon="-3.46539">
        <ele>35</ele>
        <time>2015-11-13T15:15:06Z</time>
      </trkpt>
      <trkpt lat="48.74406" lon="-3.46528">
        <ele>35</ele>
        <time>2015-11-13T15:15:09Z</time>
      </trkpt>
      <trkpt lat="48.74397" lon="-3.46524">
        <ele>35</ele>
        <time>2015-11-13T15:15:10Z</time>
      </trkpt>
      <trkpt lat="48.74388" lon="-3.4652">
        <ele>35</ele>
        <time>2015-11-13T15:15:11Z</time>
      </trkpt>
      <trkpt lat="48.74378" lon="-3.46516">
        <ele>35</ele>
        <time>2015-11-13T15:15:12Z</time>
      </trkpt>
      <trkpt lat="48.74369" lon="-3.46512">
        <ele>35</ele>
        <time>2015-11-13T15:15:13Z</time>
      </trkpt>
      <trkpt lat="48.74359" lon="-3.46507">
        <ele>34</ele>
        <time>2015-11-13T15:15:14Z</time>
      </trkpt>
      <trkpt lat="48.74349" lon="-3.46503">
        <ele>34</ele>
        <time>2015-11-13T15:15:15Z</time>
      </trkpt>
      <trkpt lat="48.74338" lon="-3.46499">
        <ele>34</ele>
        <time>2015-11-13T15:15:16Z</time>
      </trkpt>
      <trkpt lat="48.74328" lon="-3.46496">
        <ele>34</ele>
        <time>2015-11-13T15:15:17Z</time>
      </trkpt>
      <trkpt lat="48.74318" lon="-3.46493">
        <ele>34</ele>
        <time>2015-11-13T15:15:18Z</time>
      </trkpt>
      <trkpt lat="48.74307" lon="-3.4649">
        <ele>34</ele>
        <time>2015-11-13T15:15:19Z</time>
      </trkpt>
      <trkpt lat="48.74297" lon="-3.46487">
        <ele>34</ele>
        <time>2015-11-13T15:15:20Z</time>
      </trkpt>
      <trkpt lat="48.74287" lon="-3.46484">
        <ele>34</ele>
        <time>2015-11-13T15:15:21Z</time>
      </trkpt>
      <trkpt lat="48.74268" lon="-3.4648">
        <ele>34</ele>
        <time>2015-11-13T15:15:23Z</time>
      </trkpt>
      <trkpt lat="48.74258" lon="-3.46477">
        <ele>34</ele>
        <time>2015-11-13T15:15:24Z</time>
      </trkpt>
      <trkpt lat="48.74238" lon="-3.46472">
        <ele>34</ele>
        <time>2015-11-13T15:15:26Z</time>
      </trkpt>
      <trkpt lat="48.74229" lon="-3.4647">
        <ele>34</ele>
        <time>2015-11-13T15:15:27Z</time>
      </trkpt>
      <trkpt lat="48.74219" lon="-3.46467">
        <ele>34</ele>
        <time>2015-11-13T15:15:28Z</time>
      </trkpt>
      <trkpt lat="48.74209" lon="-3.46464">
        <ele>34</ele>
        <time>2015-11-13T15:15:29Z</time>
      </trkpt>
      <trkpt lat="48.74158" lon="-3.4645">
        <ele>34</ele>
        <time>2015-11-13T15:15:34Z</time>
      </trkpt>
      <trkpt lat="48.74138" lon="-3.46444">
        <ele>34</ele>
        <time>2015-11-13T15:15:36Z</time>
      </trkpt>
      <trkpt lat="48.74127" lon="-3.46442">
        <ele>34</ele>
        <time>2015-11-13T15:15:37Z</time>
      </trkpt>
      <trkpt lat="48.74117" lon="-3.46439">
        <ele>34</ele>
        <time>2015-11-13T15:15:38Z</time>
      </trkpt>
      <trkpt lat="48.74107" lon="-3.46437">
        <ele>33</ele>
        <time>2015-11-13T15:15:39Z</time>
      </trkpt>
      <trkpt lat="48.74096" lon="-3.46435">
        <ele>33</ele>
        <time>2015-11-13T15:15:40Z</time>
      </trkpt>
      <trkpt lat="48.74067" lon="-3.46427">
        <ele>33</ele>
        <time>2015-11-13T15:15:43Z</time>
      </trkpt>
      <trkpt lat="48.74057" lon="-3.46424">
        <ele>33</ele>
        <time>2015-11-13T15:15:44Z</time>
      </trkpt>
      <trkpt lat="48.74047" lon="-3.46422">
        <ele>33</ele>
        <time>2015-11-13T15:15:45Z</time>
      </trkpt>
      <trkpt lat="48.74029" lon="-3.46417">
        <ele>33</ele>
        <time>2015-11-13T15:15:47Z</time>
      </trkpt>
      <trkpt lat="48.74011" lon="-3.46413">
        <ele>33</ele>
        <time>2015-11-13T15:15:49Z</time>
      </trkpt>
      <trkpt lat="48.74002" lon="-3.46411">
        <ele>33</ele>
        <time>2015-11-13T15:15:50Z</time>
      </trkpt>
      <trkpt lat="48.73993" lon="-3.46409">
        <ele>33</ele>
        <time>2015-11-13T15:15:51Z</time>
      </trkpt>
      <trkpt lat="48.73984" lon="-3.46407">
        <ele>33</ele>
        <time>2015-11-13T15:15:52Z</time>
      </trkpt>
      <trkpt lat="48.73975" lon="-3.46404">
        <ele>33</ele>
        <time>2015-11-13T15:15:53Z</time>
      </trkpt>
      <trkpt lat="48.73966" lon="-3.46401">
        <ele>33</ele>
        <time>2015-11-13T15:15:54Z</time>
      </trkpt>
      <trkpt lat="48.73883" lon="-3.4636">
        <ele>32</ele>
        <time>2015-11-13T15:16:05Z</time>
      </trkpt>
      <trkpt lat="48.73895" lon="-3.46337">
        <ele>31</ele>
        <time>2015-11-13T15:16:12Z</time>
      </trkpt>
      <trkpt lat="48.73913" lon="-3.46331">
        <ele>30</ele>
        <time>2015-11-13T15:16:15Z</time>
      </trkpt>
      <trkpt lat="48.73924" lon="-3.46313">
        <ele>29</ele>
        <time>2015-11-13T15:16:19Z</time>
      </trkpt>
      <trkpt lat="48.73914" lon="-3.46295">
        <ele>28</ele>
        <time>2015-11-13T15:16:23Z</time>
      </trkpt>
      <trkpt lat="48.73895" lon="-3.46284">
        <ele>28</ele>
        <time>2015-11-13T15:16:27Z</time>
      </trkpt>
      <trkpt lat="48.73834" lon="-3.46248">
        <ele>27</ele>
        <time>2015-11-13T15:16:37Z</time>
      </trkpt>
      <trkpt lat="48.73794" lon="-3.46224">
        <ele>26</ele>
        <time>2015-11-13T15:16:43Z</time>
      </trkpt>
      <trkpt lat="48.73775" lon="-3.46212">
        <ele>25</ele>
        <time>2015-11-13T15:16:46Z</time>
      </trkpt>
      <trkpt lat="48.73757" lon="-3.46201">
        <ele>25</ele>
        <time>2015-11-13T15:16:49Z</time>
      </trkpt>
      <trkpt lat="48.73738" lon="-3.46191">
        <ele>24</ele>
        <time>2015-11-13T15:16:52Z</time>
      </trkpt>
      <trkpt lat="48.73719" lon="-3.46192">
        <ele>23</ele>
        <time>2015-11-13T15:16:55Z</time>
      </trkpt>
      <trkpt lat="48.73709" lon="-3.46216">
        <ele>23</ele>
        <time>2015-11-13T15:16:58Z</time>
      </trkpt>
      <trkpt lat="48.73692" lon="-3.46248">
        <ele>22</ele>
        <time>2015-11-13T15:17:03Z</time>
      </trkpt>
      <trkpt lat="48.7368" lon="-3.46264">
        <ele>21</ele>
        <time>2015-11-13T15:17:06Z</time>
      </trkpt>
      <trkpt lat="48.73667" lon="-3.4628">
        <ele>21</ele>
        <time>2015-11-13T15:17:09Z</time>
      </trkpt>
      <trkpt lat="48.73644" lon="-3.46304">
        <ele>20</ele>
        <time>2015-11-13T15:17:14Z</time>
      </trkpt>
    </trkseg>
  </trk>
</gpx>